[[{"header":{"parameterUnit":"m.s-1","parameterCategory":1,"la1":30.6,"la2":28.766,"lo1":-90.7593,"lo2":-88.6598,"dy":0.0162,"dx":0.0183,"nx":116,"ny":114,"refTime":"2024-06-06T06:00:00:Z","depth":0,"parameterNumber":2,"parameterNumberName":"U-component_of_WINDS"},"data":[0.0,0.0,0.0,0.0,0.0,0.0,0.0,0.0,0.0,0.0,0.0,0.0,0.0,0.0,0.0,0.0,0.0,0.0,0.0,0.0,0.0,0.0,0.0,0.0,0.0,0.0,0.0,0.0,0.0,0.0,0.0,0.0,0.0,0.0,0.0,0.0,0.0,0.0,0.0,0.0,0.0,0.0,0.0,0.0,0.0,0.0,0.0,0.0,0.0,0.0,0.0,0.0,0.0,0.0,0.0,0.0,0.0,0.0,0.0,0.0,0.0,0.0,0.0,0.0,0.0,0.0,0.0,0.0,0.0,0.0,0.0,0.0,0.0,0.0,0.0,0.0,0.0,0.0,0.0,0.0,0.0,0.0,0.0,0.0,0.0,0.0,0.0,0.0,0.0,0.0,0.0,0.0,0.0,0.0,0.0,0.0,0.0,0.0,0.0,0.0,0.0,0.0,0.0,0.0,0.0,0.0,0.0,0.0,0.0,0.0,0.0,0.0,0.0,0.0,0.0,0.0,0.0,0.0,0.0,0.0,0.0,0.0,0.0,0.0,0.0,0.0,0.0,0.0,0.0,0.0,0.0,0.0,0.0,0.0,0.0,0.0,0.0,0.0,0.0,0.0,0.0,0.0,0.0,0.0,0.0,0.0,0.0,0.0,0.0,0.0,0.0,0.0,0.0,0.0,0.0,0.0,0.0,0.0,0.0,0.0,0.0,0.0,0.0,0.0,0.0,0.0,0.0,0.0,0.0,0.0,0.0,0.0,0.0,0.0,0.0,0.0,0.0,0.0,0.0,0.0,0.0,0.0,0.0,0.0,0.0,0.0,0.0,0.0,0.0,0.0,0.0,0.0,0.0,0.0,0.0,0.0,0.0,0.0,0.0,0.0,0.0,0.0,0.0,0.0,0.0,0.0,0.0,0.0,0.0,0.0,0.0,0.0,0.0,0.0,0.0,0.0,0.0,0.0,0.0,0.0,0.0,0.0,0.0,0.0,0.0,0.0,0.0,0.0,0.0,0.0,0.0,0.0,0.0,0.0,0.0,0.0,0.0,0.0,0.0,0.0,0.0,0.0,0.0,0.0,0.0,0.0,0.0,0.0,0.0,0.0,0.0,0.0,0.0,0.0,0.0,0.0,0.0,0.0,0.0,0.0,0.0,0.0,0.0,0.0,0.0,0.0,0.0,0.0,0.0,0.0,0.0,0.0,0.0,0.0,0.0,0.0,0.0,0.0,0.0,0.0,0.0,0.0,0.0,0.0,0.0,0.0,0.0,0.0,0.0,0.0,0.0,0.0,0.0,0.0,0.0,0.0,0.0,0.0,0.0,0.0,0.0,0.0,0.0,0.0,0.0,0.0,0.0,0.0,0.0,0.0,0.0,0.0,0.0,0.0,0.0,0.0,0.0,0.0,0.0,0.0,0.0,0.0,0.0,0.0,0.0,0.0,0.0,0.0,0.0,0.0,0.0,0.0,0.0,0.0,0.0,0.0,0.0,0.0,0.0,0.0,0.0,0.0,0.0,0.0,0.0,0.0,0.0,0.0,0.0,0.0,0.0,0.0,0.0,0.0,0.0,0.0,0.0,0.0,0.0,0.0,0.0,0.0,0.0,0.0,0.0,0.0,0.0,0.0,0.0,0.0,0.0,0.0,0.0,0.0,0.0,0.0,0.0,0.0,0.0,0.0,0.0,0.0,0.0,0.0,0.0,0.0,0.0,0.0,0.0,0.0,0.0,0.0,0.0,0.0,0.0,0.0,0.0,0.0,0.0,0.0,0.0,0.0,0.0,0.0,0.0,0.0,0.0,0.0,0.0,0.0,0.0,0.0,0.0,0.0,0.0,0.0,0.0,0.0,0.0,0.0,0.0,0.0,0.0,0.0,0.0,0.0,0.0,0.0,0.0,0.0,0.0,0.0,0.0,0.0,0.0,0.0,0.0,0.0,0.0,0.0,0.0,0.0,0.0,0.0,0.0,0.0,0.0,0.0,0.0,0.0,0.0,0.0,0.0,0.0,0.0,0.0,0.0,0.0,0.0,0.0,0.0,0.0,0.0,0.0,0.0,0.0,0.0,0.0,0.0,0.0,0.0,0.0,0.0,0.0,0.0,0.0,0.0,0.0,0.0,0.0,0.0,0.0,0.0,0.0,0.0,0.0,0.0,0.0,0.0,0.0,0.0,0.0,0.0,0.0,0.0,0.0,0.0,0.0,0.0,0.0,0.0,0.0,0.0,0.0,0.0,0.0,0.0,0.0,0.0,0.0,0.0,0.0,0.0,0.0,0.0,0.0,0.0,0.0,0.0,0.0,0.0,0.0,0.0,0.0,0.0,0.0,0.0,0.0,0.0,0.0,0.0,0.0,0.0,0.0,0.0,0.0,0.0,0.0,0.0,0.0,0.0,0.0,0.0,0.0,0.0,0.0,0.0,0.0,0.0,0.0,0.0,0.0,0.0,0.0,0.0,0.0,0.0,0.0,0.0,0.0,0.0,0.0,0.0,0.0,0.0,0.0,0.0,0.0,0.0,0.0,0.0,0.0,0.0,0.0,0.0,0.0,0.0,0.0,0.0,0.0,0.0,0.0,0.0,0.0,0.0,0.0,0.0,0.0,0.0,0.0,0.0,0.0,0.0,0.0,0.0,0.0,0.0,0.0,0.0,0.0,0.0,0.0,0.0,0.0,0.0,0.0,0.0,0.0,0.0,0.0,0.0,0.0,0.0,0.0,0.0,0.0,0.0,0.0,0.0,0.0,0.0,0.0,0.0,0.0,0.0,0.0,0.0,0.0,0.0,0.0,0.0,0.0,0.0,0.0,0.0,0.0,0.0,0.0,0.0,0.0,0.0,0.0,0.0,0.0,0.0,0.0,0.0,0.0,0.0,0.0,0.0,0.0,0.0,0.0,0.0,0.0,0.0,0.0,0.0,0.0,0.0,0.0,0.0,0.0,0.0,0.0,0.0,0.0,0.0,0.0,0.0,0.0,0.0,0.0,0.0,0.0,0.0,0.0,0.0,0.0,0.0,0.0,0.0,0.0,0.0,0.0,0.0,0.0,0.0,0.0,0.0,0.0,0.0,0.0,0.0,0.0,0.0,0.0,0.0,0.0,0.0,0.0,0.0,0.0,0.0,0.0,0.0,0.0,0.0,0.0,0.0,0.0,0.0,0.0,0.0,0.0,0.0,0.0,0.0,0.0,0.0,0.0,0.0,0.0,0.0,0.0,0.0,0.0,0.0,0.0,0.0,0.0,0.0,0.0,0.0,0.0,0.0,0.0,0.0,0.0,0.0,0.0,0.0,0.0,0.0,0.0,0.0,0.0,0.0,0.0,0.0,0.0,0.0,0.0,0.0,0.0,0.0,0.0,0.0,0.0,0.0,0.0,0.0,0.0,0.0,0.0,0.0,0.0,0.0,0.0,0.0,0.0,0.0,0.0,0.0,0.0,0.0,0.0,0.0,0.0,0.0,0.0,0.0,0.0,0.0,0.0,0.0,0.0,0.0,0.0,0.0,0.0,0.0,0.0,0.0,0.0,0.0,0.0,0.0,0.0,0.0,0.0,0.0,0.0,0.0,0.0,0.0,0.0,0.0,0.0,0.0,0.0,0.0,0.0,0.0,0.0,0.0,0.0,0.0,0.0,0.0,0.0,0.0,0.0,0.0,0.0,0.0,0.0,0.0,0.0,0.0,0.0,0.0,0.0,0.0,0.0,0.0,0.0,0.0,0.0,0.0,0.0,0.0,0.0,0.0,0.0,0.0,0.0,0.0,0.0,0.0,0.0,0.0,0.0,0.0,0.0,0.0,0.0,0.0,0.0,0.0,0.0,0.0,0.0,0.0,0.0,0.0,0.0,0.0,0.0,0.0,0.0,0.0,0.0,0.0,0.0,0.0,0.0,0.0,0.0,0.0,0.0,0.0,0.0,0.0,0.0,0.0,0.0,0.0,0.0,0.0,0.0,0.0,0.0,0.0,0.0,0.0,0.0,0.0,0.0,0.0,0.0,0.0,0.0,0.0,0.0,0.0,0.0,0.0,0.0,0.0,0.0,0.0,0.0,0.0,0.0,0.0,0.0,0.0,0.0,0.0,0.0,0.0,0.0,0.0,0.0,0.0,0.0,0.0,0.0,0.0,0.0,0.0,0.0,0.0,0.0,0.0,0.0,0.0,0.0,0.0,0.0,0.0,0.0,0.0,0.0,0.0,0.0,0.0,0.0,0.0,0.0,0.0,0.0,0.0,0.0,0.0,0.0,0.0,0.0,0.0,0.0,0.0,0.0,0.0,0.0,0.0,0.0,0.0,0.0,0.0,0.0,0.0,0.0,0.0,0.0,0.0,0.0,0.0,0.0,0.0,0.0,0.0,0.0,0.0,0.0,0.0,0.0,0.0,0.0,0.0,0.0,0.0,0.0,0.0,0.0,0.0,0.0,0.0,0.0,0.0,0.0,0.0,0.0,0.0,0.0,0.0,0.0,0.0,0.0,0.0,0.0,0.0,0.0,0.0,0.0,0.0,0.0,0.0,0.0,0.0,0.0,0.0,0.0,0.0,0.0,0.0,0.0,0.0,0.0,0.0,0.0,0.0,0.0,0.0,0.0,0.0,0.0,0.0,0.0,0.0,0.0,0.0,0.0,0.0,0.0,0.0,0.0,0.0,0.0,0.0,0.0,0.0,0.0,0.0,0.0,0.0,0.0,0.0,0.0,0.0,0.0,0.0,0.0,0.0,0.0,0.0,0.0,0.0,0.0,0.0,0.0,0.0,0.0,0.0,0.0,0.0,0.0,0.0,0.0,0.0,0.0,0.0,0.0,0.0,0.0,0.0,0.0,0.0,0.0,0.0,0.0,0.0,0.0,0.0,0.0,0.0,0.0,0.0,0.0,0.0,0.0,0.0,0.0,0.0,0.0,0.0,0.0,0.0,0.0,0.0,0.0,0.0,0.0,0.0,0.0,0.0,0.0,0.0,0.0,0.0,0.0,0.0,0.0,0.0,0.0,0.0,0.0,0.0,0.0,0.0,0.0,0.0,0.0,0.0,0.0,0.0,0.0,0.0,0.0,0.0,0.0,0.0,0.0,0.0,0.0,0.0,0.0,0.0,0.0,0.0,0.0,0.0,0.0,0.0,0.0,0.0,0.0,0.0,0.0,0.0,0.0,0.0,0.0,0.0,0.0,0.0,0.0,0.0,0.0,0.0,0.0,0.0,0.0,0.0,0.0,0.0,0.0,0.0,0.0,0.0,0.0,0.0,0.0,0.0,0.0,0.0,0.0,0.0,0.0,0.0,0.0,0.0,0.0,0.0,0.0,0.0,0.0,0.0,0.0,0.0,0.0,0.0,0.0,0.0,0.0,0.0,0.0,0.0,0.0,0.0,0.0,0.0,0.0,0.0,0.0,0.0,0.0,0.0,0.0,0.0,0.0,0.0,0.0,0.0,0.0,0.0,0.0,0.0,0.0,0.0,0.0,0.0,0.0,0.0,0.0,0.0,0.0,0.0,0.0,0.0,0.0,0.0,0.0,0.0,0.0,0.0,0.0,0.0,0.0,0.0,0.0,0.0,0.0,0.0,0.0,0.0,0.0,0.0,0.0,0.0,0.0,0.0,0.0,0.0,0.0,0.0,0.0,0.0,0.0,0.0,0.0,0.0,0.0,0.0,0.0,0.0,0.0,0.0,0.0,0.0,0.0,0.0,0.0,0.0,0.0,0.0,0.0,0.0,0.0,0.0,0.0,0.0,0.0,0.0,0.0,0.0,0.0,0.0,0.0,0.0,0.0,0.0,0.0,0.0,0.0,0.0,0.0,0.0,0.0,0.0,0.0,0.0,0.0,0.0,0.0,0.0,0.0,0.0,0.0,0.0,0.0,0.0,0.0,0.0,0.0,0.0,0.0,0.0,0.0,0.0,0.0,0.0,0.0,0.0,0.0,0.0,0.0,0.0,0.0,0.0,0.0,0.0,0.0,0.0,0.0,0.0,0.0,0.0,0.0,0.0,0.0,0.0,0.0,0.0,0.0,0.0,0.0,0.0,0.0,0.0,0.0,0.0,0.0,0.0,0.0,0.0,0.0,0.0,0.0,0.0,0.0,0.0,0.0,0.0,0.0,0.0,0.0,0.0,0.0,-3.5243,0.0,0.0,0.0,0.0,0.0,0.0,0.0,0.0,0.0,0.0,0.0,0.0,0.0,0.0,0.0,0.0,0.0,0.0,0.0,0.0,0.0,0.0,0.0,0.0,-2.1055,-2.1906,-2.2767,-2.2875,-2.2935,-2.2981,0.0,0.0,0.0,0.0,0.0,-2.1211,-2.1211,-2.1406,-2.1797,-2.1836,-2.2051,-2.2422,-2.2383,-2.1953,-2.1191,0.0,0.0,0.0,0.0,0.0,0.0,0.0,0.0,0.0,0.0,0.0,0.0,0.0,0.0,0.0,0.0,0.0,0.0,0.0,0.0,0.0,0.0,0.0,0.0,0.0,0.0,0.0,0.0,0.0,0.0,0.0,0.0,0.0,0.0,0.0,0.0,0.0,0.0,0.0,0.0,0.0,0.0,0.0,0.0,0.0,0.0,0.0,0.0,0.0,0.0,0.0,0.0,0.0,0.0,0.0,0.0,0.0,0.0,0.0,0.0,0.0,0.0,0.0,0.0,0.0,0.0,0.0,0.0,0.0,0.0,0.0,-3.7129,0.0,0.0,0.0,0.0,0.0,0.0,0.0,0.0,0.0,0.0,0.0,0.0,0.0,0.0,0.0,0.0,0.0,0.0,0.0,0.0,0.0,-1.8745,-2.0378,-2.1324,-2.2252,-2.3253,-2.3364,-2.3419,-2.3533,-2.2739,0.0,0.0,0.0,-2.1387,-2.2109,-2.2129,-2.2441,-2.3125,-2.3613,-2.4355,-2.5332,-2.6191,-2.5488,-2.3477,-2.3437,0.0,0.0,0.0,0.0,0.0,0.0,0.0,0.0,0.0,0.0,0.0,0.0,0.0,0.0,0.0,0.0,0.0,0.0,0.0,0.0,0.0,0.0,0.0,0.0,0.0,0.0,0.0,0.0,0.0,0.0,0.0,0.0,0.0,0.0,0.0,0.0,0.0,0.0,0.0,0.0,0.0,0.0,0.0,0.0,0.0,0.0,0.0,0.0,0.0,0.0,0.0,0.0,0.0,0.0,0.0,0.0,0.0,0.0,0.0,0.0,0.0,0.0,0.0,-4.3644,-4.3975,-4.4342,-4.4488,-4.4837,-4.5112,-4.1111,-4.0194,-4.1297,0.0,0.0,0.0,0.0,0.0,0.0,0.0,0.0,0.0,0.0,0.0,0.0,0.0,0.0,0.0,0.0,0.0,0.0,0.0,0.0,-1.9681,-2.1407,-2.2331,-2.3456,-2.5014,-2.5216,-2.5242,-2.527,-2.4507,0.0,0.0,-2.3242,-2.2852,-2.3027,-2.2969,-2.3027,-2.3184,-2.541,-2.7324,-2.8926,-2.9805,-3.0039,-2.9551,-2.5879,-2.3727,-2.2745,0.0,0.0,0.0,0.0,0.0,0.0,0.0,0.0,0.0,0.0,0.0,0.0,0.0,0.0,0.0,0.0,0.0,0.0,0.0,0.0,0.0,0.0,0.0,0.0,0.0,0.0,0.0,0.0,0.0,0.0,0.0,0.0,0.0,0.0,0.0,0.0,0.0,0.0,0.0,0.0,0.0,-3.1494,-3.3922,0.0,0.0,0.0,0.0,0.0,0.0,0.0,0.0,0.0,0.0,0.0,0.0,0.0,-4.3791,-4.5094,-4.6599,-4.7407,-4.7535,-4.8985,-4.8967,-4.77,-4.8454,-4.8434,-4.7792,-4.715,0.0,-4.3111,-4.1974,0.0,0.0,0.0,0.0,0.0,0.0,0.0,0.0,0.0,0.0,0.0,0.0,0.0,0.0,0.0,0.0,0.0,0.0,0.0,0.0,0.0,-2.3642,-2.4912,-2.618,-2.6738,-2.6833,-2.6401,-2.5605,-2.4902,-2.4414,-2.3594,-2.3379,-2.3867,-2.4336,-2.5293,-2.6797,-2.8418,-2.9824,-3.1074,-3.1914,-3.2305,-3.2207,-2.9844,-2.7223,-2.4541,-2.3736,0.0,0.0,0.0,0.0,0.0,0.0,0.0,0.0,0.0,0.0,0.0,0.0,0.0,0.0,0.0,0.0,0.0,0.0,0.0,0.0,0.0,0.0,0.0,0.0,0.0,0.0,0.0,0.0,0.0,0.0,0.0,0.0,0.0,0.0,0.0,0.0,0.0,0.0,0.0,-3.0503,-3.3495,-3.5481,-3.5826,-3.5877,0.0,0.0,0.0,0.0,0.0,0.0,0.0,0.0,0.0,-4.4416,-4.603,-4.7205,-4.7921,-4.9114,-4.9719,-4.9719,-5.0453,-5.0417,-4.9719,-5.0105,-5.0068,-4.9719,-4.9719,-4.8655,-4.6801,-4.5039,-4.291,-4.0634,0.0,0.0,0.0,0.0,-3.628,-3.5724,0.0,0.0,0.0,0.0,0.0,0.0,0.0,0.0,0.0,0.0,0.0,0.0,-2.3531,-2.4828,-2.6006,-2.7153,-2.7599,-2.7585,-2.7031,-2.6172,-2.541,-2.4766,-2.416,-2.4121,-2.4727,-2.5801,-2.7539,-2.9922,-3.1016,-3.1992,-3.2851,-3.3672,-3.4062,-3.4023,-3.3203,-3.0659,-2.6931,-2.6368,-2.4189,-2.1055,0.0,0.0,0.0,0.0,0.0,0.0,0.0,0.0,0.0,0.0,0.0,0.0,0.0,0.0,0.0,0.0,0.0,0.0,0.0,0.0,0.0,0.0,0.0,0.0,0.0,0.0,0.0,0.0,0.0,0.0,0.0,0.0,0.0,0.0,0.0,0.0,0.0,-3.3018,-3.5752,-3.7606,-3.8557,-3.8961,0.0,0.0,0.0,0.0,0.0,0.0,-4.4287,-4.559,-4.6801,-4.8012,-4.9811,-5.0747,-5.0747,-5.1591,-5.2032,-5.2032,-5.183,-5.172,-5.172,-5.1518,-5.1408,-5.1408,-5.1408,-5.0949,-5.0033,-4.7535,-4.5333,-4.3425,-4.2462,-4.0998,-3.9402,-3.9534,-3.9155,-3.8745,0.0,0.0,0.0,0.0,0.0,0.0,0.0,0.0,0.0,0.0,0.0,-2.2696,-2.5195,-2.5603,-2.6386,-2.8086,-2.7519,-2.7031,0.0,-2.6172,-2.5684,-2.5644,-2.5605,-2.5586,-2.5625,-2.7305,-2.9043,-3.082,-3.2461,-3.3711,-3.459,-3.5469,-3.5879,-3.582,-3.4961,-3.3032,-3.032,-2.8131,-2.5742,-2.3343,-2.2271,0.0,0.0,0.0,0.0,0.0,0.0,0.0,0.0,0.0,0.0,0.0,0.0,0.0,0.0,0.0,0.0,0.0,0.0,0.0,0.0,0.0,0.0,0.0,0.0,0.0,0.0,0.0,0.0,0.0,0.0,0.0,0.0,0.0,0.0,0.0,0.0,0.0,0.0,-4.1717,-4.2708,0.0,0.0,0.0,0.0,-4.3203,-4.4672,-4.5938,-4.6874,-4.9205,-5.0527,-5.0618,-5.2913,-5.4142,-5.4142,-5.495,-5.5376,-5.5357,-5.4583,-5.4216,-5.4197,-5.3445,-5.3096,-5.3096,-5.3096,-5.2619,-5.1683,-4.9205,-4.7645,-4.6727,-4.5332,-4.4405,-4.3731,-4.3154,-4.2585,-4.1967,0.0,0.0,0.0,0.0,0.0,-1.4991,-1.4991,-1.6564,-1.7868,-1.8229,-2.078,-2.3145,-2.4667,-2.6308,-2.7806,-2.9023,-2.8804,-2.8392,-2.7871,-2.7012,-2.6289,-2.5723,-2.5703,-2.623,-2.7344,-2.9082,-3.0801,-3.2519,-3.3672,-3.4687,-3.5547,-3.5859,-3.5996,-3.5996,-3.5684,-3.4652,-3.2986,-3.0475,-2.8431,-2.6712,-2.4865,-2.3044,0.0,0.0,0.0,0.0,0.0,0.0,0.0,0.0,0.0,0.0,0.0,0.0,0.0,0.0,0.0,0.0,0.0,0.0,0.0,0.0,0.0,0.0,0.0,0.0,0.0,0.0,0.0,0.0,0.0,0.0,0.0,0.0,0.0,0.0,0.0,0.0,0.0,-4.3571,-4.5021,0.0,-4.614,-4.6159,-4.6489,-4.7297,-4.8398,-4.9627,-5.0947,-5.2362,-5.3353,-5.3867,-5.4711,-5.517,-5.517,-5.5467,-5.5614,-5.5614,-5.5299,-5.4895,-5.4399,-5.4106,-5.3702,-5.3185,-5.3185,-5.3041,-5.2656,-5.1261,-4.9572,-4.7754,-4.6758,-4.5413,-4.4067,-4.3856,-4.3133,-4.2262,0.0,0.0,0.0,0.0,-1.4966,-1.5106,-1.5392,-1.6722,-1.8011,-1.8939,-2.1582,-2.3978,-2.5489,-2.744,-2.9022,-2.9961,-2.9468,-2.886,-2.832,-2.7207,-2.6309,-2.5723,-2.5977,-2.709,-2.9121,-3.0605,-3.2168,-3.3848,-3.4707,-3.543,-3.5996,-3.5996,-3.5995,-3.5972,-3.5972,-3.5568,-3.4766,-3.3048,-3.1146,-2.9132,-2.7624,-2.5894,-2.4048,0.0,0.0,0.0,0.0,0.0,0.0,0.0,0.0,0.0,0.0,0.0,0.0,0.0,0.0,0.0,0.0,0.0,0.0,0.0,0.0,0.0,0.0,0.0,0.0,0.0,0.0,0.0,0.0,0.0,0.0,0.0,0.0,0.0,0.0,0.0,-4.3113,-4.526,-4.7186,-4.8544,-4.9095,-4.9389,-4.9994,-5.1059,-5.1683,-5.2601,-5.394,-5.4766,-5.5445,-5.5978,-5.6271,-5.64,-5.64,-5.64,-5.64,-5.64,-5.6124,-5.5721,-5.5188,-5.4656,-5.4106,-5.3592,-5.3314,-5.3185,-5.313,-5.206,-5.066,-4.9052,-4.7793,-4.6309,-4.4822,-4.4434,-4.3751,-4.3058,0.0,0.0,0.0,-1.4988,-1.4991,-1.5296,-1.6174,-1.7102,-1.8603,-2.1139,-2.3056,-2.5192,-2.778,-2.8918,-2.9888,-3.082,-2.9316,-2.8301,-2.8301,-2.668,-2.5703,-2.5742,-2.6602,-2.8281,-3.084,-3.1777,-3.3047,-3.4707,-3.5566,-3.5996,-3.5996,-3.5996,-3.5952,-3.5901,-3.5901,-3.5794,-3.5611,-3.5669,-3.3719,-3.0558,-3.0442,-2.9083,-2.6977,0.0,0.0,0.0,0.0,0.0,0.0,0.0,0.0,0.0,0.0,0.0,0.0,0.0,0.0,0.0,0.0,0.0,0.0,0.0,0.0,0.0,0.0,0.0,0.0,0.0,0.0,0.0,0.0,0.0,0.0,0.0,0.0,0.0,-4.1132,-4.326,-4.5388,-4.6984,-4.9351,-5.0875,-5.0912,-5.1628,-5.2747,-5.4326,-5.4454,-5.4821,-5.5614,-5.64,-5.684,-5.684,-5.7593,-5.7997,-5.7997,-5.7997,-5.7997,-5.7997,-5.7207,-5.6822,-5.6767,-5.5188,-5.4454,-5.4363,-5.3592,-5.3203,-5.3048,-5.1552,-5.0898,-5.0649,-4.8526,-4.7156,-4.6275,-4.5079,-4.4626,-4.4502,0.0,0.0,-1.4913,-1.4928,-1.4962,-1.5296,-1.6174,-1.7102,-1.8411,-2.0365,-2.2762,-2.5007,-2.6952,-2.8595,-2.9921,-3.082,-2.9316,-2.8301,-2.8301,-2.668,-2.5977,-2.6621,-2.8086,-2.9512,-3.0879,-3.2324,-3.3613,-3.4707,-3.5566,-3.5996,-3.5996,-3.5996,-3.5952,-3.5901,-3.5901,-3.5794,-3.5611,-3.563,-3.5038,-3.3878,-3.1398,-3.0028,-2.9333,0.0,0.0,0.0,0.0,0.0,0.0,0.0,0.0,0.0,0.0,0.0,0.0,0.0,0.0,0.0,0.0,0.0,0.0,0.0,0.0,0.0,0.0,0.0,0.0,0.0,0.0,0.0,0.0,0.0,0.0,0.0,0.0,-4.2466,-4.2038,-4.5057,-4.77,-4.8728,-5.1041,-5.2784,-5.3353,-5.4142,-5.4785,-5.5225,-5.5812,-5.6235,-5.6455,-5.7226,-5.7666,-5.7666,-5.7886,-5.7997,-5.7997,-5.7997,-5.7997,-5.7997,-5.7776,-5.7373,-5.6785,-5.6345,-5.55,-5.4399,-5.4179,-5.3445,-5.2363,-5.1948,-5.1144,-5.0019,-4.8285,-4.7174,-4.6438,-4.5563,-4.4986,-4.4581,0.0,-1.5048,-1.5038,-1.5038,-1.5356,-1.5915,-1.6754,-1.7668,-1.8988,-2.1062,-2.3056,-2.4915,-2.6617,-2.812,-2.9236,-2.9766,-2.8555,-2.7754,-2.7754,-2.6816,-2.6953,-2.8555,-2.9609,-3.0879,-3.2461,-3.3457,-3.4375,-3.5234,-3.5742,-3.5996,-3.5996,-3.5996,-3.5929,-3.5829,-3.5829,-3.5717,-3.5556,-3.5556,-3.5547,-3.5335,-3.3346,-3.2545,-3.2364,-3.0741,-2.9555,-2.8621,-2.775,-2.7192,-2.689,-2.689,0.0,0.0,0.0,0.0,0.0,0.0,0.0,0.0,0.0,0.0,0.0,0.0,0.0,0.0,0.0,0.0,0.0,0.0,0.0,0.0,0.0,0.0,0.0,0.0,-4.3968,-4.5621,-4.4905,-4.715,-4.926,-5.0398,-5.2123,-5.3665,-5.4785,-5.5317,-5.589,-5.6547,-5.7042,-5.7299,-5.7299,-5.7758,-5.7997,-5.7997,-5.7997,-5.7997,-5.7997,-5.7997,-5.7997,-5.7997,-5.7997,-5.7758,-5.7299,-5.695,-5.6106,0.0,-5.4546,-5.3521,-5.2089,-5.1808,-5.1,0.0,0.0,0.0,0.0,0.0,-4.4885,-4.4615,0.0,-1.5335,-1.5342,-1.5342,-1.6067,-1.6914,-1.7732,-1.8505,-1.9938,-2.2488,-2.3646,-2.488,-2.6615,-2.7654,-2.8249,-2.8281,-2.75,-2.6992,0.0,-2.7285,-2.8476,-3.0801,-3.1074,-3.2285,-3.4648,-3.4707,-3.5137,-3.5996,-3.5996,-3.5996,-3.5996,-3.5996,-3.5882,-3.5707,-3.5707,-3.5621,-3.55,-3.55,-3.55,-3.55,-3.55,-3.5495,-3.5284,-3.3249,-3.2262,-3.1833,-3.0981,-3.0179,-2.9531,-2.9531,0.0,0.0,0.0,0.0,0.0,0.0,0.0,0.0,0.0,0.0,0.0,0.0,0.0,0.0,0.0,0.0,0.0,0.0,0.0,0.0,0.0,0.0,0.0,0.0,-4.7119,-4.9454,-4.8882,-4.9449,-5.0441,-5.185,-5.2876,-5.4032,-5.5467,-5.578,-5.6455,-5.7886,-5.7997,-5.7997,-5.7997,0.0,0.0,0.0,0.0,-5.7997,-5.7997,-5.7997,-5.7997,-5.7997,-5.7997,-5.7997,-5.7978,-5.7262,-5.651,-5.5684,-5.4876,-5.3622,-5.2078,-5.1378,-5.0556,-4.9614,-4.8242,-4.7153,-4.6217,-4.5024,-4.4615,0.0,0.0,-1.5803,-1.6244,-1.6244,-1.6912,-1.7783,-1.8697,-1.8977,-2.0009,-2.2627,-2.3782,-2.5005,-2.6706,-2.7726,-2.8281,-2.8301,-2.75,-2.6992,-2.6992,-2.8965,-3.0371,-3.0879,-3.2207,-3.3476,-3.4668,-3.4707,-3.5137,-3.5996,-3.5996,-3.5996,-3.5996,-3.5996,-3.5882,-3.5707,-3.5707,-3.5621,-3.55,-3.55,-3.55,-3.55,-3.55,-3.5501,-3.5438,-3.5008,-3.4251,-3.3314,-3.2647,-3.2314,-3.216,-3.216,-3.1525,-3.0717,-3.0717,-2.9525,0.0,0.0,0.0,0.0,0.0,0.0,0.0,0.0,0.0,0.0,0.0,0.0,0.0,0.0,0.0,0.0,0.0,0.0,0.0,-4.7224,-4.9004,-5.042,-5.1597,-5.1917,-5.201,-5.2002,-5.3849,-5.5244,-5.5578,-5.6767,-5.7648,-5.7978,-5.7997,-5.7997,-5.7997,-5.7997,-5.7997,-5.7997,-5.7997,-5.7997,-5.7997,-5.7997,-5.7997,-5.7997,0.0,0.0,-5.7997,-5.7831,-5.7336,-5.6528,-5.5721,-5.4197,-5.2198,-5.143,-4.9996,-4.8218,-4.7322,-4.6169,-4.4963,-4.4705,-4.4615,-4.4615,-1.6699,-1.6905,-1.7156,-1.719,-1.7876,-1.8507,-1.8845,-1.9379,-2.0439,-2.2352,-2.3262,-2.4395,-2.6071,-2.6696,-2.6992,-2.6992,-2.6992,0.0,-2.7617,-2.9687,-3.1269,-3.2109,-3.3379,-3.4433,-3.5284,-3.5331,-3.5546,-3.5948,-3.5975,-3.5996,-3.5996,-3.5996,-3.5882,-3.5707,-3.5707,-3.5621,-3.55,-3.55,-3.55,-3.55,-3.55,-3.5488,-3.5508,-3.5508,-3.5155,-3.4609,-3.4314,-3.3641,-3.2968,-3.3391,-3.2737,-3.1775,-3.2179,-3.1429,-3.0237,0.0,0.0,0.0,0.0,0.0,0.0,0.0,0.0,0.0,0.0,0.0,0.0,0.0,0.0,-4.1447,-4.3908,0.0,-4.7594,-4.9196,-5.1056,-5.2444,-5.2841,-5.327,-5.3308,-5.2686,-5.4014,-5.5152,-5.5556,-5.6693,-5.7574,-5.796,-5.7997,-5.7997,-5.7997,-5.7997,-5.7997,-5.7997,-5.7997,-5.7997,-5.7997,-5.7997,-5.7997,-5.7997,-5.7997,-5.7997,-5.7997,-5.7997,-5.7556,-5.6767,-5.5941,-5.4527,-5.2676,-5.1167,-4.949,-4.778,-4.7051,-4.6115,-4.51,-4.4744,-4.4615,-4.4615,-1.8164,-1.8248,-1.829,-1.8175,-1.8815,-1.9275,-1.9077,-1.9821,-2.0836,-2.1992,-2.2572,-2.3444,-2.4946,-2.5154,-2.5254,-2.543,-2.6543,-2.7559,-2.8242,-3.0234,-3.1992,-3.334,-3.4394,-3.5251,-3.5916,-3.5974,-3.5974,-3.5914,-3.5951,-3.5975,-3.5975,-3.5953,-3.5843,-3.5678,-3.5678,-3.5616,-3.55,-3.55,-3.55,-3.55,-3.55,-3.55,-3.55,-3.5507,-3.5507,-3.5462,-3.525,-3.4192,-3.3006,-3.3705,-3.2949,-3.1833,-3.2641,-3.2468,-3.1737,-3.0692,-2.991,0.0,0.0,0.0,0.0,0.0,0.0,0.0,0.0,-3.6665,-3.8446,-4.1963,-4.3747,-4.5244,-4.7058,-4.9144,-5.0619,-5.07,-5.2834,-5.4285,-5.3669,-5.4175,-5.4288,-5.3422,-5.3968,-5.4711,-5.5522,-5.6326,-5.7134,-5.7941,-5.7997,-5.7997,-5.7997,-5.7997,-5.7997,-5.7997,-5.7997,-5.7997,-5.7997,-5.7997,-5.7997,-5.7997,-5.7997,-5.7997,-5.7997,-5.7997,-5.7556,-5.6726,-5.5619,-5.435,-5.2906,-5.0866,-4.9222,-4.7934,-4.7123,-4.6342,-4.5614,-4.4857,-4.4615,-4.4615,0.0,-1.972,-1.9954,-1.9195,-1.9711,-2.0262,-2.0285,-2.0406,-2.0843,-2.1814,-2.1992,-2.2383,-2.3281,-2.3398,-2.3691,-2.4473,-2.6758,-2.8203,-2.8281,-3.1328,-3.3203,-3.3398,-3.498,-3.5898,-3.5996,-3.5996,-3.5996,-3.5995,-3.5942,-3.591,-3.5908,-3.5783,-3.5698,-3.5611,-3.5611,-3.556,-3.55,-3.55,-3.55,-3.55,-3.55,-3.55,-3.55,-3.5495,-3.5508,-3.5365,-3.4346,-3.3519,-3.291,-3.3006,-3.2449,-3.1833,-3.2641,-3.2833,-3.2449,-3.0865,-3.0327,-3.0058,-2.9162,-3.0515,-3.2791,-3.5295,-3.5956,-3.7151,0.0,-4.1914,-4.2078,-4.5154,-4.5952,-4.6706,-4.8741,-4.9693,-5.0753,-5.2572,-5.3778,-5.4594,-5.4859,-5.4977,-5.4712,-5.3833,-5.4123,-5.4711,-5.5522,-5.6326,-5.7134,-5.7941,-5.7997,-5.7997,-5.7997,-5.7997,-5.7997,-5.7997,-5.7997,-5.7997,-5.7997,-5.7997,-5.7997,-5.7997,-5.7997,-5.7997,-5.7997,-5.7997,-5.7556,-5.6685,-5.4508,-5.3044,-5.2114,-5.0614,-4.951,-4.8653,-4.7304,-4.6342,-4.5614,-4.4857,-4.4615,-4.4615,0.0,-2.0271,-2.0446,-2.0075,-2.0254,-2.048,-2.0541,-2.0563,-2.0935,-2.1992,-2.1992,-2.2227,-2.3066,-2.3574,-2.4219,-2.5078,-2.6621,-2.7754,-2.8262,-3.1055,-3.291,-3.3379,-3.5078,-3.5953,-3.5836,-3.5897,-3.5885,-3.5774,-3.5789,-3.5775,-3.5775,-3.5723,-3.5652,-3.5611,-3.5611,-3.5562,-3.55,-3.55,-3.55,-3.55,-3.55,-3.55,-3.5507,-3.5502,-3.5502,-3.5354,-3.4212,-3.2782,0.0,-3.2564,-3.2025,-3.1173,-3.2487,-3.2583,-3.2064,-3.1365,-3.1481,-3.2102,-3.3218,-3.4613,-3.6132,-3.78,-3.9261,-4.0835,-4.2918,-4.3316,-4.4041,-4.6781,-4.7356,-4.7923,-4.9808,-5.1102,-5.2193,-5.3067,-5.4318,-5.5256,-5.542,-5.4817,-5.4205,-5.3834,-5.3494,-5.3906,-5.5453,-5.6326,-5.7134,-5.7941,-5.7997,-5.7997,-5.7997,-5.7997,-5.7997,-5.7997,-5.7997,-5.7997,-5.7997,-5.7997,-5.7997,-5.7997,-5.7997,-5.7997,-5.7997,-5.7997,-5.7299,-5.601,-5.4565,-5.349,-5.2611,-5.1207,-5.0211,-4.935,-4.7517,-4.6342,-4.5614,-4.4857,-4.4615,-4.4615,0.0,-2.051,-2.0585,-2.0605,-2.0563,-2.054,-2.0586,-2.0605,-2.0898,-2.1719,-2.1875,-2.2227,-2.3086,-2.3906,-2.4648,-2.5293,-2.6367,-2.7363,-2.8242,-3.0527,-3.2207,-3.3027,-3.4706,-3.5552,-3.5439,-3.57,-3.5783,-3.5674,-3.5675,-3.5663,-3.5663,-3.5655,-3.5626,-3.5566,-3.5566,-3.554,-3.55,-3.55,-3.55,-3.55,-3.55,-3.5308,-3.5064,-3.5374,-3.4918,-3.3917,-3.2628,-3.141,-3.0512,-3.1275,-3.0544,-2.9615,-3.1064,-3.1275,-3.1083,-3.1564,-3.2602,-3.4064,-3.6135,-3.7507,-3.8681,-4.0008,-4.1893,-4.3489,-4.372,-4.4239,-4.524,-4.7336,-4.7778,-4.8298,-5.001,-5.1529,-5.2664,-5.3126,-5.4414,-5.5453,-5.5665,-5.4706,-5.4034,-5.4154,-5.3395,-5.355,-5.5267,-5.5864,-5.6565,-5.7597,-5.7671,-5.7781,-5.7978,-5.7997,-5.7997,-5.7997,-5.7997,-5.7997,-5.7997,-5.7997,-5.7997,-5.7997,-5.7997,-5.7997,-5.7978,-5.7547,-5.6571,-5.5222,-5.4426,-5.3748,-5.3112,-5.1883,-5.0712,-4.9514,-4.7758,-4.6397,-4.5326,-4.4806,-4.4615,-4.4615,0.0,0.0,-2.0516,-2.0586,-2.0605,-2.0605,-2.0605,-2.0605,-2.0605,-2.0644,-2.1387,-2.2207,-2.3027,-2.3887,-2.4414,-2.4434,-2.6016,-2.7363,-2.8242,-2.9961,-3.1328,-3.2207,-3.3774,-3.467,-3.4726,-3.537,-3.5764,-3.5898,-3.571,-3.5596,-3.5591,-3.554,-3.5494,-3.5507,-3.5507,-3.5507,-3.55,-3.55,-3.55,-3.55,-3.55,-3.4846,-3.3968,-3.5079,-3.3435,-3.034,-2.8673,-2.9073,-3.0161,-2.8574,-2.7467,-2.6871,-2.7775,-2.8569,-2.9511,-3.1198,-3.3462,-3.5615,-3.6462,-3.795,-3.9861,-4.2354,-4.3624,-4.447,-4.5325,-4.5537,-4.5825,-4.6759,-4.6942,-4.7451,-4.9125,-5.0164,-5.1298,-5.2933,-5.3953,-5.4799,-5.5588,-5.5011,-5.4622,-5.5013,-5.4299,-5.409,0.0,-5.4697,-5.5137,-5.672,-5.683,-5.7179,-5.796,-5.7997,-5.7997,-5.7997,-5.7997,-5.7997,-5.7997,-5.7997,-5.7997,-5.7997,-5.7997,-5.7997,-5.796,-5.6383,-5.5222,-5.4378,-5.3586,-5.3222,-5.313,-5.2386,-5.0842,-4.8873,-4.8068,-4.6481,-4.4632,-4.4615,-4.4615,-4.4615,0.0,0.0,0.0,-2.2155,-2.1814,-2.1465,-2.1465,-2.0977,-2.0801,-2.1387,-2.2187,0.0,0.0,0.0,0.0,0.0,-2.5801,-2.6504,-2.7383,-2.9062,-3.043,-3.1309,-3.2928,-3.3775,-3.3715,-3.4483,-3.4859,-3.4768,-3.528,-3.5534,-3.5528,-3.5508,-3.55,-3.55,-3.55,-3.55,-3.55,-3.55,-3.5808,-3.6192,-3.5084,-3.4757,-3.4891,-3.452,-3.3416,-3.1831,0.0,-2.8959,-2.8123,-2.7953,-2.7313,-2.6755,-2.7621,-2.8088,-2.8857,-3.166,-3.3923,-3.6038,-3.8546,-4.0489,-4.2162,-4.3547,-4.4528,-4.5248,-4.5537,-4.5594,-4.5902,-4.6951,-4.6549,-4.654,-4.8231,-4.9721,-5.0875,-5.1441,-5.3645,-5.5397,-5.5656,-5.6109,-5.6011,-5.4833,-5.467,0.0,0.0,0.0,0.0,-5.6709,-5.6799,-5.7162,-5.796,-5.7997,-5.7997,-5.7997,-5.7997,-5.7997,-5.7997,-5.7997,-5.7997,-5.7997,-5.7997,-5.7735,-5.7171,-5.6073,-5.5162,-5.4369,-5.3555,-5.3185,-5.313,-5.2404,-5.1399,-5.0188,-4.847,-4.7095,-4.5925,-4.4953,-4.4615,-4.4615,0.0,0.0,0.0,0.0,0.0,0.0,0.0,0.0,0.0,0.0,0.0,0.0,0.0,0.0,0.0,0.0,0.0,-2.6074,-2.6934,-2.8047,-2.9062,-2.9922,-3.1267,-3.1958,-3.1919,-3.2703,-3.3212,-3.3418,-3.3931,-3.432,-3.4616,-3.4584,-3.4577,-3.4577,-3.4577,-3.4577,-3.4577,-3.4577,-3.4865,-3.5218,-3.3853,-3.3641,-3.4026,-3.3003,-3.2359,0.0,-2.9466,-2.7686,-2.6452,-2.6832,-2.6813,-2.6755,-2.7621,-2.8934,-3.0569,-3.2737,-3.5026,-3.7469,-4.0219,-4.2008,-4.3374,-4.4489,-4.519,-4.5594,-4.5594,-4.5594,-4.5806,-4.6537,-4.6105,-4.5933,-4.701,-4.8125,-4.9413,-5.1038,-5.3445,-5.5332,-5.6051,-5.6282,-5.6244,-5.5906,-5.5538,-5.5114,0.0,0.0,0.0,-5.6344,-5.6636,-5.7161,-5.796,-5.7997,-5.7997,-5.7997,-5.7997,-5.7997,-5.7997,-5.7997,-5.7997,-5.7997,-5.7997,-5.7432,-5.6347,-5.5834,-5.4996,-5.3931,-5.3429,-5.3185,-5.3148,-5.2703,-5.1757,-5.0466,-4.8833,-4.7414,-4.6197,-4.5049,-4.4615,-4.4615,0.0,0.0,0.0,0.0,0.0,0.0,0.0,0.0,0.0,0.0,0.0,0.0,0.0,0.0,0.0,0.0,0.0,0.0,-2.6875,-2.6973,-2.7363,-2.8203,-2.8948,-2.9395,-2.9531,-3.0187,-3.0967,-3.1851,-3.1779,-3.2155,-3.2934,-3.2868,-3.284,-3.2833,-3.2833,-3.2833,-3.2833,-3.2795,-3.282,-3.2827,-3.1935,-3.1595,-3.1561,-3.0791,-3.04,-2.9834,-2.6775,-2.5515,-2.5332,-2.5442,-2.6096,-2.7005,-2.7871,-3.0935,-3.4225,-3.4359,-3.6745,-3.9727,-4.1412,-4.2527,-4.3605,-4.521,-4.5594,-4.5594,-4.5594,-4.5537,-4.5479,-4.5479,-4.5477,-4.543,-4.5358,-4.5472,-4.7046,-5.1462,-5.3244,-5.4756,-5.6669,-5.5665,-5.5624,-5.803,-5.6881,-5.615,-5.6827,-5.6928,0.0,-5.572,0.0,-5.7143,-5.7964,-5.7997,-5.7997,-5.7997,-5.7997,-5.7997,-5.7997,-5.7997,-5.7997,-5.7997,-5.7997,-5.7153,-5.5601,-5.561,-5.4736,-5.3185,-5.3185,-5.3185,-5.3185,-5.3185,-5.188,-4.9789,-4.9155,-4.7516,-4.5461,-4.4823,-4.4615,-4.4615,0.0,0.0,0.0,0.0,0.0,0.0,0.0,0.0,0.0,0.0,0.0,0.0,0.0,0.0,0.0,0.0,0.0,0.0,-2.6016,-2.6641,-2.7109,-2.7324,-2.8124,-2.8568,-2.8558,-2.931,-2.9803,-2.9989,-3.06,-3.1312,-3.2106,-3.2095,-3.2056,-3.2006,-3.2006,-3.2006,-3.1968,-3.1308,-3.179,-3.2794,-3.068,-3.0263,-3.0855,-3.0641,-2.9541,-2.8071,-2.7987,-2.6884,-2.5698,-2.7296,-2.8978,-3.0544,-3.1371,-3.2814,-3.4571,-3.6469,-3.8534,-4.0573,-4.2297,-4.3835,-4.5075,-4.5498,-4.5594,-4.5594,-4.5594,-4.4635,-4.3733,-4.3733,-4.3731,-4.3346,-4.2046,-4.3887,-4.6383,-4.8788,-5.2608,-5.5459,-5.5955,-5.7137,-5.8022,-5.8264,-5.8434,-5.8106,-5.7017,-5.7452,0.0,0.0,-5.6671,-5.7152,-5.796,-5.7997,-5.7997,-5.7997,-5.7997,-5.7997,-5.7997,-5.7997,-5.7997,-5.7997,-5.7997,-5.7148,-5.5581,-5.5601,-5.4736,-5.3185,-5.3185,-5.3185,-5.3185,-5.3185,-5.2176,-5.0513,-4.9363,-4.7831,-4.6178,-4.5022,-4.4615,-4.4615,0.0,0.0,0.0,0.0,0.0,0.0,0.0,0.0,0.0,0.0,0.0,0.0,0.0,0.0,0.0,0.0,0.0,0.0,0.0,-2.6152,-2.6426,-2.6426,-2.6894,-2.7147,-2.71,-2.7917,-2.8336,-2.8292,-2.9124,-2.9754,-3.0172,-3.0146,-3.01,-3.0025,-3.0025,-3.0025,-2.9992,-2.9541,-2.9881,0.0,0.0,-2.8671,-2.9423,-2.9096,-2.8425,-2.7704,-2.8065,-2.8475,-2.904,-3.0177,-3.1801,-3.3558,-3.4757,-3.5968,-3.7322,-3.9142,-4.0604,-4.1931,-4.3278,-4.4586,-4.5594,-4.5594,-4.5594,-4.5201,-4.3695,-4.3225,-4.2659,-4.1171,-4.1456,-4.1437,-3.9725,-4.2206,-4.522,-4.7394,-5.1405,-5.4592,-5.556,-5.7124,-5.8354,-5.8781,-5.9219,-5.9198,-5.8382,-5.8532,-5.8381,0.0,-5.743,-5.7529,-5.7978,-5.7997,-5.7997,-5.7997,-5.7997,-5.7997,-5.7997,-5.7997,-5.7997,-5.7997,-5.7638,-5.6812,-5.5596,-5.523,-5.4399,-5.3185,0.0,-5.3185,-5.3185,-5.3185,-5.227,-5.0717,-4.9395,-4.7914,-4.6372,-4.5056,-4.4615,-4.4615,0.0,0.0,0.0,0.0,0.0,0.0,0.0,0.0,0.0,0.0,0.0,0.0,0.0,0.0,0.0,0.0,0.0,0.0,0.0,0.0,0.0,-2.5703,-2.5703,-2.5703,-2.5703,-2.6445,-2.6816,-2.6816,-2.7505,-2.7876,-2.7901,-2.7857,-2.7797,-2.7741,-2.7741,-2.7741,-2.7727,-2.767,-2.769,-2.7692,-2.7068,-2.7248,-2.7812,0.0,0.0,-2.8087,-2.7759,-2.9885,-3.2899,-3.3174,-3.4565,-3.643,-3.8053,-3.9611,-4.1016,-4.1873,-4.2681,-4.3431,-4.4239,-4.5017,-4.5594,-4.5594,-4.5594,-4.4769,-4.1662,-4.1901,-4.1871,-3.8754,-3.9204,-3.9711,-3.8274,-4.0619,-4.3662,-4.646,-4.9673,-5.2704,-5.5194,-5.6379,-5.7624,-5.9304,-5.9592,-5.9792,-6.0076,-5.9682,-5.9202,-5.8724,-5.8255,-5.7997,-5.7997,-5.7997,-5.7997,-5.7997,-5.7997,-5.7997,-5.7997,-5.7997,-5.7941,-5.7831,-5.7132,-5.6323,-5.5431,-5.4724,-5.3949,-5.3185,0.0,0.0,-5.3185,-5.3096,-5.21,-5.0542,-4.9251,-4.7723,-4.6143,-4.5025,-4.4615,-4.4581,0.0,0.0,0.0,0.0,0.0,0.0,0.0,0.0,0.0,0.0,-2.6152,-2.5703,0.0,0.0,0.0,0.0,0.0,0.0,0.0,0.0,0.0,-2.5703,-2.5703,-2.5703,-2.5703,-2.5859,-2.5897,-2.5844,-2.5975,-2.6357,-2.6931,-2.6932,-2.6889,-2.6832,-2.6832,-2.6832,-2.678,-2.6129,-2.6283,-2.698,-2.6915,-2.6991,-2.7317,0.0,0.0,0.0,-2.873,-2.9812,-3.1487,-3.426,-3.718,-3.9853,-4.1074,-4.2013,-4.2816,-4.3624,-4.397,-4.4278,-4.5152,-4.5479,-4.5594,-4.5594,-4.5594,-4.521,-4.3654,-4.2099,-4.0518,-3.8981,-3.8535,-3.8346,-3.805,-3.9623,-4.1805,-4.4393,-4.7076,-5.0231,-5.4164,-5.6019,-5.7615,-5.9288,-6.0146,-6.0442,-6.0135,-5.9689,0.0,0.0,-5.8264,-5.7997,-5.7997,-5.7997,-5.7997,-5.7997,-5.7997,-5.7997,-5.7997,-5.7997,-5.7666,-5.7024,-5.6881,-5.6037,-5.4601,-5.4458,-5.3959,-5.3185,-5.3185,0.0,-5.3148,-5.2472,-5.1323,-4.9846,-4.8455,-4.6987,-4.5571,-4.4852,-4.4615,-4.4513,0.0,0.0,0.0,0.0,0.0,0.0,0.0,-2.6589,-2.7247,-2.8175,-2.7967,-2.7383,-2.6484,-2.5977,-2.5703,0.0,0.0,0.0,0.0,0.0,0.0,0.0,-2.5703,-2.5703,-2.5703,-2.6111,-2.6083,-2.5602,0.0,-2.617,-2.6018,-2.6022,-2.5985,-2.5928,-2.5956,-2.5952,-2.5904,-2.5619,-2.5967,-2.6711,-2.6879,-2.7194,0.0,0.0,0.0,0.0,-2.9906,-3.0305,-3.0976,-3.2453,-3.5786,-3.965,-4.159,-4.3206,-4.4391,-4.4325,-4.4624,-4.5075,-4.5498,-4.5594,-4.5594,-4.5594,-4.5152,-4.4105,-4.178,-4.0399,-3.9142,-3.742,-3.757,-3.7738,-3.6873,-3.8777,-4.1054,-4.2739,-4.5143,-4.8298,-5.2549,-5.4222,-5.5972,-5.8569,-5.9608,-6.0203,-6.0444,-5.9823,-5.932,-5.9084,-5.8397,-5.7997,-5.7997,-5.7997,-5.7997,-5.7997,-5.7997,-5.7795,-5.7373,-5.7373,-5.6969,-5.6161,-5.5757,-5.5152,-5.4399,-5.3977,-5.3573,-5.3185,-5.3185,0.0,-5.2546,-5.216,-5.0876,-4.9095,-4.8105,-4.679,-4.5433,-4.4814,-4.4615,-4.4496,0.0,0.0,0.0,0.0,0.0,0.0,0.0,-2.709,-2.7963,-2.9541,-2.9795,-2.9315,-2.7988,-2.6894,-2.6172,0.0,0.0,0.0,0.0,0.0,0.0,0.0,0.0,-2.5703,-2.5703,0.0,0.0,-2.5875,-2.6704,0.0,0.0,0.0,0.0,0.0,-2.5444,-2.5346,-2.5308,-2.5471,-2.5973,0.0,0.0,-2.7715,0.0,0.0,0.0,0.0,0.0,-3.0795,-3.0827,-3.0595,-3.3204,-3.7063,-3.9914,-4.2772,-4.5004,-4.4669,-4.5064,-4.5603,-4.5594,-4.5594,-4.5594,-4.5594,-4.4748,-4.3124,-4.0119,-3.915,-3.8304,-3.6192,-3.6673,-3.7065,-3.5731,-3.7796,-4.0085,-4.1316,-4.3508,-4.6528,-5.0769,-5.2433,-5.4337,-5.7376,-5.8781,-5.9762,-6.0454,-5.9851,0.0,-5.9389,0.0,0.0,-5.7997,-5.7997,-5.7923,-5.7758,-5.774,-5.7354,-5.6547,-5.6547,-5.6143,-5.5335,-5.4693,-5.4308,-5.4124,-5.35,-5.3185,-5.3185,-5.3023,0.0,0.0,-5.1628,-5.0347,-4.8532,-4.7725,-4.6632,-4.5433,-4.4814,-4.4615,-4.4479,0.0,0.0,0.0,0.0,0.0,0.0,0.0,-2.7997,-2.9376,-3.0451,-3.0593,-3.0587,-3.0547,-2.9062,-2.7734,0.0,0.0,0.0,0.0,0.0,0.0,0.0,0.0,0.0,0.0,0.0,0.0,-2.6774,-2.7651,0.0,0.0,0.0,0.0,0.0,0.0,-2.5317,-2.5317,-2.5376,0.0,0.0,0.0,0.0,0.0,0.0,0.0,0.0,0.0,-3.0814,-3.0729,-3.0821,-3.1042,-3.1875,-3.5243,-3.9533,-4.3607,-4.5068,-4.5541,-4.5601,-4.5594,-4.5594,-4.5594,-4.5594,-4.4739,-4.3489,-4.1886,-4.035,-3.8757,-3.6962,-3.6135,-3.5673,-3.5538,-3.6346,-3.7834,-4.0227,-4.2143,-4.4797,-4.9048,-5.1683,-5.3876,-5.5722,-5.805,-5.9531,-5.9608,-5.9494,-5.9389,-5.9389,0.0,0.0,-5.796,-5.7997,-5.7666,-5.6932,-5.6914,-5.6528,-5.5702,-5.5702,-5.5299,-5.4509,-5.4436,-5.4014,-5.3295,-5.3222,-5.3185,-5.317,-5.2435,0.0,0.0,-5.0418,-4.9343,-4.846,-4.7055,-4.6091,-4.5433,-4.4814,-4.4615,-4.4395,0.0,0.0,0.0,0.0,0.0,0.0,-2.7205,-2.7609,-2.8821,-3.1819,-3.185,-3.2008,-3.3066,-3.168,-2.9668,-2.7207,0.0,0.0,0.0,0.0,0.0,0.0,0.0,0.0,0.0,0.0,-2.7977,-2.8456,-2.8259,0.0,0.0,0.0,0.0,0.0,0.0,-2.613,-2.6092,-2.6191,0.0,0.0,0.0,0.0,0.0,0.0,0.0,0.0,0.0,0.0,-3.0814,-3.0794,-3.0786,-3.1008,-3.2286,-3.4739,-3.7855,-4.1479,-4.3993,-4.5604,-4.5605,-4.5603,-4.5594,-4.5594,-4.4498,-4.3006,-4.1378,-3.9715,-3.8027,-3.6327,-3.5712,-3.55,-3.55,-3.6154,-3.7392,-3.9438,-4.0362,-4.2277,-4.6518,-4.799,-5.001,-5.3741,-5.5549,-5.728,-5.93,0.0,-5.8821,-5.8297,0.0,0.0,-5.6547,-5.6547,-5.64,-5.6088,-5.6069,-5.5684,-5.4876,-5.4876,-5.4473,-5.3683,-5.3683,-5.3518,-5.3185,-5.3185,-5.2949,-5.2454,-5.2142,0.0,0.0,-4.9867,-4.8924,-4.7814,-4.7214,-4.6594,-4.5965,-4.5355,-4.4877,-4.4275,0.0,0.0,0.0,0.0,0.0,-2.5808,-2.7294,-2.7516,-2.8704,-3.2038,-3.2275,-3.2693,-3.416,-3.2812,-3.082,-2.8379,-2.7676,0.0,0.0,0.0,0.0,0.0,0.0,0.0,0.0,0.0,-2.9282,-2.9857,-2.9714,-2.9914,0.0,0.0,-2.8393,-2.7726,0.0,0.0,0.0,0.0,0.0,0.0,0.0,0.0,0.0,0.0,0.0,0.0,0.0,0.0,0.0,0.0,0.0,-3.1226,-3.0862,-3.155,-3.3425,-3.8396,-4.2228,-4.4898,-4.5038,-4.5344,-4.5594,-4.5594,-4.4333,-4.2648,-4.09,-3.92,-3.7526,-3.5846,-3.55,-3.55,-3.55,-3.5962,-3.6904,-3.8642,-3.913,-4.0689,-4.4671,-4.5663,-4.749,-5.1587,-5.3068,-5.4857,-5.7742,-5.8154,-5.7935,0.0,0.0,0.0,0.0,-5.5023,-5.4987,-5.5225,-5.5244,-5.4858,-5.4051,-5.4051,-5.3775,-5.3185,-5.3185,-5.3185,-5.3185,-5.2968,-5.2546,-5.1958,0.0,0.0,0.0,-4.9335,-4.8585,-4.7635,-4.7488,-4.7106,-4.6582,-4.5726,-4.5085,-4.4418,0.0,0.0,0.0,0.0,0.0,0.0,-2.6486,-2.8072,-2.9544,-3.0592,-3.1462,-3.2362,-3.3301,-3.1914,-3.0898,-3.0859,-2.9277,0.0,0.0,0.0,0.0,0.0,0.0,0.0,0.0,0.0,-3.0816,-3.068,-3.2402,-3.3215,-3.3115,-3.1324,-3.046,-3.0378,0.0,0.0,0.0,0.0,0.0,0.0,0.0,0.0,0.0,0.0,0.0,0.0,0.0,0.0,0.0,0.0,0.0,0.0,0.0,-3.0814,-3.1722,-3.6823,-4.0602,-4.3245,-4.3771,-4.4741,-4.5594,-4.5594,-4.4335,-4.2643,-4.09,-3.92,-3.7526,-3.5846,-3.55,-3.55,-3.55,-3.5519,-3.6058,-3.7738,-3.8738,-4.0477,-4.3835,-4.5797,-4.7528,-4.924,-5.0914,-5.2615,-5.4376,-5.5998,-5.6732,0.0,0.0,0.0,0.0,-5.3665,-5.3592,-5.4399,-5.4418,-5.4032,-5.3203,-5.3203,-5.3203,-5.3185,-5.3185,-5.3185,-5.3167,-5.238,-5.1995,0.0,0.0,0.0,0.0,-4.8673,-4.8287,-4.823,-4.7635,-4.7385,-4.7212,-4.5729,-4.5216,-4.4894,0.0,0.0,0.0,0.0,0.0,0.0,0.0,-2.659,-2.76,-3.0339,-3.0457,-3.1099,-3.3164,-3.2441,-3.2012,-3.2559,-3.0508,0.0,0.0,0.0,0.0,0.0,0.0,0.0,0.0,0.0,-3.1928,-3.248,-3.3529,-3.4029,-3.3938,-3.3369,-3.2144,-3.0419,-2.985,-2.9275,0.0,0.0,0.0,0.0,0.0,0.0,0.0,0.0,0.0,0.0,0.0,0.0,0.0,0.0,0.0,0.0,0.0,0.0,0.0,-3.4042,-3.7276,-4.0198,-4.0365,-4.1689,-4.2868,-4.2266,-4.1304,-4.02,-3.9046,-3.7911,-3.6788,-3.5712,-3.55,-3.55,-3.55,-3.55,-3.6231,-3.8527,-3.913,-4.0285,-4.3085,-4.4932,-4.6855,-4.9125,-5.2694,-5.5198,0.0,0.0,0.0,0.0,0.0,0.0,0.0,-5.3332,-5.3314,-5.3573,-5.3592,-5.3463,-5.3185,-5.3185,-5.3185,-5.3185,-5.2637,-5.238,-5.2344,-5.1555,0.0,0.0,0.0,0.0,0.0,-4.8416,-4.8306,-4.8232,-4.7472,-4.7194,-4.6966,-4.5124,-4.4129,-4.3487,0.0,0.0,0.0,0.0,0.0,0.0,0.0,-2.5977,-2.6812,-2.9388,-2.9583,-3.0379,-3.2695,-3.25,-3.2519,-3.332,-3.1953,0.0,0.0,0.0,0.0,0.0,0.0,0.0,0.0,-3.1811,-3.3044,-3.4179,-3.4956,-3.5452,-3.5697,-3.5357,-3.4165,-3.2308,-3.1635,-3.0871,0.0,0.0,0.0,0.0,0.0,0.0,0.0,0.0,0.0,0.0,0.0,0.0,0.0,0.0,0.0,0.0,0.0,0.0,0.0,0.0,-3.4457,-3.6868,-3.8159,-3.9869,-4.1185,-4.0631,-3.99,-3.9073,-3.82,-3.7334,-3.6462,-3.5673,-3.55,-3.55,-3.55,-3.55,-3.6231,-3.845,-3.9092,-4.0181,-4.2739,-4.4528,-4.6556,-4.9106,-5.2678,0.0,0.0,-5.5202,0.0,0.0,0.0,0.0,0.0,-5.2747,-5.2619,-5.2307,-5.2873,-5.3185,-5.3185,-5.3185,-5.3059,-5.2747,-5.2234,-5.183,-5.1518,-5.071,0.0,0.0,0.0,0.0,0.0,-4.8306,-4.8122,-4.7791,-4.7296,-4.6911,-4.6451,-4.4899,-4.3901,-4.3163,0.0,0.0,0.0,0.0,0.0,0.0,0.0,-2.6039,-2.6967,-2.7965,-2.8856,-3.0081,-3.1893,-3.2148,-3.2499,-3.332,0.0,0.0,0.0,0.0,0.0,0.0,0.0,0.0,0.0,-3.2902,-3.4101,-3.5604,-3.6596,-3.741,-3.8084,-3.7315,-3.6462,-3.5519,-3.3833,-3.2602,0.0,0.0,0.0,0.0,0.0,0.0,0.0,0.0,0.0,0.0,0.0,0.0,0.0,0.0,0.0,0.0,0.0,0.0,0.0,0.0,0.0,0.0,0.0,-3.8777,-4.0035,-3.9977,-3.94,-3.863,-3.7815,-3.7065,0.0,-3.5558,-3.5462,-3.5538,-3.5654,-3.5635,-3.6173,-3.7988,-3.895,-4.0354,-4.2835,-4.4739,-4.6826,-4.9375,-5.1431,0.0,-5.264,0.0,0.0,0.0,0.0,0.0,0.0,-5.1903,-5.1573,-5.082,-5.2252,-5.302,-5.302,-5.302,-5.2656,-5.1903,-5.1848,-5.1444,-5.0692,-4.9886,0.0,0.0,0.0,0.0,0.0,-4.8159,-4.7681,-4.7003,-4.6947,-4.647,-4.5718,-4.4875,-4.4253,-4.3608,0.0,0.0,0.0,0.0,0.0,0.0,0.0,0.0,0.0,0.0,-2.8226,-2.9029,-3.0786,-3.1566,-3.2326,0.0,0.0,0.0,0.0,0.0,0.0,0.0,0.0,0.0,0.0,-3.3332,-3.456,-3.5604,-3.7701,-3.8821,-3.8988,-3.9419,-3.8469,-3.6365,-3.5346,-3.4038,0.0,0.0,0.0,0.0,0.0,0.0,0.0,0.0,0.0,0.0,-3.1282,-3.1449,0.0,0.0,0.0,0.0,0.0,0.0,0.0,0.0,-3.1844,-3.216,-3.2968,0.0,-3.5514,-3.4853,-3.4545,-3.4353,0.0,-3.4449,-3.4718,-3.4545,-3.5045,-3.5885,-3.718,-3.6865,-3.7404,-4.0423,-4.1085,-4.1873,-4.3758,-4.6605,-4.9452,-5.201,-5.2748,-5.3059,-5.3055,0.0,0.0,0.0,0.0,0.0,0.0,-5.1077,-5.1004,-5.082,-5.1169,-5.1371,-5.1371,-5.1371,-5.1279,-5.1077,-5.0473,-5.0069,-4.9867,-4.9003,0.0,0.0,0.0,0.0,-4.7333,-4.6728,-4.6342,-4.6122,-4.5498,-4.5168,-4.482,-4.3614,-4.3078,-4.2791,0.0,0.0,0.0,0.0,0.0,0.0,0.0,0.0,0.0,0.0,0.0,0.0,0.0,0.0,0.0,0.0,0.0,0.0,0.0,0.0,0.0,0.0,0.0,-3.2697,-3.2994,-3.4246,-3.5494,-3.6704,-3.8455,-3.9496,-3.9861,-4.0304,-3.9354,-3.7238,-3.5622,-3.4372,0.0,0.0,0.0,0.0,0.0,0.0,0.0,0.0,0.0,0.0,-3.067,-3.0808,0.0,-3.2136,-3.2657,-3.2952,0.0,0.0,0.0,0.0,-3.1096,-3.1096,-3.1096,-3.291,-3.468,-3.4218,-3.4083,-3.4083,-3.4083,-3.3833,-3.3725,-3.4129,-3.4584,-3.543,-3.7084,-3.7334,-3.8161,-4.0777,-4.1724,-4.2929,-4.5224,-4.7635,-4.9972,-5.2069,-5.2512,-5.2639,0.0,0.0,0.0,0.0,0.0,0.0,0.0,-5.0251,-5.0068,-4.9682,-4.9664,-5.0031,-5.0802,-5.0802,-5.0618,-5.0233,-4.9812,-4.939,-4.8967,-4.8141,-4.7736,0.0,0.0,0.0,-4.6526,-4.6085,-4.5681,-4.5314,-4.4856,-4.447,-4.405,-4.3324,-4.292,-4.2616,0.0,0.0,0.0,0.0,0.0,0.0,0.0,0.0,0.0,0.0,0.0,0.0,0.0,0.0,0.0,0.0,0.0,0.0,0.0,0.0,0.0,0.0,0.0,-3.3727,-3.4475,-3.5204,-3.644,-3.82,-3.9073,-3.9977,-4.09,-4.09,-3.9854,-3.7892,-3.5468,-3.4398,0.0,0.0,0.0,0.0,0.0,0.0,0.0,0.0,0.0,0.0,0.0,0.0,0.0,-3.2159,-3.2819,-3.3045,-3.2795,0.0,0.0,0.0,0.0,0.0,-3.0712,-3.3096,-3.5404,-3.5019,-3.5115,-3.5269,-3.5135,-3.4064,-3.3314,-3.4052,-3.4321,-3.4949,-3.6757,-3.77,-3.8796,-4.0612,-4.1915,-4.3718,-4.6582,-4.7935,-4.9274,-5.1096,-5.1542,0.0,0.0,0.0,0.0,0.0,0.0,0.0,0.0,-4.9408,-4.9058,-4.8324,-4.8306,-4.8985,-5.0398,-5.0417,-5.0086,-4.9408,-4.9408,-4.8948,-4.8104,-4.7406,-4.7021,0.0,0.0,0.0,-4.57,-4.5571,-4.5131,-4.4525,-4.4525,-4.4103,-4.3515,-4.3515,-4.3214,-4.2807,0.0,0.0,0.0,0.0,0.0,0.0,0.0,0.0,0.0,0.0,0.0,0.0,0.0,0.0,0.0,0.0,0.0,0.0,0.0,0.0,0.0,-3.5149,-3.4494,-3.4508,-3.5309,-3.5438,-3.6682,-3.9111,-3.9919,-4.1131,-4.2701,-4.2701,-4.1027,-3.7911,-3.6122,-3.5308,-3.525,0.0,0.0,0.0,0.0,0.0,0.0,0.0,0.0,0.0,0.0,0.0,0.0,-3.0958,-3.2236,-3.3744,-3.2333,0.0,0.0,0.0,0.0,0.0,-3.2141,-3.3981,-3.4981,-3.2808,-3.3353,-3.4199,-3.3468,-3.366,-3.4032,-3.4167,-3.4795,-3.6045,-3.845,-3.9015,-3.9892,-4.2316,-4.3216,-4.4403,0.0,0.0,-4.8287,-5.0976,0.0,0.0,0.0,0.0,0.0,0.0,0.0,0.0,0.0,-4.8508,-4.8434,-4.8306,-4.8306,-4.8416,-4.8691,-4.8691,-4.8618,-4.8508,-4.8508,-4.8086,-4.7278,-4.7168,-4.6727,0.0,0.0,-4.4892,-4.4837,-4.414,-4.3808,-4.3681,-4.3681,-4.3608,-4.3515,-4.3515,-4.3444,-4.3303,0.0,0.0,0.0,0.0,0.0,0.0,0.0,0.0,0.0,0.0,0.0,0.0,0.0,0.0,0.0,0.0,0.0,0.0,0.0,0.0,0.0,-3.6135,-3.5779,-3.5766,-3.6135,-3.7065,-3.8334,-3.9958,-4.1266,-4.2316,-4.3066,-4.1681,-3.995,-3.793,-3.625,-3.55,-3.5462,-3.5064,0.0,0.0,0.0,0.0,0.0,0.0,0.0,0.0,0.0,0.0,0.0,0.0,-3.2179,-3.3295,-3.2083,0.0,0.0,0.0,0.0,0.0,-3.1346,-3.3141,-3.4526,-3.3333,-3.5013,-3.686,-3.6449,-3.593,-3.568,-3.6161,-3.6086,-3.6615,-3.8877,-3.9743,-4.0866,-4.3197,-4.3769,-4.4486,-4.6177,-4.6595,-4.7552,0.0,0.0,0.0,0.0,0.0,0.0,0.0,0.0,0.0,0.0,0.0,-4.7003,-4.7003,-4.7003,-4.7003,-4.7003,-4.7003,-4.7223,-4.7645,-4.7645,-4.7223,-4.6452,-4.5993,-4.559,-4.5223,0.0,-4.4048,-4.4011,-4.3662,-4.3515,-4.3515,-4.3515,-4.3515,-4.3515,-4.3515,-4.3515,-4.3462,0.0,0.0,0.0,0.0,0.0,0.0,0.0,0.0,0.0,0.0,0.0,0.0,0.0,0.0,0.0,0.0,0.0,0.0,0.0,0.0,-3.5769,-3.6385,-3.6596,-3.6981,-3.7584,-3.87,-3.99,-4.1112,-4.245,-4.3104,-4.3047,-4.0681,-3.9008,-3.793,-3.6442,-3.5673,-3.55,-3.55,-3.55,0.0,0.0,0.0,0.0,0.0,0.0,0.0,0.0,0.0,0.0,0.0,0.0,0.0,0.0,0.0,0.0,-3.0846,-3.0404,-3.05,-3.0885,-3.241,-3.3994,-3.4391,-3.6469,-3.8531,-3.9034,-3.7828,-3.6922,-3.812,-3.7669,-3.7585,-3.9322,-4.0604,-4.1957,-4.3707,-4.4001,-4.4382,-4.5478,-4.6053,-4.6915,0.0,0.0,0.0,0.0,0.0,0.0,0.0,0.0,0.0,0.0,0.0,-4.5902,-4.5902,-4.5902,-4.5902,-4.5902,-4.5902,-4.6214,-4.6819,-4.6819,-4.6397,-4.5608,-4.4984,-4.4617,-4.4378,-4.3754,-4.3515,-4.3515,-4.3515,-4.3515,-4.3515,-4.3515,-4.3515,-4.3515,-4.3515,-4.3515,-4.3515,0.0,0.0,0.0,0.0,0.0,0.0,0.0,0.0,0.0,0.0,0.0,0.0,0.0,0.0,0.0,0.0,0.0,0.0,0.0,0.0,-3.5538,-3.5577,-3.6308,-3.7815,-4.0169,-3.9631,-4.0489,-4.2912,-4.3047,-4.3104,-4.3066,-4.1266,-3.9554,-3.7969,-3.7026,-3.6192,-3.55,-3.55,-3.55,-3.5423,0.0,0.0,0.0,0.0,0.0,0.0,0.0,0.0,0.0,0.0,0.0,0.0,0.0,0.0,-3.1602,-3.0673,-3.0404,-3.0731,-3.2295,-3.2852,-3.3372,-3.5,-3.5596,-3.6288,-3.8288,-3.7442,-3.6834,-3.8961,-3.9333,-3.9559,-4.0519,-4.2027,-4.3305,-4.3894,-4.4001,-4.4178,-4.4707,0.0,0.0,0.0,0.0,0.0,0.0,0.0,0.0,0.0,0.0,0.0,0.0,0.0,0.0,-4.5902,-4.5902,-4.5902,-4.5902,-4.5902,-4.592,-4.5993,-4.5993,-4.5571,-4.4764,-4.4728,-4.4287,-4.3588,-4.3533,-4.3515,-4.3515,-4.3515,-4.3515,-4.3515,-4.3515,-4.3515,-4.3515,-4.3515,-4.3515,-4.3515,0.0,0.0,0.0,0.0,0.0,0.0,0.0,0.0,0.0,0.0,0.0,0.0,0.0,0.0,0.0,0.0,0.0,0.0,0.0,-3.4507,-3.5161,-3.6192,-3.6538,-3.7661,-3.9708,-4.0469,-4.1835,-4.3855,-4.3855,-4.3316,-4.2277,-4.1066,-3.9611,-3.7969,-3.7084,-3.625,-3.55,-3.55,-3.55,-3.5462,-3.5135,0.0,0.0,0.0,0.0,0.0,0.0,0.0,0.0,0.0,-3.0981,-3.1545,-3.0673,-3.1,-3.1525,-3.0654,-3.0404,-3.0538,-3.1173,-3.272,-3.4178,-3.4397,-3.545,-3.6977,-3.9032,-3.9823,-4.0456,-4.163,-4.1297,-4.0994,-4.162,-4.2414,-4.3144,-4.3613,-4.3677,-4.3924,-4.4598,0.0,0.0,0.0,0.0,0.0,0.0,0.0,0.0,0.0,0.0,0.0,0.0,0.0,0.0,-4.4397,-4.4397,-4.4397,-4.4397,-4.4397,-4.4397,-4.4397,-4.4911,-4.4727,-4.3956,-4.3956,-4.3791,-4.3515,-4.3515,-4.3515,-4.3515,-4.3515,-4.3515,-4.3515,-4.3515,-4.3515,-4.3515,-4.3515,-4.3515,-4.3515,0.0,0.0,0.0,0.0,0.0,0.0,0.0,0.0,0.0,0.0,0.0,0.0,0.0,0.0,0.0,0.0,0.0,0.0,-3.3372,-3.3917,-3.4699,-3.5853,-3.6423,-3.7392,-3.8854,-4.0277,-4.1835,-4.3508,-4.3508,-4.2931,-4.1769,-4.0642,-3.9515,-3.8354,-3.7219,-3.6385,-3.5865,-3.5615,-3.55,-3.55,-3.55,-3.4462,0.0,0.0,0.0,0.0,0.0,0.0,0.0,0.0,-3.0179,-3.0775,-3.0179,-3.0596,-3.1173,-3.0577,-3.0535,-3.0682,-3.0682,-3.2309,-3.395,-3.3701,-3.534,-3.7495,-3.9279,-4.0564,-4.1779,-4.3081,-4.2735,-4.2313,-4.2612,-4.2885,-4.3132,0.0,-4.3515,-4.3681,0.0,0.0,0.0,0.0,0.0,0.0,0.0,0.0,0.0,0.0,0.0,0.0,0.0,0.0,0.0,0.0,-4.3515,-4.3515,-4.3515,-4.3515,-4.3515,-4.3515,-4.4066,-4.403,-4.3515,-4.3515,-4.3515,-4.3515,-4.3515,-4.3515,-4.3515,-4.3515,-4.3515,-4.3515,-4.3515,-4.3515,-4.3515,-4.3515,-4.3515,-4.3515,0.0,0.0,0.0,0.0,0.0,0.0,0.0,0.0,0.0,0.0,0.0,0.0,0.0,0.0,0.0,0.0,0.0,0.0,-3.1698,-3.3256,-3.4186,-3.4205,-3.5795,-3.7084,-3.7969,-3.8834,-4.0104,-4.1769,-4.1769,-4.1769,-4.1731,-4.0065,-3.9284,-3.9207,-3.7488,-3.6692,-3.6615,-3.5827,-3.5481,-3.5481,-3.5481,-3.4442,0.0,0.0,0.0,0.0,0.0,0.0,0.0,0.0,-2.8434,-2.9088,-2.9107,-2.9698,-3.0404,-3.0404,-3.0828,-3.1299,-3.1291,-3.1696,-3.2316,-3.3115,-3.5233,-3.7467,-3.8733,-3.9022,-3.9882,-4.2886,-4.3515,-4.3515,-4.3515,-4.3515,-4.3515,-4.3515,-4.3515,0.0,0.0,0.0,0.0,0.0,0.0,0.0,0.0,0.0,0.0,0.0,0.0,0.0,0.0,0.0,0.0,0.0,-4.3515,-4.3515,-4.3515,-4.3515,-4.3515,-4.3515,-4.3515,-4.3515,-4.3515,-4.3515,-4.3515,-4.3515,-4.3515,-4.3515,-4.3515,-4.3515,-4.3515,-4.3515,-4.3515,-4.3515,-4.3515,-4.3515,-4.3515,-4.3515,0.0,0.0,0.0,0.0,0.0,0.0,0.0,0.0,0.0,0.0,0.0,0.0,0.0,0.0,0.0,0.0,0.0,0.0,-3.1686,-3.2179,-3.2968,-3.4148,-3.4686,-3.5353,-3.6212,-3.7046,-3.8315,-4.0046,-4.0604,-4.0277,-3.9123,-3.9238,-3.8642,-3.7488,-3.7565,-3.6622,-3.493,-3.468,-3.4584,-3.4584,-3.4584,-3.391,0.0,0.0,0.0,0.0,0.0,0.0,0.0,0.0,0.0,0.0,-2.8915,-2.9698,-3.0361,-3.0163,-3.0679,-3.1138,-3.0379,-3.1834,-3.3635,-3.3866,-3.6519,-3.9309,-4.0259,-4.1107,-4.2032,-4.3252,-4.3515,-4.3515,-4.3515,-4.3515,0.0,-4.3515,-4.3515,0.0,0.0,0.0,0.0,0.0,0.0,0.0,0.0,0.0,0.0,0.0,0.0,0.0,0.0,0.0,0.0,0.0,-4.3515,-4.3515,-4.3515,-4.3515,-4.3515,-4.3515,-4.3515,-4.3515,-4.3515,-4.3515,-4.3515,-4.3515,-4.3515,-4.3515,-4.3515,-4.3515,-4.3515,-4.3515,-4.3515,-4.3515,-4.3515,-4.3515,-4.3515,-4.3515,0.0,0.0,0.0,0.0,0.0,0.0,0.0,0.0,0.0,0.0,0.0,0.0,0.0,0.0,0.0,0.0,0.0,0.0,0.0,-3.1506,-3.2295,-3.3622,-3.4013,-3.4603,-3.5481,-3.6635,-3.7411,-3.7796,-3.8931,-3.8988,-3.8027,-3.8892,-3.8738,-3.7738,-3.7911,-3.6949,-3.5141,-3.4475,-3.4205,-3.4205,-3.4205,-3.368,-3.2891,0.0,0.0,0.0,0.0,0.0,0.0,0.0,0.0,0.0,-2.8472,-2.8933,-2.9379,-2.9856,-3.0492,-3.1089,-3.1401,-3.2977,-3.4752,-3.575,-3.7974,-4.0267,-4.1717,-4.2578,-4.3171,-4.3439,-4.3515,-4.3515,-4.3515,-4.3515,0.0,-4.3515,0.0,0.0,0.0,0.0,0.0,0.0,0.0,0.0,0.0,0.0,0.0,0.0,0.0,0.0,0.0,0.0,0.0,0.0,-4.3515,-4.3515,-4.3515,-4.3515,-4.3515,-4.3515,-4.3515,-4.3515,-4.3515,-4.3515,-4.3515,-4.3515,-4.3515,-4.3515,-4.3515,-4.3515,-4.3515,-4.3515,-4.3515,-4.3515,-4.3515,-4.3515,-4.3515,-4.3515,0.0,0.0,0.0,0.0,0.0,0.0,0.0,0.0,0.0,0.0,-2.9739,0.0,0.0,0.0,0.0,0.0,0.0,0.0,0.0,0.0,-3.2026,-3.2852,-3.3872,-3.4834,-3.5712,-3.7142,-3.7142,-3.5615,-3.7142,-3.7834,-3.7796,-3.8738,-3.9111,-3.8911,-3.82,-3.7315,-3.625,-3.4641,-3.3975,-3.3975,-3.3975,-3.3506,-3.2776,-3.2699,0.0,0.0,0.0,0.0,0.0,0.0,0.0,0.0,-2.7992,-2.7877,-2.8006,-2.9536,-3.0272,-3.1086,-3.3336,-3.4465,-3.561,-3.8083,-3.946,-4.0799,-4.3001,-4.3515,-4.3515,-4.3515,-4.3515,-4.3515,-4.3515,-4.3515,-4.3515,0.0,0.0,0.0,0.0,0.0,0.0,0.0,0.0,0.0,0.0,0.0,0.0,0.0,0.0,0.0,0.0,0.0,0.0,0.0,-4.3531,-4.3548,-4.3548,-4.358,-4.3597,0.0,-4.3597,-4.358,-4.3548,-4.3513,-4.3515,-4.3515,-4.3515,-4.3515,-4.3515,-4.3515,-4.3515,-4.3515,-4.3515,-4.3515,-4.3515,-4.3515,-4.3515,-4.3515,0.0,0.0,0.0,0.0,0.0,0.0,0.0,0.0,0.0,0.0,0.0,0.0,0.0,0.0,0.0,0.0,0.0,0.0,0.0,0.0,-3.1849,-3.2865,-3.5007,-3.6565,-3.745,-3.7161,-3.6788,-3.6442,-3.6788,-3.6654,-3.6077,-3.7584,-3.7584,-3.6346,-3.6769,-3.5757,-3.366,-3.266,-3.2237,-3.2237,-3.2237,-3.2122,-3.1891,-3.1192,-3.0294,0.0,0.0,0.0,0.0,0.0,0.0,0.0,-2.8646,-2.8701,-2.8698,-2.952,-3.0161,-3.0807,-3.1751,-3.3461,-3.561,-3.8083,-4.0726,-4.2872,-4.3386,-4.3515,-4.3515,-4.3515,-4.3515,-4.3515,-4.3515,-4.3515,-4.3515,0.0,0.0,0.0,0.0,0.0,0.0,0.0,0.0,0.0,0.0,0.0,0.0,0.0,0.0,0.0,0.0,0.0,0.0,-4.3515,-4.3758,-4.3896,-4.3896,-4.4209,-4.4364,0.0,-4.4364,-4.4194,-4.3881,-4.3612,-4.3515,-4.3515,-4.3515,-4.3515,-4.3515,-4.3515,-4.3515,-4.3515,-4.3515,-4.3515,-4.3515,-4.3515,-4.3515,-4.3515,0.0,0.0,0.0,0.0,0.0,0.0,0.0,0.0,0.0,0.0,0.0,0.0,0.0,0.0,0.0,0.0,0.0,0.0,0.0,-3.0373,-3.1341,-3.2827,-3.5334,-3.6731,-3.6796,-3.6365,-3.6135,-3.6135,-3.5718,-3.5507,-3.5538,-3.7219,-3.7526,-3.6692,-3.6692,-3.575,-3.4045,-3.241,-3.1698,-3.1698,-3.1698,-3.1448,-3.1019,-3.0577,-2.9621,-2.8472,-2.8049,0.0,0.0,0.0,0.0,0.0,0.0,0.0,-2.7447,-2.8143,-2.878,-2.9665,-3.147,-3.3463,-3.5793,-3.904,-4.168,-4.3515,-4.3515,-4.3515,-4.3515,-4.3515,-4.3515,-4.3515,-4.3515,-4.3515,0.0,0.0,0.0,0.0,0.0,0.0,0.0,0.0,0.0,0.0,0.0,0.0,0.0,0.0,0.0,0.0,0.0,-4.3515,-4.3515,-4.3515,-4.3679,-4.3756,-4.3756,-4.4136,-4.4304,-4.4304,-4.4086,-4.3571,-4.2869,-4.3295,-4.3515,-4.3515,-4.3515,-4.3515,-4.3515,-4.3515,-4.3515,-4.346,-4.3075,-4.3149,-4.346,-4.3057,-4.3167,-4.3515,0.0,0.0,0.0,0.0,0.0,0.0,0.0,0.0,0.0,0.0,0.0,0.0,0.0,0.0,0.0,0.0,0.0,0.0,0.0,-2.997,-3.1099,-3.3185,-3.5304,-3.6202,-3.5712,-3.5577,-3.55,-3.55,-3.4487,-3.4641,-3.5962,-3.7353,-3.7911,-3.7738,-3.7019,-3.6096,-3.4885,-3.2481,-3.1391,-3.1237,-3.1102,-3.0621,-2.9942,-2.9808,-2.889,-2.7684,-2.7684,-2.7648,-2.7742,-2.8574,0.0,0.0,0.0,0.0,-2.5855,-2.6656,-2.7233,-2.8227,-3.117,-3.3573,-3.6178,-4.0123,-4.2213,-4.3331,-4.3478,-4.3515,-4.3515,-4.3515,-4.3515,-4.3515,-4.3515,-4.3515,0.0,0.0,0.0,0.0,0.0,0.0,0.0,0.0,0.0,0.0,0.0,0.0,0.0,0.0,0.0,0.0,-4.3496,-4.3369,-4.3277,-4.3277,-4.3215,-4.319,-4.3256,-4.3588,-4.3788,-4.384,-4.3326,-4.2575,-4.1622,-4.2631,-4.3075,-4.3075,-4.3075,-4.3075,-4.3075,-4.3075,-4.3075,-4.302,-4.2359,-4.2506,-4.3002,-4.2341,-4.2506,-4.3075,0.0,0.0,0.0,0.0,0.0,0.0,0.0,0.0,0.0,0.0,-3.125,-3.125,-3.125,-3.0008,0.0,0.0,0.0,0.0,-2.9443,0.0,0.0,-3.4694,-3.5122,-3.5699,-3.6519,-3.5865,-3.55,-3.55,-3.3872,-3.4641,-3.7661,-3.7892,-3.7603,-3.6865,-3.675,-3.5404,-3.3122,-3.1327,-3.014,-2.9396,-2.8684,-2.8332,-2.814,-2.739,-2.6967,-2.6774,-2.6774,-2.6655,-2.6644,-2.751,-2.7594,0.0,0.0,0.0,-2.5861,-2.6655,-2.6837,-2.7152,-2.8987,-3.2742,-3.6927,-4.027,-4.1791,-4.2635,-4.3332,-4.3515,-4.3515,-4.3515,-4.3515,-4.3515,-4.3515,0.0,0.0,0.0,0.0,0.0,0.0,0.0,0.0,0.0,0.0,0.0,0.0,0.0,0.0,0.0,0.0,0.0,-4.346,-4.2837,-4.2451,-4.2451,-4.2082,-4.1992,-4.2277,-4.2614,-4.2924,-4.3205,-4.2572,-4.2025,-4.1609,-4.147,-4.1407,-4.1407,-4.1407,-4.1407,-4.1407,-4.1407,-4.1407,-4.1407,-4.1297,-4.1334,-4.1407,-4.1297,-4.1334,-4.1407,0.0,0.0,0.0,0.0,0.0,0.0,0.0,0.0,0.0,0.0,0.0,-3.0889,-3.136,-2.9971,0.0,0.0,0.0,0.0,-2.9382,-3.0252,0.0,0.0,-3.3226,-3.3767,-3.4385,-3.3094,-3.2945,-3.4045,-3.2327,-3.3737,-3.8007,-3.8007,-3.8565,-3.95,-3.8065,-3.6526,-3.4834,-3.1712,-2.991,-2.903,-2.8222,-2.8361,-2.8823,-2.7101,-2.6918,-2.7426,-2.6085,-2.552,-2.5593,-2.6415,-2.6559,-2.6401,-2.6397,0.0,0.0,0.0,-2.5629,-2.6557,-2.9531,-3.2577,-3.5679,-3.8946,-4.0359,-4.1167,-4.1974,-4.2158,-4.2158,-4.2158,-4.2158,-4.2433,0.0,0.0,0.0,0.0,0.0,0.0,0.0,0.0,0.0,0.0,0.0,0.0,0.0,0.0,0.0,0.0,0.0,-4.1791,-4.2139,-4.1827,-4.1627,-4.1627,-4.1433,-4.1468,-4.1817,-4.215,-4.234,-4.2365,-4.2058,-4.1429,-4.0471,-4.032,-4.057,-4.1095,-4.1095,-4.1095,-4.1095,-4.1095,-4.1095,-4.1058,-4.0598,-4.0708,-4.104,-4.0598,-4.0726,-4.1095,0.0,0.0,0.0,0.0,0.0,0.0,0.0,0.0,0.0,0.0,0.0,0.0,-3.1017,0.0,0.0,0.0,0.0,0.0,-2.8992,0.0,0.0,0.0,0.0,-3.1919,-3.2189,-3.0715,-3.0764,-3.2419,-3.093,-3.2922,-3.8101,-3.8177,-3.9813,-4.253,-4.0053,-3.8007,-3.6173,-3.2788,-3.0852,-2.9967,-2.8852,-2.9007,-2.9756,-2.8518,-2.8582,-2.9034,-2.6817,-2.5857,-2.5648,-2.5626,-2.5492,-2.5328,-2.5317,-2.5227,0.0,0.0,0.0,-2.5833,-2.9237,-3.1347,-3.3366,-3.6652,-3.8377,-3.9551,-4.0561,-4.0948,-4.1095,0.0,-4.1095,-4.1462,0.0,0.0,0.0,0.0,0.0,0.0,0.0,0.0,0.0,0.0,0.0,0.0,0.0,0.0,0.0,0.0,0.0,-4.0875,-4.1095,-4.0912,-4.0799,-4.0799,-4.06,-4.064,-4.0966,-4.1381,-4.1512,-4.1368,-4.1368,-4.0692,-3.9462,-3.9462,-3.9847,-4.049,-4.049,-4.049,-4.049,-4.049,-4.049,-4.0416,-3.9827,-3.9955,-4.0416,-3.9827,-3.9974,-4.049,0.0,0.0,0.0,0.0,0.0,0.0,0.0,0.0,0.0,0.0,0.0,0.0,-3.0265,-2.95,-2.9005,-2.9005,0.0,0.0,0.0,0.0,0.0,0.0,0.0,0.0,-3.1079,-3.0255,-3.0225,-3.1097,-3.0182,-3.2694,-3.8394,-3.8709,-4.1027,-4.4824,-4.2589,-3.9346,-3.5481,-3.4449,-3.3506,-3.2526,-3.0577,-2.9848,-3.0113,-3.209,-3.2422,-3.1597,-2.9945,-2.8736,-2.7587,-2.535,-2.4439,-2.4282,-2.4292,-2.4282,-2.4245,0.0,0.0,0.0,-2.6392,-2.8014,-3.0014,-3.3256,-3.5844,-3.8043,-3.9622,-4.0561,-4.1095,-4.1095,-4.1095,-4.1132,0.0,0.0,0.0,0.0,0.0,0.0,0.0,0.0,0.0,0.0,0.0,0.0,0.0,0.0,0.0,0.0,0.0,-4.0304,-4.1058,-4.0377,-3.9955,-3.9955,-3.9221,-3.8958,-3.9229,-3.9886,-4.0205,-4.0196,-4.0196,-3.9813,-3.9139,-3.9139,-3.9013,-3.8836,-3.8836,-3.8836,-3.8836,-3.8836,-3.8836,-3.8836,-3.8781,-3.8799,-3.8817,-3.8781,-3.8799,-3.8836,0.0,0.0,0.0,0.0,0.0,0.0,0.0,0.0,0.0,0.0,0.0,0.0,0.0,-2.9482,-2.9005,-2.9005,-2.8539,0.0,0.0,0.0,0.0,0.0,0.0,0.0,-2.9972,-2.8633,-2.8415,-2.9408,-2.8514,-3.0287,-3.4509,-3.5657,-3.7386,-3.9557,-4.0523,-4.0123,-3.8469,-3.4891,-3.3094,-3.2519,-3.1253,-3.1476,-3.2572,-3.2325,-3.2941,-3.366,-3.152,-2.9865,-2.8544,-2.7677,-2.6299,-2.497,-2.497,-2.4622,-2.419,-2.419,-2.419,-2.4557,-2.6172,-2.7024,-2.8106,-3.0815,-3.2926,-3.4633,-3.5734,-3.7441,-3.8781,-3.8781,-3.9203,0.0,0.0,0.0,0.0,0.0,0.0,0.0,0.0,0.0,0.0,0.0,0.0,0.0,0.0,0.0,0.0,0.0,0.0,0.0,-3.9536,-3.9294,-3.9129,-3.9129,-3.8854,-3.8829,-3.9099,-3.9765,-4.0101,-4.0101,-4.0267,-4.0024,-3.9414,-3.9414,-3.9163,-3.8707,-3.8707,-3.8707,-3.8707,-3.8707,-3.8707,-3.8707,-3.8707,-3.8707,-3.8707,-3.8707,-3.8707,-3.8707,0.0,0.0,0.0,0.0,0.0,0.0,0.0,0.0,-2.9189,-2.9721,0.0,0.0,0.0,0.0,-2.9299,-2.9023,-2.8264,-2.8026,-2.8565,-2.8099,0.0,0.0,0.0,0.0,-2.9257,-2.7663,-2.7279,-2.8278,-2.7417,-2.8577,-3.1634,-3.3077,-3.4612,-3.6179,-3.729,-3.843,-3.9306,-3.5913,-3.4144,-3.3577,-3.2893,-3.3366,-3.455,-3.4783,-3.5431,-3.5995,-3.4119,-3.2394,-3.0858,-2.9776,-2.8172,-2.6502,-2.598,-2.5081,-2.419,-2.419,-2.419,-2.4428,-2.5511,-2.5988,-2.6778,-2.92,-3.0601,-3.1812,-3.344,-3.5073,-3.6336,-3.6597,-3.7312,0.0,0.0,0.0,0.0,0.0,0.0,0.0,0.0,0.0,0.0,0.0,0.0,0.0,0.0,0.0,0.0,0.0,0.0,0.0,-3.8303,-3.8303,-3.8175,-3.79,-3.79,-3.8018,-3.8292,-3.8735,-3.9055,-3.9252,-3.9442,-3.927,-3.875,-3.875,-3.844,-3.79,-3.79,-3.8193,-3.8707,-3.8707,-3.8707,-3.8707,-3.8707,-3.8707,-3.8707,-3.8707,-3.8707,-3.8707,0.0,0.0,0.0,0.0,0.0,0.0,0.0,0.0,-2.9042,-2.9042,0.0,0.0,0.0,0.0,0.0,-2.9097,-2.8301,-2.7835,-2.7798,-2.778,0.0,0.0,0.0,0.0,-2.8968,-2.7409,-2.6979,-2.775,-2.6961,-2.7769,-3.0081,-3.1243,-3.3085,-3.5317,-3.328,-3.423,-3.7402,-3.7373,-3.6796,-3.5853,-3.5483,-3.5404,-3.5892,-3.959,-4.0068,-3.867,-3.786,-3.6505,-3.4637,-3.1476,-2.9831,-2.8822,-2.7134,-2.5493,-2.419,-2.419,-2.419,-2.419,0.0,0.0,0.0,-2.8271,-2.8895,-2.9757,-3.2889,-3.3642,-3.3935,-3.4766,-3.561,0.0,0.0,0.0,0.0,0.0,0.0,0.0,0.0,0.0,0.0,0.0,0.0,0.0,0.0,0.0,0.0,0.0,0.0,-3.8303,-3.7511,-3.7456,-3.7107,-3.6321,-3.6303,-3.6413,-3.6696,-3.669,-3.6994,-3.7573,-3.7583,-3.7414,-3.709,-3.7101,-3.6813,-3.6303,-3.6303,-3.7184,-3.8634,-3.8652,-3.867,-3.867,-3.8689,-3.8707,-3.8707,-3.8707,-3.8707,-3.8707,0.0,0.0,0.0,0.0,0.0,-3.2063,-3.1488,-3.0522,-2.9879,0.0,0.0,0.0,-2.9886,-3.0081,-3.0118,-2.9886,-2.9133,-2.8429,-2.7842,-2.7255,-2.6924,-2.6924,-2.7695,-2.8136,-2.8136,-2.7126,-2.6722,-2.6924,-2.6127,-2.6072,-2.6751,-2.823,-2.9736,-3.1187,-3.1193,-3.1712,-3.2589,-3.2151,-3.3365,-3.5502,-3.4197,-3.5316,-3.7838,-3.8297,-3.9294,-4.0325,-3.9515,-3.856,-3.7459,-3.5973,-3.3752,-3.1023,-2.7647,-2.5493,-2.419,-2.419,-2.419,-2.419,-2.419,0.0,0.0,0.0,0.0,0.0,0.0,0.0,-3.1586,-3.2986,-3.3917,0.0,0.0,0.0,0.0,0.0,0.0,0.0,0.0,0.0,0.0,0.0,0.0,0.0,0.0,0.0,0.0,0.0,-3.7841,-3.7492,-3.667,-3.6615,-3.6523,-3.6303,-3.6303,-3.6342,-3.6417,-3.6612,-3.677,-3.696,-3.7394,-3.7316,-3.6819,-3.7002,-3.6813,-3.6303,-3.6303,-3.6541,-3.7,-3.7588,-3.7841,-3.7896,-3.8469,-3.8707,-3.8707,-3.8707,-3.8707,-3.8615,0.0,0.0,0.0,-3.3734,-3.3421,-3.2834,-3.2027,-3.1513,-3.1091,0.0,0.0,0.0,-3.1188,-3.0907,-3.0577,-3.0228,-2.9464,-2.8656,-2.7842,-2.7365,-2.6961,-2.6602,-2.7365,-2.7798,-2.7798,-2.7016,-2.6602,-2.6602,-2.5456,-2.4897,-2.4915,-2.587,-2.6839,-2.7808,-2.7929,-2.8364,-2.8922,-2.7904,-2.9724,-3.332,-3.3691,-3.5398,-3.7753,-3.83,-3.9368,-4.0543,-4.0065,-3.9386,-3.8579,-3.7768,-3.5105,-3.1513,-2.8154,-2.6227,-2.5071,-2.4392,-2.4438,-2.464,-2.4281,-2.419,-2.4355,-2.5034,0.0,0.0,-2.6869,-2.7934,0.0,0.0,0.0,0.0,0.0,0.0,0.0,0.0,0.0,0.0,0.0,0.0,0.0,0.0,0.0,0.0,0.0,0.0,0.0,-3.7033,-3.6997,-3.6633,-3.5807,-3.544,-3.5257,-3.5257,-3.5257,-3.5257,-3.5257,-3.5415,-3.5546,-3.5665,-3.6007,-3.5996,-3.5665,-3.5817,-3.5665,-3.5257,-3.5257,-3.5257,-3.5312,-3.6119,-3.667,-3.7052,-3.7514,-3.7698,-3.7698,-3.7698,-3.7698,-3.7624,0.0,0.0,-3.2655,-3.3534,-3.3678,-3.3458,-3.2821,-3.2656,-3.2399,0.0,-3.243,-3.2894,-3.3005,-3.2137,-3.1274,-3.065,-2.9702,-2.8748,-2.7871,-2.7725,-2.7273,-2.6374,-2.709,-2.7541,-2.7541,-2.6833,-2.6465,-2.6465,-2.4942,-2.419,-2.419,-2.419,-2.4585,-2.5227,-2.453,-2.4997,-2.6264,-2.4997,-2.6576,-3.021,-3.3243,-3.5261,-3.667,-3.8817,-3.9806,-4.001,-3.9918,-3.9496,-3.8836,-3.7933,-3.5032,-3.1378,-2.8973,-2.764,-2.6667,-2.4961,-2.5044,-2.5485,-2.4685,-2.4465,-2.4795,-2.6135,-2.5529,0.0,-2.6961,-2.6998,-2.7005,0.0,0.0,0.0,0.0,0.0,0.0,0.0,0.0,0.0,0.0,0.0,0.0,0.0,0.0,0.0,0.0,-3.6303,-3.6266,-3.6156,-3.6064,-3.5679,-3.4912,-3.4192,-3.3807,-3.3807,-3.3807,-3.3807,-3.3807,-3.3807,-3.3928,-3.4159,-3.4195,-3.4176,-3.4159,-3.4195,-3.4056,-3.3807,-3.3807,-3.3807,-3.3862,-3.4564,-3.5371,-3.6174,-3.6266,-3.6303,-3.6303,-3.6303,-3.6303,-3.6285,0.0,-3.0652,-3.1876,-3.2685,-3.2821,-3.2999,-3.3495,-3.3023,-3.3005,-3.4142,-3.4435,-3.4802,-3.5495,-3.366,-3.2559,-3.3054,-3.1182,-2.9347,-2.7897,-2.72,-2.619,-2.4722,-2.5448,-2.587,-2.587,-2.5705,-2.5631,-2.5631,-2.4677,-2.419,-2.419,-2.419,-2.4281,-2.4438,-2.4263,-2.4373,-2.4722,-2.5713,-2.6961,-2.8429,-3.0356,-3.3605,-3.7327,-3.7786,-3.9166,-4.0765,-4.012,-4.0212,-4.0398,-3.8964,-3.66,-3.3885,-3.1458,-3.0155,-2.9053,-2.6796,-2.6704,-2.7155,-2.6355,-2.6135,-2.6043,-2.5723,-2.6366,0.0,-2.5236,-2.5786,-2.6693,0.0,-2.7189,0.0,0.0,0.0,0.0,0.0,0.0,0.0,0.0,0.0,0.0,0.0,0.0,0.0,0.0,-3.6303,-3.6009,-3.5316,-3.4651,-3.4211,-3.4045,-3.3899,-3.3807,-3.3807,-3.3807,-3.3807,-3.3807,-3.3807,-3.3829,-3.3876,-3.4105,-3.4105,-3.3889,-3.4099,-3.4056,-3.3807,-3.3807,-3.3807,-3.3807,-3.3972,-3.4509,-3.5316,-3.6028,-3.6303,-3.6303,-3.6303,-3.6303,-3.6193,-2.9089,-3.0178,-3.1422,-3.2428,-3.2931,-3.333,-3.3733,-3.3793,-3.4087,-3.4894,-3.5371,-3.5646,-3.5646,-3.4192,-3.3036,-3.2632,-3.1127,-2.9347,-2.7328,-2.6833,-2.5878,-2.4263,-2.497,-2.5393,-2.5393,-2.5393,-2.5393,-2.5393,-2.4585,-2.419,-2.419,-2.419,-2.441,-2.4787,-2.4373,-2.441,-2.4824,-2.5236,-2.6098,-2.7475,-3.0705,-3.3972,-3.6997,-3.7804,-3.9093,-4.0396,-3.9588,-3.957,-3.9591,-3.7536,-3.5756,-3.405,-3.2027,-3.0852,-2.9879,-2.8271,-2.8069,-2.8136,-2.6943,-2.6602,-2.6502,-2.6098,-2.6311,0.0,0.0,-2.5107,-2.564,-2.6418,-2.6282,-2.6484,0.0,0.0,0.0,0.0,0.0,0.0,0.0,0.0,0.0,0.0,0.0,0.0,0.0,-3.4449,-3.4449,-3.4399,-3.4027,-3.3807,-3.3807,-3.3807,-3.3807,-3.3807,-3.3421,-3.3201,-3.3201,-3.2797,-3.2596,-3.2596,-3.2736,-3.2736,-3.2627,-3.316,-3.332,-3.322,-3.3623,-3.3807,-3.3807,-3.3807,-3.4045,-3.4435,-3.489,-3.5055,-3.5055,-3.5055,-3.5055,-3.4981,-2.871,-2.9659,-3.0821,-3.1944,-3.2797,-3.344,-3.3752,-3.4344,-3.4876,-3.5206,-3.6009,-3.6321,-3.5775,-3.4857,-3.388,-3.2902,-3.1494,-2.9843,-2.7868,-2.7181,-2.619,-2.4722,-2.4989,-2.5246,-2.5393,-2.5246,-2.5172,-2.5172,-2.453,-2.419,-2.419,-2.419,-2.4548,-2.5154,-2.4658,-2.4879,-2.5595,-2.4942,-2.586,-2.8088,-3.2008,-3.4284,-3.5569,-3.7496,-3.8634,-3.9148,-3.8817,-3.8707,-3.8358,-3.6032,-3.4821,-3.3935,-3.2021,-3.1164,-3.065,-2.9372,-2.9225,-2.9115,-2.7501,-2.717,-2.717,-2.6712,-2.6465,-2.6127,0.0,0.0,0.0,-2.5933,-2.5621,0.0,0.0,0.0,0.0,0.0,0.0,0.0,0.0,0.0,0.0,0.0,0.0,0.0,0.0,-3.2085,-3.2402,-3.3275,-3.3143,-3.3111,-3.333,-3.3476,-3.3495,-3.333,-3.2871,-3.2528,-3.2375,-3.1715,-3.1397,-3.1397,-3.1397,-3.1397,-3.1415,-3.2063,-3.2375,-3.2399,-3.3054,-3.3421,-3.3568,-3.3568,-3.366,-3.3807,-3.3807,-3.3807,-3.3807,-3.3807,-3.3807,-3.3807,-2.7343,-2.8385,-2.9471,-3.0326,-3.1127,-3.2149,-3.3587,-3.388,-3.4468,-3.5954,-3.6868,-3.7603,-3.8212,-3.6927,-3.6523,-3.7771,-3.4472,-3.2216,-3.194,-2.9255,-2.7255,-2.6374,-2.5052,-2.4677,-2.5374,-2.4695,-2.4337,-2.4337,-2.4245,-2.419,-2.419,-2.419,-2.4245,-2.4355,-2.4989,-2.5705,-2.6465,-2.6374,-2.8491,-3.1977,-3.2509,-3.243,0.0,-3.5385,-3.6633,-3.6872,-3.823,-3.8707,-3.845,0.0,-3.6083,-3.5477,0.0,-3.232,-3.2816,-2.9867,-3.0008,-3.0779,-2.9152,-2.9244,0.0,0.0,-2.8136,0.0,0.0,0.0,-2.597,-2.4722,0.0,0.0,0.0,0.0,0.0,0.0,0.0,0.0,0.0,0.0,0.0,0.0,0.0,0.0,0.0,0.0,-3.049,-3.1592,-3.073,-3.0613,-3.1623,-3.2357,-3.2412,-3.1709,-3.2284,-3.2265,-3.1544,-3.1452,-3.1397,-3.1397,-3.1397,-3.1397,-3.1397,-3.1488,-3.1544,-3.1544,-3.1635,-3.2082,-3.2729,-3.2729,-3.3151,-3.3807,-3.3807,-3.3807,-3.3807,-3.3807,-3.3807,-3.3807,-2.6381,-2.748,-2.8411,-2.8741,-2.9861,-3.1091,-3.2228,-3.4426,-3.6042,-3.6266,-3.7404,-3.8322,-3.867,-3.7679,-3.7088,-3.7294,-3.5734,-3.3935,-3.2027,-3.0191,-2.8833,-2.8033,-2.6007,-2.5264,-2.608,-2.485,-2.419,-2.419,-2.419,-2.419,-2.419,-2.419,-2.4704,-2.5603,-2.5952,-2.6796,-2.7959,-2.7493,-2.8264,-2.9861,0.0,-3.0308,0.0,-3.5734,-3.7698,-3.7661,-3.7404,-3.7606,-3.7694,0.0,-3.4541,0.0,0.0,0.0,0.0,-3.1207,-3.0913,-3.0448,0.0,0.0,0.0,0.0,0.0,0.0,-2.5485,0.0,-2.5144,0.0,0.0,0.0,0.0,0.0,0.0,0.0,-2.4493,0.0,0.0,0.0,0.0,0.0,0.0,0.0,0.0,0.0,0.0,0.0,0.0,-3.0198,-3.0687,-3.1476,-3.1751,-3.1415,-3.1274,-3.1054,-3.0705,-3.0246,-3.0008,-3.0008,-3.0008,-3.0008,-3.0026,-3.0485,-3.0705,-3.0723,-3.1213,-3.1586,-3.1898,-3.1898,-3.21,-3.2412,-3.2412,-3.2981,-3.3807,-3.3807,-3.3807,-3.3807,-2.5407,-2.6571,-2.7475,-2.7475,-2.8796,-3.0301,-3.1531,-3.4247,-3.6174,-3.6285,-3.7312,-3.8285,-3.8964,-3.8521,-3.8098,-3.7955,-3.7331,-3.5954,-3.355,-3.1604,-3.0375,-2.9996,-2.7255,-2.6109,-2.6906,-2.5346,-2.441,-2.419,-2.419,-2.419,-2.419,-2.419,-2.4814,-2.597,-2.6631,-2.7703,-2.8987,-2.8613,-2.8962,-2.9787,-2.9922,-3.0399,-3.1463,-3.5734,-3.7643,-3.79,-3.6725,-3.667,-3.6831,-3.4559,-3.3421,0.0,-3.3091,0.0,-3.0999,0.0,0.0,0.0,-2.928,0.0,0.0,0.0,0.0,0.0,0.0,0.0,0.0,0.0,0.0,0.0,0.0,0.0,-2.4456,-2.4245,0.0,-2.419,0.0,0.0,0.0,0.0,0.0,0.0,0.0,0.0,0.0,0.0,0.0,0.0,-2.95,-3.0301,-3.0742,-3.0742,-3.0393,-3.0099,-2.9879,-2.9299,-2.9005,-2.9005,-2.9005,-2.9005,-2.9023,-2.9592,-2.9879,-2.9898,-3.0485,-3.087,-3.1072,-3.1072,-3.1213,-3.1397,-3.1397,-3.21,-3.3128,-3.3128,-3.3128,-3.3128,-2.4253,-2.5538,-2.6638,-2.6638,-2.7959,-2.9831,-3.2197,-3.2674,-3.3623,-3.5991,-3.634,-3.7257,-3.9606,-3.9827,-4.0432,-4.1974,-3.9974,-3.8579,-3.8469,-3.4009,-3.1696,-3.2454,-2.8675,-2.6943,-2.7732,-2.6182,-2.497,-2.419,-2.419,-2.419,-2.419,-2.419,-2.4226,-2.4373,-2.6722,-2.8227,-2.906,-2.9794,-3.1922,-3.4637,-3.3096,-3.3917,-3.5899,0.0,-3.4963,-3.6376,-3.6321,0.0,0.0,-3.4376,-3.377,0.0,0.0,0.0,0.0,0.0,0.0,0.0,0.0,0.0,0.0,-2.7226,0.0,0.0,0.0,0.0,-2.6098,0.0,0.0,0.0,0.0,-2.486,-2.5099,-2.4318,-2.419,0.0,0.0,0.0,0.0,0.0,0.0,0.0,0.0,0.0,0.0,0.0,0.0,0.0,-2.7776,-2.865,-2.9078,-2.9078,-2.9812,-2.9831,-2.906,-2.9005,-2.9005,-2.9005,-2.9005,-2.9005,-2.9005,-2.9023,-2.9042,-2.9042,-2.9078,-2.9519,-3.0246,-3.0246,-3.0705,-3.1397,-3.1397,-3.1433,-3.1488,-3.1488,-3.1488,-3.1488,-2.4897,-2.4997,-2.5016,-2.5016,-2.6778,-2.9017,-3.1439,-3.3642,-3.5532,-3.6905,-3.8025,-3.9386,-4.1277,-4.1497,-4.1717,-4.2249,-4.1552,-4.0634,-3.9551,-3.645,-3.5,-3.5822,-3.1439,-2.9365,-3.0166,-2.8092,-2.6329,-2.4989,-2.4989,-2.4713,-2.419,-2.419,-2.4483,-2.5081,-2.6972,-2.8539,-2.9861,-3.065,-3.1623,-3.2577,0.0,-3.2944,-3.4633,0.0,0.0,-3.6156,-3.5037,-3.5,0.0,-3.4174,-3.3458,-3.2999,-3.2981,-3.243,-3.1696,-3.1146,-3.0797,0.0,0.0,0.0,-2.9751,-2.786,0.0,0.0,0.0,0.0,0.0,0.0,0.0,0.0,0.0,-2.441,-2.453,-2.4245,-2.419,-2.419,0.0,0.0,0.0,0.0,0.0,0.0,0.0,0.0,0.0,0.0,0.0,0.0,0.0,-2.7475,-2.8209,-2.8209,-2.8987,-2.928,-2.9005,-2.9005,-2.9005,-2.9005,-2.9005,-2.9005,-2.9005,-2.9005,-2.9005,-2.9005,-2.9005,-2.9152,-2.9409,-2.9409,-2.9574,-2.9812,-2.9812,-2.9812,-2.9953,-3.0999,-3.1397,-3.1397,-2.5301,-2.475,-2.4281,-2.4585,-2.6403,-2.8606,-3.1029,-3.3935,-3.6248,-3.7345,-3.8906,-4.0506,-4.2121,-4.2304,-4.2415,-4.269,-4.247,-4.1625,-4.001,-3.7915,-3.6831,-3.707,-3.3476,-3.1586,-3.1825,-3.0008,-2.8018,-2.5833,-2.5833,-2.5283,-2.419,-2.419,-2.4493,-2.5062,-2.6953,-2.8521,-2.9849,-3.1237,-3.199,0.0,0.0,-3.2871,0.0,0.0,-3.4926,-3.5275,0.0,-3.4137,-3.4491,-3.3972,-3.3458,-3.3128,-3.3642,-3.2889,-3.177,-3.1488,-3.0834,-3.0026,-2.9225,-2.9372,0.0,-2.8136,-2.7798,0.0,-2.576,0.0,0.0,0.0,0.0,0.0,0.0,-2.4814,-2.464,-2.464,-2.4401,-2.419,0.0,-2.419,0.0,0.0,0.0,0.0,0.0,0.0,-2.4677,-2.4952,-2.4713,0.0,0.0,0.0,-2.7493,-2.7787,-2.8583,-2.9005,-2.9005,-2.9005,-2.9005,-2.9005,-2.9005,-2.9005,-2.9005,-2.9005,-2.9005,-2.9005,-2.9005,-2.9005,-2.9005,-2.9005,-2.9005,-2.9005,-2.9005,-2.9005,-2.9133,-3.0173,-3.0558,-3.0595,-2.5448,-2.4915,-2.4667,-2.5448,-2.6843,-2.8668,0.0,0.0,-3.5573,0.0,-3.8943,-4.0524,-4.2176,-4.2359,-4.2671,-4.3441,-4.28,-4.1717,-4.0175,-3.8539,-3.7309,-3.656,-3.4853,-3.355,-3.2729,-3.188,-2.9898,-2.6712,-2.6638,-2.5805,-2.4263,-2.4208,-2.419,-2.43,-2.6631,-2.8154,-2.9097,-3.1427,-3.2931,-3.3733,-3.377,-3.3807,-3.3807,-3.3807,-3.3807,-3.3807,-3.3807,-3.3807,-3.3807,-3.3807,-3.3807,-3.3788,-3.3752,-3.322,-3.2417,-3.1586,-3.0797,-3.0026,-2.9225,-2.9005,-2.8822,-2.8044,0.0,0.0,0.0,0.0,-2.7357,0.0,0.0,0.0,0.0,0.0,-2.5393,-2.5338,-2.4695,-2.419,-2.419,-2.419,0.0,0.0,0.0,0.0,-2.4135,-2.3483,-2.3354,-2.408,-2.3474,-2.3731,0.0,0.0,-2.6888,-2.7669,-2.8455,-2.8895,-2.895,-2.895,-2.8968,-2.9005,-2.9005,-2.9005,-2.9005,-2.9005,-2.9005,-2.9005,-2.9005,-2.9005,-2.9005,-2.9005,-2.9005,-2.9005,-2.9005,-2.9005,-2.9005,-2.9005,-2.9005,-2.9115,-2.6172,-2.7079,-2.7831,-2.8033,-2.8418,-2.95,0.0,0.0,0.0,0.0,-3.9258,-4.0726,-4.2947,-4.3185,-4.3277,-4.3478,-4.3296,-4.3019,-4.2598,-4.0522,-3.946,-3.9848,-3.7165,-3.5257,-3.4399,-3.3005,-3.1005,-2.8381,-2.7189,-2.608,-2.5081,-2.4493,-2.419,-2.4245,-2.5466,-2.6806,-2.8191,-2.9409,-3.1078,-3.2949,-3.3568,-3.3807,0.0,0.0,-3.3807,-3.3807,-3.3807,-3.3807,-3.3807,-3.3807,-3.3807,-3.3697,-3.3096,-3.2766,-3.2307,-3.0925,-3.0356,-3.0026,-2.9225,-2.9005,-2.895,-2.873,-2.8246,-2.7688,0.0,0.0,0.0,0.0,0.0,0.0,0.0,0.0,0.0,-2.4622,-2.4318,-2.419,-2.419,-2.419,0.0,-2.419,0.0,0.0,0.0,-2.3657,-2.3731,-2.3336,-2.3676,0.0,0.0,0.0,0.0,-2.6017,-2.6796,-2.7501,-2.8099,-2.8117,-2.8411,-2.9005,-2.9005,-2.9005,-2.9005,-2.9005,-2.9005,-2.9005,-2.9005,-2.9005,-2.9005,-2.9005,-2.9005,-2.9005,-2.9005,-2.9005,-2.9005,-2.9005,-2.9005,-2.9023,-2.7482,-2.8656,-2.9629,-2.9989,0.0,0.0,-3.2871,-3.4137,0.0,-3.7881,-3.9166,0.0,-4.2268,-4.2763,-4.2983,-4.2983,-4.3313,0.0,-4.1479,-4.0781,-4.0157,-3.9551,-3.8138,-3.6945,-3.6119,-3.4871,-3.2687,-2.9519,-2.8271,-2.6704,-2.4879,-2.441,-2.419,-2.4245,-2.5044,-2.6292,-2.7897,-2.942,-3.1041,-3.2638,-3.3091,0.0,0.0,-3.3807,-3.3807,-3.3807,-3.3807,-3.3807,-3.3807,-3.3807,-3.3807,-3.366,-3.2839,-3.2362,-3.1825,-3.0577,-2.9941,-2.9574,-2.9115,-2.9005,-2.9005,-2.9005,-2.8656,-2.8227,-2.789,-2.7798,-2.7658,0.0,0.0,0.0,0.0,0.0,0.0,-2.4318,-2.419,-2.419,-2.419,-2.419,-2.419,0.0,-2.419,0.0,0.0,0.0,-2.3639,-2.3529,0.0,0.0,0.0,0.0,0.0,-2.5393,-2.6172,-2.6814,-2.7273,-2.7622,-2.7842,-2.7959,-2.8308,-2.8484,-2.8484,-2.8484,-2.8675,-2.9005,-2.9005,-2.9005,-2.9005,-2.9005,-2.9005,-2.9005,-2.9005,-2.9005,-2.9005,-2.9005,-2.9005,-2.9005,-2.9005,-2.9959,-3.0852,0.0,0.0,0.0,0.0,-3.5349,0.0,-3.7547,0.0,-4.0212,-4.1003,-4.1735,-4.2139,-4.2139,-4.2782,-4.1992,-3.9203,-4.0215,-4.001,-3.7915,-3.8377,-3.8322,-3.7529,-3.6597,-3.4229,-3.0356,-2.9335,-2.7299,-2.4355,-2.4245,-2.419,-2.4226,-2.4934,-2.6146,-2.7798,-3.0222,-3.1715,-3.2454,-3.2674,-3.3183,-3.3807,-3.3807,-3.3807,-3.3807,-3.3807,-3.3807,-3.3807,-3.3807,-3.3733,-3.3495,-3.2706,-3.1898,-3.1085,-3.0283,-2.9537,-2.9005,-2.9005,-2.9005,-2.9005,-2.9005,-2.9005,-2.8822,-2.8117,-2.7952,-2.7952,-2.7952,-2.7402,-2.7299,0.0,0.0,0.0,-2.4318,-2.419,-2.419,-2.419,-2.419,-2.419,-2.419,0.0,0.0,0.0,0.0,0.0,0.0,0.0,0.0,0.0,0.0,0.0,0.0,-2.5915,0.0,-2.6447,0.0,-2.7181,-2.6602,-2.731,-2.764,-2.764,-2.764,-2.8026,-2.8693,-2.8803,-2.8785,-2.8712,-2.8913,-2.9005,-2.9005,-2.9005,-2.9005,-2.9005,-2.9005,-2.9005,-2.9005,-2.9843,-3.1715,-3.2999,0.0,0.0,-3.4876,-3.5734,-3.6101,-3.6835,-3.8303,-3.9313,-4.0212,-4.1003,-4.1224,-4.1297,-4.1297,-4.1425,0.0,0.0,0.0,0.0,-3.9512,-3.8982,-3.8322,-3.7529,-3.6009,-3.3885,-3.1195,-2.9053,-2.7045,-2.5172,-2.4511,-2.419,-2.4208,-2.4337,-2.5291,-2.6979,-2.9384,0.0,-3.1733,-3.3054,-3.3678,-3.3807,-3.3807,-3.3807,-3.3807,-3.3807,-3.3807,-3.3807,-3.3807,-3.3366,-3.2669,-3.1861,-3.1054,-3.0246,-2.9445,-2.9115,-2.9005,-2.9005,-2.9005,-2.9005,-2.9005,-2.9005,-2.8968,-2.8822,-2.8785,-2.8785,-2.8785,-2.8675,-2.8455,-2.8081,0.0,0.0,0.0,0.0,0.0,0.0,-2.419,-2.419,-2.419,0.0,-2.4135,0.0,0.0,0.0,0.0,0.0,0.0,0.0,0.0,0.0,0.0,0.0,0.0,0.0,0.0,0.0,-2.6602,-2.6741,-2.6814,-2.6814,-2.6814,-2.6888,-2.706,-2.7714,-2.764,-2.7115,-2.8455,-2.9005,-2.9005,-2.9005,-2.9005,-2.9005,-2.9005,-2.9005,-2.9005,-3.1372,-3.2394,-3.3316,-3.3775,0.0,0.0,0.0,-3.7276,0.0,-3.8028,-3.841,-3.8946,-3.9756,-4.023,-4.0487,-4.0487,-4.0857,-4.0747,-3.9918,-3.9882,-3.9698,-3.9294,-3.8909,-3.8524,-3.812,-3.6505,-3.4266,-3.1397,-2.9402,-2.7163,-2.4768,-2.4373,-2.419,-2.4245,-2.5071,-2.5878,0.0,0.0,0.0,-3.1507,-3.2706,-3.344,-3.3807,-3.3807,-3.3807,-3.3807,-3.3807,-3.3807,-3.3807,-3.3807,-3.3275,-3.2454,-3.1641,-3.0852,-3.0044,-2.9244,-2.9005,-2.9005,-2.9005,-2.9005,-2.9005,-2.9005,-2.9005,-2.9005,-2.9005,-2.8675,-2.8503,-2.8913,-2.8675,-2.8264,-2.786,-2.6476,0.0,0.0,0.0,0.0,0.0,0.0,-2.419,-2.419,-2.419,-2.419,0.0,0.0,0.0,0.0,0.0,0.0,0.0,0.0,0.0,0.0,0.0,0.0,0.0,0.0,0.0,-2.5364,-2.5768,-2.597,-2.597,-2.597,-2.6209,-2.662,-2.7016,-2.6961,-2.6693,-2.7897,-2.8374,-2.8374,-2.8374,-2.862,-2.895,-2.8539,-2.8638,-2.9005,-3.3078,-3.3261,0.0,0.0,-3.5426,0.0,-3.7309,-3.8175,-3.8469,-3.7841,-3.7768,-3.7991,-3.8634,-3.9276,-3.9643,-3.9643,-4.023,-4.0049,-3.8781,-3.9294,-3.935,-3.8726,-3.8707,-3.8615,-3.845,-3.7037,-3.4688,0.0,0.0,-2.7427,-2.4447,-2.4281,-2.4281,0.0,0.0,0.0,0.0,0.0,-3.065,-3.1488,-3.2467,-3.3238,-3.3807,-3.3807,-3.3807,-3.377,-3.3605,-3.3642,-3.3752,-3.3403,-3.2871,-3.2228,-3.1599,-3.0723,-2.9824,-2.9189,-2.9005,-2.9005,-2.9005,-2.9005,-2.9005,-2.9005,-2.9005,-2.9005,-2.9005,-2.8374,-2.797,-2.8601,-2.8099,-2.7493,-2.7321,-2.6256,0.0,0.0,0.0,0.0,0.0,0.0,-2.419,-2.419,-2.4043,-2.4006,-2.4171,0.0,0.0,0.0,0.0,0.0,0.0,0.0,0.0,0.0,0.0,-2.419,-2.419,0.0,-2.4824,0.0,-2.4842,-2.5136,-2.5136,-2.5136,-2.5503,-2.6098,-2.6264,-2.6447,-2.6649,-2.709,-2.7394,-2.753,-2.753,-2.7934,-2.8418,-2.7787,-2.7952,-2.8491,0.0,0.0,0.0,0.0,0.0,0.0,-3.7474,-3.8175,-3.867,-3.8597,-3.8597,-3.8615,-3.8689,-3.8781,-3.8817,-3.8817,-3.8891,-3.8872,-3.8707,-3.8781,-3.8781,-3.8707,-3.8707,-3.8358,-3.7621,-3.6758,-3.4688,0.0,0.0,-2.7732,-2.5264,-2.4548,0.0,0.0,0.0,0.0,0.0,-2.9494,-3.065,-3.1525,-3.3073,-3.3733,-3.3807,-3.3807,-3.3807,-3.3697,-3.2981,-3.3183,-3.3587,-3.2131,-3.158,-3.1507,-3.1415,-3.0356,-2.9097,-2.9023,-2.9005,-2.9005,-2.9005,-2.9005,-2.9005,-2.9005,-2.9005,-2.9005,-2.9005,-2.8374,-2.7824,-2.7897,-2.7273,-2.6484,-2.576,-2.5503,-2.5191,0.0,0.0,0.0,0.0,0.0,-2.419,-2.419,-2.3566,-2.3391,0.0,0.0,0.0,0.0,0.0,0.0,0.0,0.0,0.0,-2.419,0.0,-2.419,-2.419,-2.4263,0.0,-2.419,-2.4281,-2.43,-2.43,-2.43,-2.4355,-2.4465,-2.5209,-2.5925,-2.6557,-2.5888,-2.6054,-2.6722,-2.6722,-2.6749,-2.6822,-2.6741,-2.6749,-2.6822,0.0,0.0,0.0,0.0,0.0,0.0,0.0,-3.8487,-3.8707,-3.8707,-3.8707,-3.8707,-3.8707,-3.8707,-3.8707,-3.8707,-3.8707,-3.8707,-3.8707,-3.8248,-3.8193,-3.8689,-3.7771,-3.7331,-3.7492,-3.6193,-3.4399,0.0,0.0,0.0,0.0,0.0,0.0,0.0,0.0,-2.7915,-2.8656,-3.0748,-3.1843,-3.2228,-3.3348,-3.3807,-3.3807,-3.3807,-3.3807,-3.3752,-3.344,-3.3532,-3.3697,-3.3054,-3.2192,-3.1323,-3.0834,-2.9916,-2.9005,-2.9005,-2.9005,-2.9005,-2.9005,-2.9123,-2.9081,-2.8437,-2.8378,-2.8297,-2.7691,-2.6943,-2.6494,-2.6979,-2.6429,-2.5944,-2.608,-2.5328,-2.4897,0.0,0.0,0.0,0.0,0.0,0.0,-2.419,-2.3914,-2.3859,0.0,0.0,0.0,0.0,0.0,0.0,0.0,0.0,0.0,-2.3492,0.0,-2.419,-2.419,-2.419,-2.419,-2.419,-2.419,-2.419,-2.419,-2.419,-2.419,-2.4208,-2.4548,-2.485,-2.5162,-2.5338,-2.5595,-2.5888,-2.5888,-2.6172,-2.6539,-2.6062,-2.619,-2.6602,-3.6611,0.0,-3.6193,0.0,-3.7367,-3.7386,-3.8524,-3.8707,-3.8707,-3.8707,-3.8707,-3.8707,-3.8707,-3.8707,-3.8707,-3.8707,-3.8707,-3.8707,-3.8707,-3.7936,-3.786,-3.867,-3.7165,0.0,-3.7125,-3.5752,-3.4215,-3.2601,-3.1237,0.0,0.0,0.0,0.0,0.0,-2.884,-2.9482,-2.9831,-3.1775,-3.2601,-3.2674,-3.3476,-3.3807,-3.3807,-3.3807,-3.3807,-3.377,-3.3532,-3.3653,-3.3854,-3.3375,-3.2674,-3.1821,-3.0958,-2.9952,-2.9134,-2.9185,-2.9171,-2.9123,-2.9123,-2.9211,-2.9106,-2.8338,-2.8078,-2.783,-2.7114,-2.6146,-2.5485,-2.5823,-2.5438,-2.5227,-2.5786,-2.4961,-2.4575,-2.5713,0.0,0.0,0.0,-2.4566,0.0,-2.419,-2.3988,-2.3933,-2.4171,0.0,0.0,0.0,0.0,0.0,0.0,0.0,0.0,0.0,0.0,0.0,0.0,-2.419,-2.419,-2.419,-2.419,-2.419,-2.419,-2.419,-2.419,-2.419,-2.419,-2.419,-2.4245,-2.4805,-2.5044,-2.5044,-2.5044,-2.5383,-2.5823,-2.5264,-2.5411,-2.5897,-3.7327,-3.7474,-3.7731,-3.8542,-3.8689,-3.8689,-3.8707,-3.8707,-3.8707,-3.8707,-3.8707,-3.8707,-3.8707,-3.8707,-3.8707,-3.8707,-3.8707,-3.8707,-3.8707,-3.7936,-3.786,0.0,0.0,-3.6303,-3.6303,-3.5445,-3.4215,-3.2601,0.0,0.0,-3.0155,0.0,-2.939,-3.0155,-3.0173,-3.0632,-3.1415,-3.2247,-3.2601,-3.2674,-3.3476,-3.3807,-3.3807,-3.3807,-3.3807,-3.3697,-3.2894,-3.3309,-3.3946,-3.2359,-3.2524,-3.3184,-3.2115,-3.0677,-2.9434,-2.9625,-2.9542,-2.9402,-2.9402,-2.9192,-2.9005,-2.8987,-2.8393,-2.7798,-2.7798,-2.6549,-2.5172,-2.4392,-2.4226,-2.4208,-2.4226,-2.4208,-2.4208,-2.4226,0.0,0.0,0.0,-2.4208,0.0,-2.419,-2.3511,-2.3318,-2.4116,0.0,0.0,0.0,0.0,0.0,0.0,0.0,0.0,-2.4153,-2.419,0.0,-2.419,-2.419,-2.419,-2.419,-2.419,-2.419,-2.419,-2.419,-2.419,-2.419,-2.419,-2.419,-2.419,-2.4208,-2.4208,-2.4208,-2.4208,-2.4226,-2.4226,-2.4208,-2.4226,-2.4226,-3.8267,-3.8322,-3.8395,-3.867,-3.8707,-3.8524,-3.797,-3.834,-3.8505,-3.7936,-3.8358,-3.8707,-3.8707,-3.8707,-3.8707,0.0,-3.8707,-3.8707,0.0,-3.7422,-3.7037,-3.786,-3.5771,-3.4853,-3.5389,-3.4601,-3.3935,-3.3421,0.0,0.0,0.0,-3.076,-3.076,-3.1035,-3.1586,-3.1977,-3.2284,-3.3091,-3.3515,-3.371,-3.3969,-3.4213,-3.4409,-3.4409,-3.4409,-3.439,-3.4128,-3.4239,-3.4433,-3.3683,-3.331,-3.3098,-3.2947,-3.1657,-3.0083,-2.9418,-2.9181,-2.9134,-2.9134,-2.9211,-2.8966,-2.7684,-2.7274,-2.6857,-2.5635,-2.4952,-2.4511,-2.4245,-2.419,-2.419,-2.419,-2.419,-2.419,-2.419,-2.419,0.0,0.0,0.0,-2.419,-2.419,-2.3969,-2.3914,0.0,-2.3235,0.0,0.0,0.0,0.0,0.0,0.0,0.0,0.0,-2.3914,0.0,-2.419,-2.419,-2.419,-2.419,-2.419,-2.419,-2.419,-2.419,-2.419,-2.419,-2.419,-2.419,-2.419,-2.419,-2.419,-2.419,-2.419,-2.419,-2.419,-2.419,-2.419,-2.419,-3.8707,-3.8707,-3.8707,-3.8707,-3.8707,-3.8432,-3.7621,-3.8175,-3.8414,-3.7603,-3.8193,-3.8707,-3.8707,-3.8707,0.0,-3.8707,-3.8707,-3.8707,-3.8707,-3.7184,-3.6666,-3.7456,-3.511,-3.4192,-3.4986,0.0,0.0,-3.3807,-3.3311,-3.2797,-3.2302,-3.2302,-3.236,-3.2465,-3.297,-3.3272,-3.3412,-3.3913,-3.4237,-3.439,-3.439,-3.4518,-3.4694,-3.4694,-3.4694,-3.4694,-3.4694,-3.4694,-3.4663,-3.4456,-3.413,-3.3679,-3.3127,-3.2203,-3.1158,-3.0167,-2.9524,-2.916,-2.9249,-2.9332,-2.915,-2.803,-2.7634,-2.7043,-2.5279,-2.4641,-2.441,-2.4339,-2.4375,-2.441,-2.433,-2.4312,-2.4312,-2.4312,-2.4256,-2.419,-2.419,0.0,-2.419,0.0,0.0,0.0,0.0,-2.3749,0.0,0.0,0.0,0.0,0.0,0.0,0.0,-2.3428,-2.3933,0.0,-2.419,-2.419,-2.419,-2.419,-2.419,-2.419,-2.419,-2.419,-2.419,-2.419,-2.419,-2.419,-2.419,-2.419,-2.419,-2.419,-2.419,-2.419,-2.419,-2.419,-2.419,-2.419,-3.8689,-3.867,0.0,0.0,-3.867,0.0,-3.7547,-3.8138,-3.8414,-3.7603,-3.8193,-3.8707,-3.8707,-3.8707,-3.8707,-3.8707,0.0,0.0,0.0,-3.7165,-3.6611,-3.7309,-3.5055,-3.4156,-3.4912,-3.4192,-3.382,-3.3829,-3.3829,-3.3842,-3.3868,-3.3868,-3.3999,-3.4223,-3.4223,-3.4401,-3.4694,-3.4694,-3.4704,-3.4724,-3.4724,-3.4724,-3.4724,-3.4724,-3.4724,-3.4724,-3.4724,-3.4734,-3.4744,-3.4724,-3.4898,-3.4785,-3.2976,-3.2488,-3.2397,-3.1455,-3.0344,-2.9464,-2.9643,-2.9561,-2.9455,-2.9577,-2.8976,-2.7916,-2.6359,-2.5389,-2.4746,-2.4569,-2.467,-2.4746,-2.4561,-2.4512,-2.4503,-2.4503,-2.4339,-2.419,-2.419,0.0,0.0,0.0,0.0,0.0,0.0,-2.419,-2.419,0.0,0.0,0.0,0.0,0.0,-2.3437,-2.4171,-2.419,-2.419,-2.419,-2.419,-2.419,-2.419,-2.419,-2.419,-2.419,-2.419,-2.419,-2.419,-2.419,-2.419,-2.419,-2.419,-2.419,-2.419,-2.419,-2.419,-2.419,-2.419,-2.419,-2.419,0.0,0.0,-3.7786,-3.7786,-3.8285,-3.823,-3.6798,-3.779,-3.8414,-3.7603,-3.8193,-3.8707,-3.8707,-3.8707,-3.8707,-3.8707,-3.8707,-3.8432,-3.7823,-3.6835,-3.6083,-3.561,-3.4449,-3.3899,-3.4082,-3.3899,-3.3902,-3.4117,-3.4117,-3.4249,-3.4494,-3.4494,-3.4508,-3.4572,-3.4572,-3.4632,-3.4694,-3.4694,-3.4832,-3.4999,-3.4999,-3.4999,-3.4999,-3.4999,-3.4999,-3.4999,-3.4999,-3.513,-3.5281,-3.5079,-3.5053,-3.502,-3.4568,-3.3446,-3.2002,-3.0509,-2.9864,-2.9634,-2.9687,-2.9661,-2.9483,-2.893,-2.7681,-2.6492,-2.6088,-2.5389,-2.479,-2.4738,-2.4768,-2.479,-2.4738,-2.4599,-2.4503,-2.4503,-2.4339,-2.419,-2.419,-2.419,0.0,0.0,-2.419,-2.419,-2.419,-2.419,-2.419,0.0,0.0,0.0,0.0,0.0,-2.4006,-2.419,-2.419,-2.419,-2.419,-2.419,-2.419,-2.419,-2.419,-2.419,-2.419,-2.419,-2.419,-2.419,-2.419,-2.419,-2.419,-2.419,-2.419,-2.419,-2.419,-2.419,-2.419,-2.419,-2.419,-2.419,-3.7496,-3.7547,-3.7382,-3.7015,-3.7606,-3.7606,-3.5973,-3.7092,-3.7845,-3.707,-3.7973,-3.8707,-3.8707,-3.8707,-3.8707,-3.8707,-3.8358,-3.797,-3.7529,-3.6376,-3.5481,-3.5023,-3.4215,-3.3868,-3.3986,-3.3986,-3.4129,-3.4423,-3.4423,-3.4529,-3.4694,-3.4694,-3.4773,-3.4889,-3.4889,-3.4954,-3.507,-3.507,-3.5138,-3.5289,-3.5289,-3.5289,-3.5289,-3.5289,-3.5289,-3.5289,-3.5289,-3.5297,-3.5297,-3.5138,-3.5105,-3.5028,-3.4628,-3.3582,-3.2278,-3.0982,-3.0176,-2.9722,-2.9813,-2.9837,-2.9747,-2.9443,-2.8393,-2.742,-2.742,-2.642,-2.5458,-2.5366,-2.5355,-2.5235,-2.4872,-2.4942,-2.4949,-2.4671,-2.4469,-2.4312,-2.4209,-2.4275,0.0,-2.4209,-2.419,-2.419,-2.419,-2.419,-2.419,-2.419,0.0,0.0,-2.419,-2.419,-2.419,-2.419,-2.419,-2.419,-2.419,-2.419,-2.419,-2.419,-2.419,-2.419,-2.419,-2.419,-2.419,-2.419,-2.419,-2.419,-2.419,-2.419,-2.419,-2.419,-2.419,-2.419,-2.419,-2.419,-2.419,-2.419,-3.656,-3.6831,-3.6923,-3.6211,-3.6795,-3.678,-3.5243,-3.647,-3.7323,-3.6642,-3.7882,-3.8796,-3.8652,-3.8634,-3.8597,-3.8472,-3.7712,-3.7292,-3.7378,-3.6081,-3.5205,-3.4966,-3.4302,-3.4049,-3.4258,-3.4288,-3.4434,-3.4754,-3.4754,-3.4774,-3.4813,-3.4813,-3.4944,-3.5147,-3.5147,-3.5289,-3.55,-3.55,-3.55,-3.55,-3.55,-3.5486,-3.5439,-3.5439,-3.5439,-3.5439,-3.5439,-3.5312,-3.5147,-3.5147,-3.5147,-3.504,-3.4296,-3.3511,-3.2776,-3.2083,-3.0892,-2.9848,-2.9999,-3.0068,-3.0122,-3.0349,-2.9737,-2.9069,-2.8953,-2.7589,-2.6301,-2.6136,-2.6098,-2.5875,-2.5203,-2.546,-2.5579,-2.4924,-2.4678,-2.4486,-2.4321,0.0,-2.4478,-2.4312,-2.4284,-2.4275,-2.4256,-2.4247,-2.4237,-2.4199,-2.419,-2.419,0.0,-2.419,-2.419,-2.419,-2.419,-2.419,-2.419,-2.419,-2.419,-2.419,-2.419,-2.419,-2.419,-2.419,-2.419,-2.419,-2.419,-2.419,-2.419,-2.419,-2.419,-2.419,-2.419,-2.419,-2.419,-2.419,-2.419,-2.419,-3.707,-3.6266,-3.5353,-3.5224,-3.5917,-3.6156,-3.5151,-3.6619,-3.7785,-3.7673,-3.8702,-3.9182,-3.8444,-3.8368,-3.8094,-3.7413,-3.661,-3.6337,-3.6792,-3.6786,-3.6167,-3.4803,-3.4634,-3.458,-3.4632,-3.4632,-3.4764,-3.5044,-3.5044,-3.5147,-3.5376,-3.5376,-3.5391,-3.5439,-3.5439,-3.5453,-3.55,-3.55,-3.55,-3.55,-3.55,-3.5369,-3.5155,-3.5155,-3.5155,-3.5155,-3.5155,-3.5281,-3.5439,-3.5439,-3.5439,-3.542,-3.5285,-3.4153,-3.2872,-3.2756,-3.1565,-3.0292,-3.0336,-3.0349,-3.0355,-3.0398,-2.9737,-2.8915,-2.8242,-2.7297,-2.6545,-2.6505,-2.6513,-2.6475,-2.6346,-2.6256,-2.5945,-2.5095,-2.4843,-2.4746,-2.4716,0.0,-2.4746,-2.4708,-2.4708,-2.4639,-2.4469,-2.4444,-2.4384,-2.4209,-2.419,-2.419,-2.419,-2.419,-2.419,-2.419,-2.419,-2.419,-2.419,-2.419,-2.419,-2.419,-2.419,-2.419,-2.419,-2.419,-2.419,-2.419,-2.419,-2.419,-2.419,-2.419,-2.419,-2.419,-2.419,-2.419,-2.419,-2.419,-2.419,-2.419,-3.544,-3.5385,-3.5078,-3.4454,-3.5183,-3.5532,-3.4523,-3.5482,-3.6347,-3.6347,-3.7198,-3.7722,-3.7467,-3.7305,-3.7181,-3.7115,-3.6756,-3.6478,-3.6283,-3.5985,-3.5468,-3.4732,-3.4694,-3.4972,-3.5552,-3.528,-3.5409,-3.5963,-3.5523,-3.5376,-3.55,-3.55,-3.55,-3.55,-3.55,-3.55,-3.55,-3.55,-3.55,-3.55,-3.55,-3.5432,-3.5312,-3.5312,-3.5312,-3.5312,-3.5312,-3.5391,-3.55,-3.55,-3.55,-3.55,-3.55,-3.4288,-3.2891,-3.2891,-3.1712,-3.0404,-3.0404,-3.0404,-3.0404,-3.0404,-3.0096,-2.9583,-2.8742,-2.7816,-2.7144,-2.7144,-2.7026,-2.6969,-2.7107,-2.6943,-2.6543,-2.5831,-2.5247,0.0,0.0,-2.4869,-2.4877,-2.4811,-2.4804,-2.4768,-2.467,-2.4662,-2.4615,-2.4537,-2.4528,-2.4478,-2.4366,-2.4357,-2.4312,-2.4199,-2.419,-2.419,-2.419,-2.419,-2.419,-2.419,-2.419,-2.419,-2.419,-2.419,-2.419,-2.419,-2.419,-2.419,-2.419,-2.419,-2.419,-2.419,-2.419,-2.419,-2.419,-2.419,-2.419,-2.419,-3.4412,-3.485,-3.504,-3.4153,-3.4726,-3.509,-3.44,-3.5038,-3.5595,-3.5595,-3.6415,-3.7001,-3.7005,-3.6646,-3.6563,-3.6969,-3.6841,-3.6482,-3.5846,-3.523,-3.487,-3.4803,-3.4841,-3.5266,-3.6097,-3.5717,-3.5808,-3.6423,-3.5808,-3.55,-3.55,-3.55,-3.55,-3.55,-3.55,-3.55,-3.55,-3.55,-3.55,-3.55,-3.55,-3.55,-3.55,-3.55,-3.55,-3.55,-3.55,-3.55,-3.55,-3.55,-3.55,-3.55,-3.55,-3.4449,-3.316,-3.2968,-3.1712,-3.0404,-3.0404,-3.0404,-3.0404,-3.0404,-3.0404,-3.0173,-2.93,-2.8508,-2.7943,-2.7943,-2.7787,-2.7704,-2.7918,-2.7627,-2.7146,-2.6485,0.0,0.0,0.0,-2.4999,-2.503,-2.4923,-2.4929,-2.4889,-2.4849,-2.4849,-2.4828,-2.4804,-2.4804,-2.4731,-2.4567,-2.4559,-2.4503,-2.4339,-2.4256,-2.419,-2.419,-2.419,-2.419,-2.419,-2.419,-2.419,-2.419,-2.419,-2.419,-2.419,-2.419,-2.419,-2.419,-2.419,-2.419,-2.419,-2.419,-2.419,-2.419,-2.419,-2.419,-2.419,-3.577,-3.5206,-3.4727,-3.4651,-3.4708,-3.4982,-3.5644,-3.669,-3.7414,-3.7414,-3.8385,-3.8777,-3.7997,-3.7176,-3.6696,-3.6726,-3.6053,-3.5592,-3.5535,-3.5477,-3.532,-3.5088,-3.5304,-3.5484,-3.5556,-3.5512,-3.5538,-3.5596,-3.5538,-3.55,-3.55,-3.55,-3.55,-3.55,-3.55,-3.55,-3.55,-3.55,-3.55,-3.55,-3.55,-3.55,-3.55,-3.55,-3.55,-3.55,-3.55,-3.55,-3.55,-3.55,-3.55,-3.55,-3.55,-3.4853,-3.3955,-3.3141,-3.1712,-3.0404,-3.0404,-3.0404,-3.0404,-3.0404,-3.0404,-3.0173,-2.93,-2.9044,-2.8994,-2.8994,-2.8969,-2.8964,-2.8994,-2.8349,-2.7575,-2.672,0.0,0.0,-2.5259,-2.5269,-2.5269,-2.5259,-2.5259,-2.5192,-2.5004,-2.4992,-2.4924,-2.4811,-2.4804,-2.4797,-2.4782,-2.4782,-2.4775,-2.476,-2.4393,-2.419,-2.419,-2.419,-2.419,-2.419,-2.419,-2.419,-2.419,-2.419,-2.419,-2.419,-2.419,-2.419,-2.419,-2.419,-2.419,-2.419,-2.419,-2.419,-2.419,-2.419,-2.419,-2.419,-3.5155,-3.4982,-3.4803,-3.4714,-3.4765,-3.5069,-3.5792,-3.627,-3.6548,-3.6548,-3.691,-3.7117,-3.6969,-3.6495,-3.6349,-3.6678,-3.6761,-3.6575,-3.6031,-3.6147,-3.5991,-3.5373,-3.5446,-3.5731,-3.6231,-3.575,-3.5731,-3.6231,-3.5731,-3.55,-3.55,-3.55,-3.55,-3.55,-3.55,-3.55,-3.55,-3.55,-3.55,-3.55,-3.55,-3.55,-3.55,-3.55,-3.55,-3.55,-3.55,-3.55,-3.55,-3.55,-3.55,-3.55,-3.55,-3.4911,-3.3936,-3.2564,-3.1327,-3.0404,-3.0404,-3.0404,-3.0404,-3.0404,-3.0404,-3.0038,-2.8659,-2.8357,-2.8357,-2.8357,-2.7928,-2.7871,-2.8915,-2.8005,-2.6986,-2.6659,0.0,-2.5308,-2.5308,-2.5308,-2.5308,-2.5308,-2.5308,-2.5269,-2.5179,-2.5198,-2.5152,-2.5115,-2.5109,-2.5055,-2.4936,-2.4849,-2.4804,-2.4804,-2.4647,-2.4512,-2.4393,-2.4384,-2.4312,-2.419,-2.419,-2.419,-2.419,-2.419,-2.419,-2.419,-2.419,-2.419,-2.419,-2.419,-2.419,-2.419,-2.419,-2.419,-2.419,-2.419,-2.419,-2.419,-3.4954,-3.5034,-3.5058,-3.4972,-3.5024,-3.5325,-3.6026,-3.6378,-3.6559,-3.6559,-3.6806,-3.7042,-3.7211,-3.6822,-3.6819,-3.7466,-3.7386,-3.7056,-3.6455,-3.635,-3.6077,-3.5519,-3.55,-3.575,-3.6308,-3.5788,-3.5769,-3.6327,-3.5769,-3.55,-3.55,-3.55,-3.55,-3.55,-3.55,-3.55,-3.55,-3.55,-3.55,-3.55,-3.55,-3.55,-3.55,-3.55,-3.55,-3.55,-3.55,-3.55,-3.55,-3.55,-3.55,-3.55,-3.55,-3.4718,-3.3564,-3.241,-3.1269,-3.0404,-3.0404,-3.0404,-3.0404,-3.0404,-3.0404,-3.0096,-2.8948,-2.8698,-2.8602,-2.8338,-2.7794,-2.7659,-2.8569,-2.7563,-2.6601,-2.6601,-2.5865,-2.5308,-2.5308,-2.5308,-2.5308,-2.5308,-2.5308,-2.5308,-2.5308,-2.5308,-2.5308,-2.5308,-2.5308,-2.5248,-2.5099,-2.5012,-2.4968,-2.4968,-2.4968,-2.4862,-2.4666,-2.4623,-2.451,-2.4393,-2.4393,-2.4348,-2.4294,-2.4357,-2.4348,-2.4294,-2.4357,-2.434,-2.4291,-2.4291,-2.4254,-2.4208,-2.4273,-2.4291,-2.4291,-2.4291,-2.4291,-2.4291,-3.55,-3.55,-3.55,-3.55,-3.55,-3.5769,-3.6577,-3.745,-3.8007,-3.7988,-3.8738,-3.9284,-3.9284,-3.8527,-3.8354,-3.9227,-3.7719,-3.6712,-3.6692,-3.5942,-3.5519,-3.55,-3.55,-3.55,-3.55,-3.55,-3.55,-3.55,-3.55,-3.55,-3.55,-3.55,-3.55,-3.55,-3.55,-3.55,-3.55,-3.55,-3.55,-3.55,-3.55,-3.55,-3.55,-3.55,-3.55,-3.55,-3.55,-3.55,-3.55,-3.55,-3.55,-3.55,-3.55,-3.4288,-3.2891,-3.2891,-3.1712,-3.0404,-3.0404,-3.0404,-3.0404,-3.0404,-3.0404,-3.0404,-3.0385,-3.0385,-3.0135,-2.928,-2.9088,-2.8838,-2.8049,-2.7178,-2.6582,-2.6582,-2.5865,-2.5308,-2.5308,-2.5308,-2.5308,-2.5308,-2.5308,-2.5308,-2.5308,-2.5308,-2.5308,-2.5308,-2.5308,-2.5308,-2.5308,-2.5308,-2.5308,-2.5308,-2.5308,-2.5208,-2.4991,-2.4876,-2.4804,-2.4804,-2.4804,-2.4693,-2.4512,-2.4708,-2.4693,-2.452,-2.4716,-2.4687,-2.4504,-2.4504,-2.4374,-2.4218,-2.442,-2.4504,-2.4495,-2.4495,-2.4513,-2.4467,-3.55,-3.55,-3.55,-3.55,-3.55,-3.5769,-3.6577,-3.745,-3.7777,-3.718,-3.7853,-3.8392,-3.8392,-3.8161,-3.8354,-3.9227,-3.8815,-3.8007,-3.6769,-3.6481,-3.6096,-3.5519,-3.55,-3.55,-3.55,-3.55,-3.55,-3.55,-3.55,-3.55,-3.55,-3.55,-3.55,-3.55,-3.55,-3.55,-3.55,-3.55,-3.55,-3.55,-3.55,-3.55,-3.55,-3.55,-3.55,-3.55,-3.55,-3.55,-3.55,-3.55,-3.55,-3.55,-3.55,-3.3923,-3.2179,-3.2737,-3.1712,-3.0404,-3.0404,-3.0404,-3.0404,-3.0404,-3.0404,-3.0231,-2.9621,-2.9486,-2.9256,-2.8434,-2.7775,-2.7274,-2.7024,-2.6269,-2.5692,-2.5692,-2.5462,-2.5308,-2.5308,-2.5308,-2.5308,-2.5308,-2.5308,-2.5308,-2.5308,-2.5308,-2.5308,-2.5308,-2.5308,-2.5308,-2.5308,-2.5308,-2.5308,-2.5308,-2.5308,-2.5269,-2.5214,-2.503,-2.4891,-2.4804,-2.4804,-2.4768,-2.4716,-2.4775,-2.4768,-2.4716,-2.4775,-2.4776,-2.4712,-2.4709,-2.4688,-2.4605,-2.4522,-2.4499,-2.448,-2.4341,-2.429,-2.4273,-3.55,-3.55,-3.55,-3.55,-3.55,-3.5654,-3.6154,-3.6942,-3.7296,-3.6769,-3.7757,-3.8507,-3.8507,-3.8796,-3.92,-3.9727,-3.9169,-3.8065,-3.6346,-3.6231,-3.6,-3.5519,-3.55,-3.55,-3.55,-3.55,-3.55,-3.55,-3.55,-3.55,-3.55,-3.55,-3.55,-3.55,-3.55,-3.55,-3.55,-3.55,-3.55,-3.55,-3.55,-3.55,-3.55,-3.55,-3.55,-3.55,-3.55,-3.55,-3.55,-3.55,-3.5269,-3.4988,-3.4988,-3.3468,-3.1795,-3.2275,-3.1462,-3.0404,-3.0404,-3.0404,-3.0404,-3.0404,-3.0404,-3.0269,-2.9737,-2.9602,-2.9294,-2.8145,-2.7736,-2.7274,-2.6269,-2.5942,-2.5692,-2.5365,-2.5308,-2.5308,-2.5308,-2.5308,-2.5308,-2.5308,-2.5308,-2.5308,-2.5308,-2.5308,-2.5308,-2.5308,-2.5308,-2.5308,-2.5308,-2.5308,-2.5308,-2.5308,-2.5308,-2.5308,-2.5308,-2.5173,-2.5084,-2.5006,-2.5006,-2.4955,-2.4877,-2.4962,-2.4955,-2.4877,-2.4962,-2.4949,-2.4883,-2.4877,-2.4853,-2.4794,-2.4663,-2.4621,-2.4585,-2.4382,-2.4321,-2.4319,-3.55,-3.55,-3.55,-3.55,-3.55,-3.55,-3.55,-3.6173,-3.6673,-3.6596,-3.8046,-3.9111,-3.9188,-3.9765,-4.0227,-4.0381,-3.8854,-3.7219,-3.5596,-3.55,-3.55,-3.55,-3.55,-3.55,-3.55,-3.55,-3.55,-3.55,-3.55,-3.55,-3.55,-3.55,-3.55,-3.55,-3.55,-3.55,-3.55,-3.55,-3.55,-3.55,-3.55,-3.55,-3.55,-3.55,-3.55,-3.55,-3.55,-3.55,-3.55,-3.55,-3.493,-3.4205,-3.4302,-3.3103,-3.1718,-3.1795,-3.1135,-3.0404,-3.0404,-3.0404,-3.0404,-3.0404,-3.0396,-3.0402,-3.0404,-3.0404,-2.9923,-2.8255,-2.8472,-2.8242,-2.5769,-2.5942,-2.6212,-2.5423,-2.5308,-2.5308,-2.5308,-2.5308,-2.5308,-2.5308,-2.5308,-2.5308,-2.5308,-2.5308,-2.5308,-2.5308,-2.5308,-2.5308,-2.5308,-2.5308,-2.5308,-2.5308,-2.5308,-2.5308,-2.5308,-2.5308,-2.5308,-2.5308,-2.5308,-2.5208,-2.5034,-2.5214,-2.5203,-2.5034,-2.5219,-2.5203,-2.504,-2.5022,-2.4943,-2.4843,-2.4815,-2.4824,-2.479,-2.4605,-2.4522,-2.4532,-3.55,-3.55,-3.55,-3.55,-3.55,-3.55,-3.55,-3.6173,-3.6462,-3.5846,-3.6635,-3.7526,-3.82,-3.7834,-3.8065,-3.9438,-3.7988,-3.6558,-3.5577,-3.55,-3.55,-3.55,-3.55,-3.55,-3.55,-3.55,-3.55,-3.55,-3.55,-3.55,-3.55,-3.55,-3.55,-3.55,-3.55,-3.55,-3.55,-3.55,-3.55,-3.55,-3.55,-3.55,-3.55,-3.55,-3.55,-3.55,-3.55,-3.55,-3.55,-3.55,-3.493,-3.4321,-3.5007,-3.3603,-3.1814,-3.2449,-3.1577,-3.0404,-3.0404,-3.0404,-3.0404,-3.0404,-3.0436,-3.0453,-3.0414,-3.0404,-2.9923,-2.8255,-2.8049,-2.7563,-2.5654,-2.5442,-2.5519,-2.5327,-2.5308,-2.5308,-2.5308,-2.5308,-2.5308,-2.5308,-2.5308,-2.5308,-2.5308,-2.5308,-2.5308,-2.5308,-2.5308,-2.5308,-2.5308,-2.5308,-2.5308,-2.5308,-2.5308,-2.5308,-2.5308,-2.5308,-2.5308,-2.5308,-2.5308,-2.5274,-2.5248,-2.5274,-2.5274,-2.5248,-2.5274,-2.5274,-2.5229,-2.5235,-2.5215,-2.5187,-2.5028,-2.4971,-2.4938,-2.479,-2.4735,-2.4718,-3.552,-3.55,-3.55,-3.55,-3.55,-3.55,-3.55,-3.5865,-3.5981,-3.5558,-3.6192,-3.6865,-3.7334,-3.7334,-3.7526,-3.8027,-3.7238,-3.6365,-3.5558,-3.55,-3.55,-3.55,-3.55,-3.55,-3.55,-3.55,-3.55,-3.55,-3.55,-3.55,-3.55,-3.55,-3.55,-3.55,-3.55,-3.55,-3.55,-3.55,-3.55,-3.55,-3.55,-3.55,-3.55,-3.55,-3.55,-3.55,-3.55,-3.55,-3.5494,-3.554,-3.4973,-3.4334,-3.4863,-3.3534,-3.1888,-3.2295,-3.1516,-3.0505,-3.0505,-3.0505,-3.0505,-3.0505,-3.0513,-3.0529,-3.0467,-3.0463,-3.0141,-2.8872,-2.8597,-2.805,-2.6335,-2.6018,-2.5875,-2.5456,-2.5371,-2.5354,-2.5391,-2.5344,-2.5313,-2.5333,-2.5327,-2.5308,-2.5308,-2.5308,-2.5308,-2.5308,-2.5308,-2.5308,-2.5308,-2.5308,-2.5308,-2.5308,-2.5308,-2.5308,-2.5308,-2.5308,-2.5308,-2.5308,-2.5308,-2.5308,-2.5308,-2.5308,-2.5308,-2.5308,-2.5308,-2.5308,-2.5308,-2.5308,-2.5308,-2.5288,-2.5086,-2.5003,-2.4982,-2.4843,-2.4843,-2.4901,-3.554,-3.5534,-3.5534,-3.5534,-3.5534,-3.5534,-3.5534,-3.5528,-3.5528,-3.5528,-3.6098,-3.6538,-3.6692,-3.7334,-3.743,-3.6577,-3.6481,-3.6212,-3.5538,-3.55,-3.55,-3.55,-3.55,-3.55,-3.55,-3.55,-3.55,-3.55,-3.55,-3.55,-3.55,-3.55,-3.55,-3.55,-3.55,-3.55,-3.55,-3.55,-3.55,-3.55,-3.5515,-3.5528,-3.5509,-3.5522,-3.5534,-3.5534,-3.5534,-3.5534,-3.5534,-3.5605,-3.5141,-3.4563,-3.4675,-3.3611,-3.2327,-3.2168,-3.1504,-3.0781,-3.0642,-3.0603,-3.0603,-3.0603,-3.0614,-3.0609,-3.0556,-3.0565,-3.0372,-2.958,-2.9241,-2.8616,-2.7075,-2.6675,-2.6337,-2.5627,-2.5456,-2.5434,-2.5484,-2.5395,-2.5339,-2.5398,-2.5348,-2.5308,-2.5308,-2.5308,-2.5308,-2.5308,-2.5308,-2.5308,-2.5308,-2.5308,-2.5308,-2.5308,-2.5308,-2.5308,-2.5308,-2.5308,-2.5308,-2.5308,-2.5308,-2.5308,-2.5308,-2.5308,-2.5308,-2.5308,-2.5308,-2.5308,-2.5308,-2.5308,-2.5308,-2.5288,-2.5125,-2.5048,-2.5048,-2.4928,-2.4966,-2.5048,-3.5667,-3.5663,-3.5663,-3.5663,-3.5663,-3.5663,-3.5663,-3.5616,-3.5599,-3.5599,-3.5637,-3.5923,-3.6615,-3.6808,-3.6538,-3.5731,-3.5654,-3.5615,-3.5519,-3.55,-3.55,-3.55,-3.55,-3.55,-3.55,-3.55,-3.55,-3.55,-3.55,-3.55,-3.55,-3.55,-3.55,-3.55,-3.55,-3.55,-3.55,-3.55,-3.55,-3.5514,-3.5568,-3.5599,-3.5595,-3.5646,-3.5663,-3.5663,-3.5663,-3.5663,-3.5667,-3.5682,-3.5608,-3.5514,-3.5528,-3.4893,-3.4001,-3.3255,-3.2418,-3.1565,-3.08,-3.0603,-3.0603,-3.0603,-3.0633,-3.0686,-3.0679,-3.0643,-3.0372,-2.958,-2.8796,-2.796,-2.6977,-2.6174,-2.5644,-2.551,-2.5484,-2.5501,-2.551,-2.5431,-2.5383,-2.5398,-2.5344,-2.5308,-2.5308,-2.5308,-2.5308,-2.5308,-2.5308,-2.5308,-2.5308,-2.5308,-2.5308,-2.5308,-2.5308,-2.5308,-2.5308,-2.5308,-2.5308,-2.5308,-2.5308,-2.5308,-2.5308,-2.5308,-2.5308,-2.5308,-2.5308,-2.5308,-2.5308,-2.5308,-2.5308,-2.5308,-2.5264,-2.5264,-2.5264,-2.5245,-2.5245,-2.5264,-3.5713,-3.5707,-3.5707,-3.5707,-3.5707,-3.5707,-3.5707,-3.5667,-3.5659,-3.5659,-3.563,-3.5747,-3.6096,-3.6134,-3.5999,-3.5631,-3.5611,-3.5611,-3.5611,-3.5611,-3.5611,-3.5611,-3.5611,-3.5611,-3.5611,-3.5611,-3.5611,-3.5611,-3.554,-3.5515,-3.557,-3.557,-3.5577,-3.5611,-3.5611,-3.5611,-3.5611,-3.5611,-3.5611,-3.5616,-3.5638,-3.5659,-3.5663,-3.5689,-3.5707,-3.5707,-3.5707,-3.5707,-3.5713,-3.5794,-3.5807,-3.5814,-3.5864,-3.5288,-3.4449,-3.3569,-3.271,-3.1873,-3.0993,-3.0778,-3.0778,-3.0778,-3.0788,-3.0815,-3.0815,-3.0787,-3.0661,-3.0311,-2.9158,-2.8085,-2.7716,-2.6525,-2.5606,-2.5606,-2.5572,-2.5556,-2.5556,-2.5471,-2.5399,-2.5357,-2.5322,-2.5308,-2.5308,-2.5308,-2.5308,-2.5308,-2.5308,-2.5308,-2.5308,-2.5308,-2.5308,-2.5308,-2.5308,-2.5308,-2.5308,-2.5308,-2.5308,-2.5308,-2.5308,-2.5308,-2.5308,-2.5308,-2.5308,-2.5308,-2.5308,-2.5308,-2.5308,-2.5308,-2.5308,-2.5308,-2.5308,-2.5308,-2.5308,-2.5308,-2.5308,-2.5308]},{"header":{"parameterUnit":"m.s-1","parameterCategory":1,"la1":30.6,"la2":28.766,"lo1":-90.7593,"lo2":-88.6598,"dy":0.0162,"dx":0.0183,"nx":116,"ny":114,"refTime":"2024-06-06T06:00:00:Z","depth":0,"parameterNumber":3,"parameterNumberName":"V-component_of_WINDS"},"data":[0.0,0.0,0.0,0.0,0.0,0.0,0.0,0.0,0.0,0.0,0.0,0.0,0.0,0.0,0.0,0.0,0.0,0.0,0.0,0.0,0.0,0.0,0.0,0.0,0.0,0.0,0.0,0.0,0.0,0.0,0.0,0.0,0.0,0.0,0.0,0.0,0.0,0.0,0.0,0.0,0.0,0.0,0.0,0.0,0.0,0.0,0.0,0.0,0.0,0.0,0.0,0.0,0.0,0.0,0.0,0.0,0.0,0.0,0.0,0.0,0.0,0.0,0.0,0.0,0.0,0.0,0.0,0.0,0.0,0.0,0.0,0.0,0.0,0.0,0.0,0.0,0.0,0.0,0.0,0.0,0.0,0.0,0.0,0.0,0.0,0.0,0.0,0.0,0.0,0.0,0.0,0.0,0.0,0.0,0.0,0.0,0.0,0.0,0.0,0.0,0.0,0.0,0.0,0.0,0.0,0.0,0.0,0.0,0.0,0.0,0.0,0.0,0.0,0.0,0.0,0.0,0.0,0.0,0.0,0.0,0.0,0.0,0.0,0.0,0.0,0.0,0.0,0.0,0.0,0.0,0.0,0.0,0.0,0.0,0.0,0.0,0.0,0.0,0.0,0.0,0.0,0.0,0.0,0.0,0.0,0.0,0.0,0.0,0.0,0.0,0.0,0.0,0.0,0.0,0.0,0.0,0.0,0.0,0.0,0.0,0.0,0.0,0.0,0.0,0.0,0.0,0.0,0.0,0.0,0.0,0.0,0.0,0.0,0.0,0.0,0.0,0.0,0.0,0.0,0.0,0.0,0.0,0.0,0.0,0.0,0.0,0.0,0.0,0.0,0.0,0.0,0.0,0.0,0.0,0.0,0.0,0.0,0.0,0.0,0.0,0.0,0.0,0.0,0.0,0.0,0.0,0.0,0.0,0.0,0.0,0.0,0.0,0.0,0.0,0.0,0.0,0.0,0.0,0.0,0.0,0.0,0.0,0.0,0.0,0.0,0.0,0.0,0.0,0.0,0.0,0.0,0.0,0.0,0.0,0.0,0.0,0.0,0.0,0.0,0.0,0.0,0.0,0.0,0.0,0.0,0.0,0.0,0.0,0.0,0.0,0.0,0.0,0.0,0.0,0.0,0.0,0.0,0.0,0.0,0.0,0.0,0.0,0.0,0.0,0.0,0.0,0.0,0.0,0.0,0.0,0.0,0.0,0.0,0.0,0.0,0.0,0.0,0.0,0.0,0.0,0.0,0.0,0.0,0.0,0.0,0.0,0.0,0.0,0.0,0.0,0.0,0.0,0.0,0.0,0.0,0.0,0.0,0.0,0.0,0.0,0.0,0.0,0.0,0.0,0.0,0.0,0.0,0.0,0.0,0.0,0.0,0.0,0.0,0.0,0.0,0.0,0.0,0.0,0.0,0.0,0.0,0.0,0.0,0.0,0.0,0.0,0.0,0.0,0.0,0.0,0.0,0.0,0.0,0.0,0.0,0.0,0.0,0.0,0.0,0.0,0.0,0.0,0.0,0.0,0.0,0.0,0.0,0.0,0.0,0.0,0.0,0.0,0.0,0.0,0.0,0.0,0.0,0.0,0.0,0.0,0.0,0.0,0.0,0.0,0.0,0.0,0.0,0.0,0.0,0.0,0.0,0.0,0.0,0.0,0.0,0.0,0.0,0.0,0.0,0.0,0.0,0.0,0.0,0.0,0.0,0.0,0.0,0.0,0.0,0.0,0.0,0.0,0.0,0.0,0.0,0.0,0.0,0.0,0.0,0.0,0.0,0.0,0.0,0.0,0.0,0.0,0.0,0.0,0.0,0.0,0.0,0.0,0.0,0.0,0.0,0.0,0.0,0.0,0.0,0.0,0.0,0.0,0.0,0.0,0.0,0.0,0.0,0.0,0.0,0.0,0.0,0.0,0.0,0.0,0.0,0.0,0.0,0.0,0.0,0.0,0.0,0.0,0.0,0.0,0.0,0.0,0.0,0.0,0.0,0.0,0.0,0.0,0.0,0.0,0.0,0.0,0.0,0.0,0.0,0.0,0.0,0.0,0.0,0.0,0.0,0.0,0.0,0.0,0.0,0.0,0.0,0.0,0.0,0.0,0.0,0.0,0.0,0.0,0.0,0.0,0.0,0.0,0.0,0.0,0.0,0.0,0.0,0.0,0.0,0.0,0.0,0.0,0.0,0.0,0.0,0.0,0.0,0.0,0.0,0.0,0.0,0.0,0.0,0.0,0.0,0.0,0.0,0.0,0.0,0.0,0.0,0.0,0.0,0.0,0.0,0.0,0.0,0.0,0.0,0.0,0.0,0.0,0.0,0.0,0.0,0.0,0.0,0.0,0.0,0.0,0.0,0.0,0.0,0.0,0.0,0.0,0.0,0.0,0.0,0.0,0.0,0.0,0.0,0.0,0.0,0.0,0.0,0.0,0.0,0.0,0.0,0.0,0.0,0.0,0.0,0.0,0.0,0.0,0.0,0.0,0.0,0.0,0.0,0.0,0.0,0.0,0.0,0.0,0.0,0.0,0.0,0.0,0.0,0.0,0.0,0.0,0.0,0.0,0.0,0.0,0.0,0.0,0.0,0.0,0.0,0.0,0.0,0.0,0.0,0.0,0.0,0.0,0.0,0.0,0.0,0.0,0.0,0.0,0.0,0.0,0.0,0.0,0.0,0.0,0.0,0.0,0.0,0.0,0.0,0.0,0.0,0.0,0.0,0.0,0.0,0.0,0.0,0.0,0.0,0.0,0.0,0.0,0.0,0.0,0.0,0.0,0.0,0.0,0.0,0.0,0.0,0.0,0.0,0.0,0.0,0.0,0.0,0.0,0.0,0.0,0.0,0.0,0.0,0.0,0.0,0.0,0.0,0.0,0.0,0.0,0.0,0.0,0.0,0.0,0.0,0.0,0.0,0.0,0.0,0.0,0.0,0.0,0.0,0.0,0.0,0.0,0.0,0.0,0.0,0.0,0.0,0.0,0.0,0.0,0.0,0.0,0.0,0.0,0.0,0.0,0.0,0.0,0.0,0.0,0.0,0.0,0.0,0.0,0.0,0.0,0.0,0.0,0.0,0.0,0.0,0.0,0.0,0.0,0.0,0.0,0.0,0.0,0.0,0.0,0.0,0.0,0.0,0.0,0.0,0.0,0.0,0.0,0.0,0.0,0.0,0.0,0.0,0.0,0.0,0.0,0.0,0.0,0.0,0.0,0.0,0.0,0.0,0.0,0.0,0.0,0.0,0.0,0.0,0.0,0.0,0.0,0.0,0.0,0.0,0.0,0.0,0.0,0.0,0.0,0.0,0.0,0.0,0.0,0.0,0.0,0.0,0.0,0.0,0.0,0.0,0.0,0.0,0.0,0.0,0.0,0.0,0.0,0.0,0.0,0.0,0.0,0.0,0.0,0.0,0.0,0.0,0.0,0.0,0.0,0.0,0.0,0.0,0.0,0.0,0.0,0.0,0.0,0.0,0.0,0.0,0.0,0.0,0.0,0.0,0.0,0.0,0.0,0.0,0.0,0.0,0.0,0.0,0.0,0.0,0.0,0.0,0.0,0.0,0.0,0.0,0.0,0.0,0.0,0.0,0.0,0.0,0.0,0.0,0.0,0.0,0.0,0.0,0.0,0.0,0.0,0.0,0.0,0.0,0.0,0.0,0.0,0.0,0.0,0.0,0.0,0.0,0.0,0.0,0.0,0.0,0.0,0.0,0.0,0.0,0.0,0.0,0.0,0.0,0.0,0.0,0.0,0.0,0.0,0.0,0.0,0.0,0.0,0.0,0.0,0.0,0.0,0.0,0.0,0.0,0.0,0.0,0.0,0.0,0.0,0.0,0.0,0.0,0.0,0.0,0.0,0.0,0.0,0.0,0.0,0.0,0.0,0.0,0.0,0.0,0.0,0.0,0.0,0.0,0.0,0.0,0.0,0.0,0.0,0.0,0.0,0.0,0.0,0.0,0.0,0.0,0.0,0.0,0.0,0.0,0.0,0.0,0.0,0.0,0.0,0.0,0.0,0.0,0.0,0.0,0.0,0.0,0.0,0.0,0.0,0.0,0.0,0.0,0.0,0.0,0.0,0.0,0.0,0.0,0.0,0.0,0.0,0.0,0.0,0.0,0.0,0.0,0.0,0.0,0.0,0.0,0.0,0.0,0.0,0.0,0.0,0.0,0.0,0.0,0.0,0.0,0.0,0.0,0.0,0.0,0.0,0.0,0.0,0.0,0.0,0.0,0.0,0.0,0.0,0.0,0.0,0.0,0.0,0.0,0.0,0.0,0.0,0.0,0.0,0.0,0.0,0.0,0.0,0.0,0.0,0.0,0.0,0.0,0.0,0.0,0.0,0.0,0.0,0.0,0.0,0.0,0.0,0.0,0.0,0.0,0.0,0.0,0.0,0.0,0.0,0.0,0.0,0.0,0.0,0.0,0.0,0.0,0.0,0.0,0.0,0.0,0.0,0.0,0.0,0.0,0.0,0.0,0.0,0.0,0.0,0.0,0.0,0.0,0.0,0.0,0.0,0.0,0.0,0.0,0.0,0.0,0.0,0.0,0.0,0.0,0.0,0.0,0.0,0.0,0.0,0.0,0.0,0.0,0.0,0.0,0.0,0.0,0.0,0.0,0.0,0.0,0.0,0.0,0.0,0.0,0.0,0.0,0.0,0.0,0.0,0.0,0.0,0.0,0.0,0.0,0.0,0.0,0.0,0.0,0.0,0.0,0.0,0.0,0.0,0.0,0.0,0.0,0.0,0.0,0.0,0.0,0.0,0.0,0.0,0.0,0.0,0.0,0.0,0.0,0.0,0.0,0.0,0.0,0.0,0.0,0.0,0.0,0.0,0.0,0.0,0.0,0.0,0.0,0.0,0.0,0.0,0.0,0.0,0.0,0.0,0.0,0.0,0.0,0.0,0.0,0.0,0.0,0.0,0.0,0.0,0.0,0.0,0.0,0.0,0.0,0.0,0.0,0.0,0.0,0.0,0.0,0.0,0.0,0.0,0.0,0.0,0.0,0.0,0.0,0.0,0.0,0.0,0.0,0.0,0.0,0.0,0.0,0.0,0.0,0.0,0.0,0.0,0.0,0.0,0.0,0.0,0.0,0.0,0.0,0.0,0.0,0.0,0.0,0.0,0.0,0.0,0.0,0.0,0.0,0.0,0.0,0.0,0.0,0.0,0.0,0.0,0.0,0.0,0.0,0.0,0.0,0.0,0.0,0.0,0.0,0.0,0.0,0.0,0.0,0.0,0.0,0.0,0.0,0.0,0.0,0.0,0.0,0.0,0.0,0.0,0.0,0.0,0.0,0.0,0.0,0.0,0.0,0.0,0.0,0.0,0.0,0.0,0.0,0.0,0.0,0.0,0.0,0.0,0.0,0.0,0.0,0.0,0.0,0.0,0.0,0.0,0.0,0.0,0.0,0.0,0.0,0.0,0.0,0.0,0.0,0.0,0.0,0.0,0.0,0.0,0.0,0.0,0.0,0.0,0.0,0.0,0.0,0.0,0.0,0.0,0.0,0.0,0.0,0.0,0.0,0.0,0.0,0.0,0.0,0.0,0.0,0.0,0.0,0.0,0.0,0.0,0.0,0.0,0.0,0.0,0.0,0.0,0.0,0.0,0.0,0.0,0.0,0.0,0.0,0.0,0.0,0.0,0.0,0.0,0.0,0.0,0.0,0.0,0.0,0.0,0.0,0.0,0.0,0.0,0.0,0.0,0.0,0.0,0.0,0.0,0.0,0.0,0.0,0.0,0.0,0.0,0.0,0.0,0.0,0.0,0.0,0.0,0.0,0.0,0.0,0.0,0.0,0.0,0.0,0.0,0.0,0.0,0.0,0.0,0.0,0.0,0.0,0.0,0.0,0.0,0.0,0.0,0.0,0.0,0.0,0.0,0.0,0.0,0.0,0.0,0.0,0.0,0.0,0.0,0.0,0.0,0.0,0.0,0.0,0.0,0.0,0.0,0.0,0.0,0.0,0.0,0.0,0.0,0.0,0.0,0.0,0.0,0.0,0.0,0.0,0.0,0.0,0.0,0.0,0.0,0.0,0.0,0.0,0.0,0.0,0.0,0.0,0.0,0.0,0.0,0.0,0.0,0.0,0.0,0.0,0.0,-1.2871,0.0,0.0,0.0,0.0,0.0,0.0,0.0,0.0,0.0,0.0,0.0,0.0,0.0,0.0,0.0,0.0,0.0,0.0,0.0,0.0,0.0,0.0,0.0,0.0,-0.3147,-0.3396,-0.3453,-0.3113,-0.2638,-0.1985,0.0,0.0,0.0,0.0,0.0,0.0,0.0,0.0,0.0,0.0,0.0,0.0,0.0,0.0,0.0,0.0,0.0,0.0,0.0,0.0,0.0,0.0,0.0,0.0,0.0,0.0,0.0,0.0,0.0,0.0,0.0,0.0,0.0,0.0,0.0,0.0,0.0,0.0,0.0,0.0,0.0,0.0,0.0,0.0,0.0,0.0,0.0,0.0,0.0,0.0,0.0,0.0,0.0,0.0,0.0,0.0,0.0,0.0,0.0,0.0,0.0,0.0,0.0,0.0,0.0,0.0,0.0,0.0,0.0,0.0,0.0,0.0,0.0,0.0,0.0,0.0,0.0,0.0,0.0,0.0,0.0,0.0,0.0,0.0,0.0,0.0,-1.3514,0.0,0.0,0.0,0.0,0.0,0.0,0.0,0.0,0.0,0.0,0.0,0.0,0.0,0.0,0.0,0.0,0.0,0.0,0.0,0.0,0.0,-0.129,-0.2299,-0.2618,-0.2757,-0.2778,-0.2662,-0.2126,-0.1002,-0.0819,0.0,0.0,0.0,0.0,0.0,0.0,0.0,0.0,0.0,0.0,0.0,0.0,0.0,0.0,0.0,0.0,0.0,0.0,0.0,0.0,0.0,0.0,0.0,0.0,0.0,0.0,0.0,0.0,0.0,0.0,0.0,0.0,0.0,0.0,0.0,0.0,0.0,0.0,0.0,0.0,0.0,0.0,0.0,0.0,0.0,0.0,0.0,0.0,0.0,0.0,0.0,0.0,0.0,0.0,0.0,0.0,0.0,0.0,0.0,0.0,0.0,0.0,0.0,0.0,0.0,0.0,0.0,0.0,0.0,0.0,0.0,0.0,0.0,0.0,0.0,0.0,0.0,0.0,-1.5885,-1.6005,-1.6139,-1.6137,-1.6319,-1.642,-1.4963,-1.4629,-1.5082,0.0,0.0,0.0,0.0,0.0,0.0,0.0,0.0,0.0,0.0,0.0,0.0,0.0,0.0,0.0,0.0,0.0,0.0,0.0,0.0,-0.101,-0.1286,-0.1782,-0.2155,-0.2271,-0.1708,-0.1268,-0.1076,-0.0481,0.0,0.0,0.0,0.0,0.0,0.0,0.0,0.0,0.0,0.0,0.0,0.0,0.0,0.0,0.0,-0.0414,-0.1142,0.0,0.0,0.0,0.0,0.0,0.0,0.0,0.0,0.0,0.0,0.0,0.0,0.0,0.0,0.0,0.0,0.0,0.0,0.0,0.0,0.0,0.0,0.0,0.0,0.0,0.0,0.0,0.0,0.0,0.0,0.0,0.0,0.0,0.0,0.0,0.0,0.0,0.0,0.0,0.0,0.0,-1.1463,-1.2388,0.0,0.0,0.0,0.0,0.0,0.0,0.0,0.0,0.0,0.0,0.0,0.0,0.0,-1.5939,-1.6413,-1.6961,-1.7255,-1.7301,-1.7829,-1.7822,-1.7361,-1.7576,-1.7629,-1.7395,-1.7161,0.0,-1.5638,-1.5277,0.0,0.0,0.0,0.0,0.0,0.0,0.0,0.0,0.0,0.0,0.0,0.0,0.0,0.0,0.0,0.0,0.0,0.0,0.0,0.0,0.0,-0.1809,-0.2097,-0.163,-0.1782,-0.1494,-0.0547,-0.0168,0.0,0.0,0.0,0.0,0.0,0.0,0.0,0.0,0.0,0.0,0.0,0.0,0.0,0.0,0.0,-0.0445,-0.1206,-0.127,0.0,0.0,0.0,0.0,0.0,0.0,0.0,0.0,0.0,0.0,0.0,0.0,0.0,0.0,0.0,0.0,0.0,0.0,0.0,0.0,0.0,0.0,0.0,0.0,0.0,0.0,0.0,0.0,0.0,0.0,0.0,0.0,0.0,0.0,0.0,0.0,0.0,0.0,0.0,-1.1102,-1.2191,-1.2958,-1.3039,-1.3014,0.0,0.0,0.0,0.0,0.0,0.0,0.0,0.0,0.0,-1.6221,-1.6754,-1.7181,-1.7442,-1.7876,-1.8096,-1.8096,-1.8364,-1.835,-1.8096,-1.8237,-1.8223,-1.8096,-1.8096,-1.7709,-1.6976,-1.6393,-1.5618,-1.479,0.0,0.0,0.0,0.0,-1.8237,-1.9751,0.0,0.0,0.0,0.0,0.0,0.0,0.0,0.0,0.0,0.0,0.0,0.0,-0.0436,-0.1328,-0.1591,-0.0889,-0.1446,-0.1325,-0.0088,0.0,0.0,0.0,0.0,0.0,0.0,0.0,0.0,0.0,0.0,0.0,0.0,0.0,0.0,0.0,0.0,-0.0569,-0.15,-0.1411,-0.2063,-0.3147,0.0,0.0,0.0,0.0,0.0,0.0,0.0,0.0,0.0,0.0,0.0,0.0,0.0,0.0,0.0,0.0,0.0,0.0,0.0,0.0,0.0,0.0,0.0,0.0,0.0,0.0,0.0,0.0,0.0,0.0,0.0,0.0,0.0,0.0,0.0,0.0,0.0,-1.2017,-1.3013,-1.3687,-1.3986,-1.4133,0.0,0.0,0.0,0.0,0.0,0.0,-1.6119,-1.6593,-1.7092,-1.7534,-1.813,-1.847,-1.847,-1.8778,-1.8938,-1.8938,-1.8865,-1.8824,-1.8824,-1.8751,-1.8711,-1.8711,-1.8711,-1.8544,-1.8149,-1.7301,-1.65,-1.5859,-1.5929,-1.6409,-1.7286,-1.8646,-1.9951,-2.1147,0.0,0.0,0.0,0.0,0.0,0.0,0.0,0.0,0.0,0.0,0.0,0.0917,0.099,0.0335,-0.0115,-0.0061,-0.009,-0.0088,0.0,0.0,0.0,0.0,0.0,0.0,0.0,0.0,0.0,0.0,0.0,0.0,0.0,0.0,0.0,0.0,0.0,-0.0973,-0.2586,-0.2276,-0.3018,-0.4379,-0.4052,0.0,0.0,0.0,0.0,0.0,0.0,0.0,0.0,0.0,0.0,0.0,0.0,0.0,0.0,0.0,0.0,0.0,0.0,0.0,0.0,0.0,0.0,0.0,0.0,0.0,0.0,0.0,0.0,0.0,0.0,0.0,0.0,0.0,0.0,0.0,0.0,0.0,0.0,-1.5184,-1.5545,0.0,0.0,0.0,0.0,-1.5671,-1.6259,-1.672,-1.7119,-1.7909,-1.839,-1.8424,-1.9259,-1.9706,-1.9706,-2.0,-2.0087,-2.008,-1.9867,-1.9733,-1.9726,-1.9452,-1.9325,-1.9325,-1.9325,-1.9152,-1.8811,-1.7909,-1.74,-1.718,-1.8143,-1.925,-2.0508,-2.1869,-2.3122,-2.4108,0.0,0.0,0.0,0.0,0.0,0.3306,0.3306,0.3014,0.267,0.2339,0.1818,0.134,0.0996,-0.0115,-0.0607,-0.0063,-0.0503,-0.0589,-0.003,0.0,0.0,0.0,0.0,0.0,0.0,0.0,0.0,0.0,0.0,0.0,0.0,0.0,0.0,0.0,0.0,-0.1059,-0.2813,-0.2599,-0.3396,-0.474,-0.4524,-0.4167,0.0,0.0,0.0,0.0,0.0,0.0,0.0,0.0,0.0,0.0,0.0,0.0,0.0,0.0,0.0,0.0,0.0,0.0,0.0,0.0,0.0,0.0,0.0,0.0,0.0,0.0,0.0,0.0,0.0,0.0,0.0,0.0,0.0,0.0,0.0,0.0,0.0,-1.5858,-1.6386,0.0,-1.6794,-1.68,-1.6921,-1.7215,-1.7615,-1.8063,-1.8606,-1.9058,-1.9419,-1.9606,-1.9913,-2.008,-2.008,-2.012,-2.0173,-2.0173,-2.0127,-1.998,-1.98,-1.9693,-1.9546,-1.9424,-1.9424,-1.9305,-1.9165,-1.8657,-1.8043,-1.7499,-1.7657,-1.8927,-2.0666,-2.1154,-2.2633,-2.4339,0.0,0.0,0.0,0.0,0.3507,0.3332,0.3395,0.3231,0.3014,0.2767,0.2435,0.2019,0.1392,0.0299,-0.0317,-0.0033,-0.0514,-0.063,-0.0031,0.0,0.0,0.0,0.0,0.0,0.0,0.0,0.0,0.0,0.0,0.0,0.0,0.0,-0.0196,-0.0549,-0.0549,-0.1631,-0.3501,-0.3401,-0.4031,-0.5071,-0.4964,-0.4653,-0.4213,0.0,0.0,0.0,0.0,0.0,0.0,0.0,0.0,0.0,0.0,0.0,0.0,0.0,0.0,0.0,0.0,0.0,0.0,0.0,0.0,0.0,0.0,0.0,0.0,0.0,0.0,0.0,0.0,0.0,0.0,0.0,0.0,0.0,0.0,0.0,-1.5745,-1.6529,-1.7233,-1.7728,-1.7869,-1.7976,-1.8196,-1.8584,-1.8811,-1.9145,-1.9633,-1.9933,-2.018,-2.0374,-2.0481,-2.0528,-2.0528,-2.0528,-2.0528,-2.0528,-2.0428,-2.0281,-2.0087,-1.9893,-1.9693,-1.9506,-1.947,-1.9424,-1.9403,-1.9594,-1.932,-1.8768,-1.8826,-1.9717,-2.108,-2.1973,-2.3386,-2.4797,0.0,0.0,0.0,0.3409,0.3306,0.3374,0.3567,0.3324,0.3259,0.3727,0.3369,0.2842,0.2247,0.1642,0.0913,0.0067,0.0,0.0,0.0,0.0,0.0,0.0,0.0,0.0,0.0,0.0,0.0,0.0,0.0,0.0,0.0,0.0,-0.0588,-0.1607,-0.1607,-0.2738,-0.4688,-0.4696,-0.4964,-0.5423,-0.5402,-0.5128,-0.4696,0.0,0.0,0.0,0.0,0.0,0.0,0.0,0.0,0.0,0.0,0.0,0.0,0.0,0.0,0.0,0.0,0.0,0.0,0.0,0.0,0.0,0.0,0.0,0.0,0.0,0.0,0.0,0.0,0.0,0.0,0.0,0.0,0.0,-1.5022,-1.5799,-1.6576,-1.7159,-1.8023,-1.8517,-1.8531,-1.8791,-1.9199,-1.9773,-1.982,-1.9953,-2.0173,-2.0528,-2.0688,-2.0688,-2.0962,-2.1109,-2.1109,-2.1109,-2.1109,-2.1109,-2.0822,-2.0681,-2.0661,-2.0087,-1.982,-1.9786,-1.9506,-1.943,-1.957,-2.0632,-2.1148,-2.1239,-2.1859,-2.1989,-2.2072,-2.4667,-2.5635,-2.5693,0.0,0.0,0.3961,0.3826,0.3523,0.3374,0.3567,0.3324,0.3226,0.3614,0.277,0.2133,0.2062,0.103,0.0261,0.0034,0.0,0.0,0.0,0.0,0.0,0.0,0.0,0.0,0.0,0.0,0.0,0.0,0.0,0.0,0.0,0.0,-0.0588,-0.1607,-0.1607,-0.2738,-0.4688,-0.4691,-0.5119,-0.5821,-0.5713,-0.5498,-0.5172,0.0,0.0,0.0,0.0,0.0,0.0,0.0,0.0,0.0,0.0,0.0,0.0,0.0,0.0,0.0,0.0,0.0,0.0,0.0,0.0,0.0,0.0,0.0,0.0,0.0,0.0,0.0,0.0,0.0,0.0,0.0,0.0,-1.3339,-1.5042,-1.64,-1.7361,-1.7736,-1.8577,-1.9212,-1.9419,-1.9706,-1.994,-2.01,-2.0314,-2.0468,-2.0548,-2.0828,-2.0989,-2.0989,-2.1069,-2.1109,-2.1109,-2.1109,-2.1109,-2.1109,-2.1029,-2.0882,-2.0668,-2.0508,-2.0201,-1.98,-1.972,-2.0182,-2.1023,-2.1319,-2.1973,-2.2729,-2.2388,-2.2817,-2.3598,-2.3719,-2.4553,-2.5674,0.0,0.3319,0.3455,0.3455,0.3282,0.3184,0.3371,0.3275,0.3327,0.3714,0.2933,0.2289,0.2095,0.1166,0.0383,0.0032,0.0,0.0,0.0,0.0,0.0,0.0,0.0,0.0,0.0,0.0,0.0,0.0,0.0,0.0,0.0,0.0,-0.0784,-0.2231,-0.2231,-0.34,-0.5354,-0.5354,-0.567,-0.6111,-0.603,-0.5848,-0.5525,-0.5282,-0.5145,-0.5047,-0.4924,-0.4825,-0.4741,-0.4741,0.0,0.0,0.0,0.0,0.0,0.0,0.0,0.0,0.0,0.0,0.0,0.0,0.0,0.0,0.0,0.0,0.0,0.0,0.0,0.0,0.0,0.0,0.0,0.0,-1.24,-1.3297,-1.5957,-1.7161,-1.7929,-1.8343,-1.8971,-1.9533,-1.994,-2.0134,-2.0273,-2.0581,-2.0762,-2.0855,-2.0855,-2.1022,-2.1109,-2.1109,-2.1109,-2.1109,-2.1109,-2.1109,-2.1109,-2.1109,-2.1109,-2.1022,-2.0855,-2.0728,-2.0421,0.0,-1.9853,-2.0478,-2.1643,-2.2258,-2.3309,0.0,0.0,0.0,0.0,0.0,-2.4816,-2.5693,0.0,0.2309,0.2636,0.2636,0.2797,0.2944,0.3027,0.3138,0.3336,0.3713,0.3244,0.2642,0.2124,0.151,0.0832,0.0062,0.0,0.0,0.0,0.0,0.0,0.0,0.0,0.0,0.0,0.0,0.0,0.0,0.0,0.0,0.0,0.0,-0.1096,-0.3085,-0.3085,-0.4295,-0.63,-0.63,-0.63,-0.63,-0.63,-0.6099,-0.5825,-0.5676,-0.5652,-0.5613,-0.5498,-0.5321,-0.5174,-0.5174,0.0,0.0,0.0,0.0,0.0,0.0,0.0,0.0,0.0,0.0,0.0,0.0,0.0,0.0,0.0,0.0,0.0,0.0,0.0,0.0,0.0,0.0,0.0,0.0,-1.235,-1.3889,-1.7011,-1.7693,-1.811,-1.8808,-1.9245,-1.9666,-2.012,-2.0233,-2.0548,-2.1069,-2.1109,-2.1109,-2.1109,0.0,0.0,0.0,0.0,-2.1109,-2.1109,-2.1109,-2.1109,-2.1109,-2.1109,-2.1109,-2.1102,-2.0842,-2.0568,-2.0267,-1.9973,-2.0651,-2.1972,-2.3279,-2.4794,-2.6172,-2.5381,-2.4808,-2.4574,-2.5409,-2.5693,0.0,0.0,0.1905,0.2301,0.2301,0.2716,0.2956,0.2669,0.2646,0.259,0.2403,0.1767,0.131,0.1312,0.0666,0.0185,0.0,0.0,0.0,0.0,0.0,0.0,0.0,0.0,0.0,0.0,0.0,0.0,0.0,0.0,0.0,0.0,0.0,-0.1096,-0.3085,-0.3085,-0.4295,-0.63,-0.63,-0.63,-0.63,-0.63,-0.618,-0.597,-0.5937,-0.5847,-0.5762,-0.572,-0.5698,-0.5671,-0.5671,-0.5559,-0.5416,-0.5416,-0.5206,0.0,0.0,0.0,0.0,0.0,0.0,0.0,0.0,0.0,0.0,0.0,0.0,0.0,0.0,0.0,0.0,0.0,0.0,0.0,-1.112,-1.1313,-1.2688,-1.6206,-1.6744,-1.7339,-1.8735,-1.9599,-2.0107,-2.016,-2.0661,-2.0982,-2.1102,-2.1109,-2.1109,-2.1109,-2.1109,-2.1109,-2.1109,-2.1109,-2.1109,-2.1109,-2.1109,-2.1109,-2.1109,0.0,0.0,-2.1109,-2.1049,-2.0869,-2.0575,-2.0281,-2.1486,-2.3788,-2.3777,-2.5132,-2.7142,-2.6979,-2.6321,-2.5439,-2.5616,-2.5693,-2.5693,0.0073,0.1275,0.2107,0.1807,0.2334,0.2622,0.2126,0.2101,0.2103,0.2005,0.1346,0.0958,0.1081,0.0437,0.0,0.0,0.0,0.0,0.0,0.0,0.0,0.0,0.0,-0.0263,-0.077,-0.027,-0.0271,-0.0784,-0.0275,0.0,0.0,0.0,-0.1096,-0.3085,-0.3085,-0.4295,-0.63,-0.63,-0.63,-0.63,-0.63,-0.6257,-0.6141,-0.6141,-0.612,-0.6064,-0.6051,-0.5932,-0.5813,-0.5888,-0.5772,-0.5603,-0.5674,-0.5542,-0.5332,0.0,0.0,0.0,0.0,0.0,0.0,0.0,0.0,0.0,0.0,0.0,0.0,0.0,0.0,-0.8763,-0.7989,0.0,-1.0279,-1.0907,-1.062,-1.1507,-1.4903,-1.5464,-1.6425,-1.8851,-1.9659,-2.0074,-2.0221,-2.0635,-2.0955,-2.1096,-2.1109,-2.1109,-2.1109,-2.1109,-2.1109,-2.1109,-2.1109,-2.1109,-2.1109,-2.1109,-2.1109,-2.1109,-2.1109,-2.1109,-2.1109,-2.1109,-2.0949,-2.0661,-2.0361,-2.1341,-2.3247,-2.4474,-2.5352,-2.6078,-2.7371,-2.6961,-2.5711,-2.5703,-2.5693,-2.5693,-0.0833,0.0717,0.1801,0.1311,0.1853,0.2153,0.1564,0.156,0.1617,0.161,0.1084,0.0767,0.0871,0.0357,0.0,0.0,0.0,0.0,0.0,0.0,0.0,0.0,0.0,-0.0423,-0.1254,-0.0432,-0.0432,-0.1293,-0.0628,-0.0314,-0.0314,-0.051,-0.1604,-0.3396,-0.3396,-0.4491,-0.63,-0.63,-0.63,-0.63,-0.63,-0.63,-0.63,-0.6261,-0.6261,-0.6293,-0.6255,-0.6067,-0.582,-0.5905,-0.581,-0.5613,-0.5755,-0.5725,-0.5596,-0.5446,-0.5274,0.0,0.0,0.0,0.0,0.0,0.0,0.0,0.0,-0.7585,-0.7647,-0.7872,-0.8108,-0.8283,-0.835,-0.8887,-0.961,-1.0603,-1.0091,-1.0613,-1.3381,-1.401,-1.5311,-1.8525,-1.9443,-1.9913,-2.014,-2.0501,-2.0795,-2.1089,-2.1109,-2.1109,-2.1109,-2.1109,-2.1109,-2.1109,-2.1109,-2.1109,-2.1109,-2.1109,-2.1109,-2.1109,-2.1109,-2.1109,-2.1109,-2.1109,-2.0949,-2.0717,-2.0726,-2.1204,-2.2118,-2.4603,-2.5487,-2.542,-2.7481,-2.723,-2.5676,-2.5703,-2.5693,-2.5693,0.0,0.0516,0.1024,0.0964,0.1465,0.1684,0.1063,0.098,0.0819,0.0286,0.0144,0.0098,0.0127,0.0051,0.0,0.0,0.0,0.0,0.0,0.0,0.0,0.0,0.0,-0.0039,-0.0157,-0.0079,-0.0039,-0.0196,-0.102,-0.1411,-0.145,-0.2345,-0.3398,-0.453,-0.453,-0.5196,-0.63,-0.63,-0.63,-0.63,-0.63,-0.63,-0.63,-0.6099,-0.6141,-0.6276,-0.6095,-0.5948,-0.5803,-0.582,-0.5722,-0.5613,-0.5755,-0.5789,-0.5722,-0.5477,-0.5382,-0.5334,-0.524,-0.607,-0.6933,-0.6661,-0.7152,-0.8024,0.0,-0.8432,-0.7894,-0.9546,-0.9925,-0.9662,-0.8814,-0.9772,-1.0441,-0.9684,-0.9604,-1.0242,-1.2162,-1.244,-1.3641,-1.6909,-1.8768,-1.9913,-2.014,-2.0501,-2.0795,-2.1089,-2.1109,-2.1109,-2.1109,-2.1109,-2.1109,-2.1109,-2.1109,-2.1109,-2.1109,-2.1109,-2.1109,-2.1109,-2.1109,-2.1109,-2.1109,-2.1109,-2.0949,-2.0772,-2.2023,-2.2243,-2.1786,-2.34,-2.5568,-2.7878,-2.8213,-2.723,-2.5676,-2.5703,-2.5693,-2.5693,0.0,-0.0287,0.0379,0.0372,0.0884,0.1073,0.0471,0.0381,0.0297,0.0024,0.0,0.0,0.0,0.0,0.0,0.0,0.0,0.0,0.0,0.0,0.0,0.0,0.0,-0.0549,-0.176,-0.1214,-0.1528,-0.2737,-0.2542,-0.2462,-0.2462,-0.289,-0.3669,-0.4688,-0.4688,-0.5315,-0.63,-0.63,-0.63,-0.63,-0.63,-0.63,-0.6261,-0.606,-0.606,-0.6115,-0.5956,-0.5743,0.0,-0.5742,-0.5647,-0.5532,-0.5728,-0.5745,-0.5654,-0.5566,-0.5586,-0.5661,-0.5857,-0.6376,-0.686,-0.675,-0.7232,-0.7845,-0.8391,-0.8077,-0.7914,-0.8987,-0.9205,-0.9153,-0.8838,-0.9471,-0.9909,-0.9476,-0.9578,-0.9992,-1.071,-1.1527,-1.2576,-1.3922,-1.6419,-1.8561,-2.0046,-2.0501,-2.0795,-2.1089,-2.1109,-2.1109,-2.1109,-2.1109,-2.1109,-2.1109,-2.1109,-2.1109,-2.1109,-2.1109,-2.1109,-2.1109,-2.1109,-2.1109,-2.1109,-2.1109,-2.0855,-2.0455,-2.1082,-2.0936,-2.0393,-2.1015,-2.1963,-2.3473,-2.6952,-2.723,-2.5676,-2.5703,-2.5693,-2.5693,0.0,-0.0851,-0.0202,-0.0022,0.0359,0.0515,0.0067,0.0,0.0,0.0,0.0,0.0,0.0,0.0,0.0,0.0,0.0,0.0,0.0,0.0,0.0,0.0,-0.0265,-0.1009,-0.2206,-0.2105,-0.262,-0.3828,-0.3632,-0.3552,-0.3552,-0.3826,-0.4414,-0.5157,-0.5157,-0.5589,-0.63,-0.63,-0.63,-0.63,-0.63,-0.6265,-0.6183,-0.5999,-0.5882,-0.5828,-0.5716,-0.5538,-0.5346,-0.5515,-0.5386,-0.5255,-0.5477,-0.5515,-0.5481,-0.5566,-0.5749,-0.6006,-0.6412,-0.6614,-0.682,-0.7054,-0.7387,-0.7668,-0.7709,-0.7801,-0.7977,-0.8347,-0.8425,-0.8516,-0.8818,-0.9086,-0.9286,-0.9367,-0.9595,-0.9778,-0.9815,-1.0696,-1.1547,-1.2006,-1.4058,-1.6436,-1.9165,-2.0057,-2.0588,-2.0893,-2.0919,-2.0959,-2.1102,-2.1109,-2.1109,-2.1109,-2.1109,-2.1109,-2.1109,-2.1109,-2.1109,-2.1109,-2.1109,-2.1109,-2.1102,-2.1088,-2.08,-2.0167,-2.0011,-1.9762,-1.9397,-1.9398,-1.9403,-1.9942,-2.546,-2.6787,-2.5709,-2.5674,-2.5693,-2.5693,0.0,0.0,-0.0694,-0.0112,0.0022,0.0022,0.0,0.0,0.0,0.0,0.0,0.0,0.0,0.0,0.0,0.0,0.0,0.0,0.0,0.0,0.0,0.0,-0.0995,-0.1097,-0.0114,-0.2047,-0.2618,-0.1685,-0.3675,-0.4647,-0.4686,-0.5709,-0.6219,-0.6261,-0.6261,-0.6261,-0.63,-0.63,-0.63,-0.63,-0.63,-0.6184,-0.5989,-0.587,-0.5633,-0.5418,-0.5411,-0.529,-0.5081,-0.4974,-0.4843,-0.4738,-0.4897,-0.5005,-0.517,-0.5501,-0.5938,-0.632,-0.647,-0.6692,-0.6984,-0.7468,-0.7692,-0.7841,-0.7941,-0.7978,-0.8029,-0.8245,-0.833,-0.8367,-0.8662,-0.8845,-0.9045,-0.9334,-0.9513,-0.9663,-0.9802,-0.97,-1.0309,-1.2007,-1.2162,-1.3549,0.0,-1.8901,-2.0,-2.0504,-2.0544,-2.067,-2.1096,-2.1109,-2.1109,-2.1109,-2.1109,-2.1109,-2.1109,-2.1109,-2.1109,-2.1109,-2.1109,-2.1109,-2.1096,-2.1081,-2.0784,-2.0196,-1.9636,-1.9437,-1.9403,-1.9391,-1.9389,-1.9808,-2.4097,-2.5765,-2.5703,-2.5693,-2.5693,-2.5693,0.0,0.0,0.0,-0.0749,-0.0333,0.0,0.0,0.0,0.0,0.0,0.0,0.0,0.0,0.0,0.0,0.0,0.0,0.0,0.0,0.0,0.0,0.0,-0.0359,-0.0958,-0.1914,-0.2714,-0.3549,-0.45,-0.5351,-0.5747,-0.5786,-0.6141,-0.63,-0.63,-0.63,-0.63,-0.63,-0.63,-0.6354,-0.6422,-0.6186,-0.6129,-0.6152,-0.5893,-0.5629,-0.5398,0.0,-0.5041,-0.4832,-0.4897,-0.4816,-0.4718,-0.487,-0.4921,-0.5056,-0.5583,-0.602,-0.6395,-0.6797,-0.7139,-0.7434,-0.7678,-0.7851,-0.7928,-0.7978,-0.7988,-0.8042,-0.8279,-0.8313,-0.8363,-0.8559,-0.8767,-0.8971,-0.9244,-0.9459,-0.9643,-0.9751,-0.9767,-0.9876,-1.0348,-1.1745,0.0,0.0,0.0,0.0,-2.0361,-2.0743,-2.0947,-2.1096,-2.1109,-2.1109,-2.1109,-2.1109,-2.1109,-2.1109,-2.1109,-2.1109,-2.1109,-2.1109,-2.1085,-2.1091,-2.034,-1.9873,-1.9654,-1.9492,-1.9424,-1.9403,-1.9398,-1.9409,-1.9833,-2.4034,-2.5703,-2.5719,-2.5693,-2.5693,-2.5693,0.0,0.0,0.0,0.0,0.0,0.0,0.0,0.0,0.0,0.0,0.0,0.0,0.0,0.0,0.0,0.0,0.0,0.0,0.0,0.0,0.0,0.0,-0.0375,-0.0976,-0.1847,-0.2681,-0.3527,-0.4437,-0.526,-0.5666,-0.5676,-0.5981,-0.6136,-0.6136,-0.6136,-0.6136,-0.6136,-0.6136,-0.6187,-0.621,-0.5969,-0.5932,-0.6,-0.5375,-0.5197,0.0,-0.4733,-0.4602,-0.4635,-0.4731,-0.4728,-0.4718,-0.487,-0.5069,-0.5356,-0.5772,-0.6176,-0.6607,-0.7092,-0.7407,-0.7648,-0.7845,-0.7917,-0.7988,-0.7988,-0.7988,-0.8025,-0.8153,-0.813,-0.8203,-0.8395,-0.8486,-0.8713,-0.9057,-0.9244,-0.9446,-0.9757,-0.9798,-0.9791,-0.9795,-1.0921,-1.115,0.0,0.0,0.0,-1.9814,-2.0334,-2.0664,-2.1096,-2.1109,-2.1109,-2.1109,-2.1109,-2.1109,-2.1109,-2.1109,-2.1109,-2.1109,-2.1109,-2.1117,-2.1067,-1.9909,-1.9408,-1.943,-1.9381,-1.9424,-1.941,-1.9378,-1.9287,-1.9498,-2.3423,-2.5277,-2.5673,-2.5682,-2.5693,-2.5693,0.0,0.0,0.0,0.0,0.0,0.0,0.0,0.0,0.0,0.0,0.0,0.0,0.0,0.0,0.0,0.0,0.0,0.0,0.0,0.0,0.0,0.0,-0.0979,-0.1059,-0.0097,-0.2012,-0.2573,-0.1669,-0.3515,-0.4448,-0.4519,-0.5353,-0.5754,-0.5789,-0.5789,-0.5789,-0.5789,-0.5783,-0.575,-0.5714,-0.5595,-0.55,-0.5352,-0.4327,-0.4306,-0.4659,-0.3852,-0.3956,-0.4467,-0.4515,-0.4631,-0.4762,-0.4914,-0.542,-0.5996,-0.602,-0.6438,-0.696,-0.7302,-0.7499,-0.7689,-0.7921,-0.7988,-0.7988,-0.7988,-0.7978,-0.7968,-0.7968,-0.7865,-0.7908,-0.8202,-0.812,-0.819,-0.8785,-0.891,-0.9102,-0.9738,-0.9815,-0.9933,-1.0232,-0.9774,-0.9648,-1.0084,-1.0294,0.0,-1.905,0.0,-1.9955,-2.1026,-2.1109,-2.1109,-2.1109,-2.1109,-2.1109,-2.1109,-2.1109,-2.1109,-2.1109,-2.1109,-2.1085,-2.0996,-1.9898,-1.9383,-1.9424,-1.9424,-1.9424,-1.9424,-1.9424,-1.9011,-1.8863,-2.2272,-2.4407,-2.559,-2.5683,-2.5693,-2.5693,0.0,0.0,0.0,0.0,0.0,0.0,0.0,0.0,0.0,0.0,0.0,0.0,0.0,0.0,0.0,0.0,0.0,0.0,0.0,0.0,0.0,0.0,-0.0276,-0.0592,-0.0966,-0.1632,-0.2182,-0.2558,-0.3149,-0.381,-0.4512,-0.4725,-0.5113,-0.5644,-0.5644,-0.5644,-0.5637,-0.5556,-0.5284,-0.4938,-0.4551,-0.4152,-0.3686,-0.3322,-0.3137,-0.3105,-0.2972,-0.3331,-0.3927,-0.4568,-0.5044,-0.5386,-0.5532,-0.5786,-0.6057,-0.643,-0.6751,-0.7109,-0.7458,-0.7729,-0.7897,-0.7971,-0.7988,-0.7988,-0.7988,-0.7921,-0.7859,-0.7859,-0.776,-0.7692,-0.7745,-0.7887,-0.8126,-0.8548,-0.8922,-0.9281,-0.9741,-1.0011,-1.0166,-1.0143,-1.0304,-1.1426,-1.4084,-1.6678,0.0,0.0,-2.0697,-2.0802,-2.1096,-2.1109,-2.1109,-2.1109,-2.1109,-2.1109,-2.1109,-2.1109,-2.1109,-2.1109,-2.1109,-2.0871,-2.0436,-1.9689,-1.9383,-1.9424,-1.9424,-1.9424,-1.9424,-1.9424,-1.9055,-1.8823,-2.2237,-2.3652,-2.3847,-2.5214,-2.5693,-2.5693,0.0,0.0,0.0,0.0,0.0,0.0,0.0,0.0,0.0,0.0,0.0,0.0,0.0,0.0,0.0,0.0,0.0,0.0,0.0,0.0,0.0,0.0,0.0,-0.0237,-0.071,-0.0853,-0.1144,-0.1638,-0.21,-0.2767,-0.3638,-0.4002,-0.4599,-0.5294,-0.5294,-0.5294,-0.5255,-0.4877,-0.4733,0.0,0.0,-0.3362,-0.332,-0.245,-0.2268,-0.2454,-0.2116,-0.2805,-0.4017,-0.4982,-0.5572,-0.5955,-0.6129,-0.6342,-0.6539,-0.6902,-0.716,-0.7394,-0.7631,-0.7862,-0.7988,-0.7988,-0.7988,-0.797,-0.7852,-0.7816,-0.7762,-0.7538,-0.7497,-0.7493,-0.7407,-0.7632,-0.7974,-0.8357,-0.8775,-0.9258,-0.9734,-1.0201,-1.0421,-1.0365,-1.0575,-1.144,-1.3411,-1.8175,-2.0674,0.0,-2.0549,-2.1081,-2.1102,-2.1109,-2.1109,-2.1109,-2.1109,-2.1109,-2.1109,-2.1109,-2.1109,-2.1109,-2.0836,-2.0538,-2.0167,-1.9626,-1.9397,-1.9424,0.0,-1.9424,-1.9424,-1.9424,-1.9025,-1.8836,-2.1927,-2.2854,-2.268,-2.4911,-2.5693,-2.5693,0.0,0.0,0.0,0.0,0.0,0.0,0.0,0.0,0.0,0.0,0.0,0.0,0.0,0.0,0.0,0.0,0.0,0.0,0.0,0.0,0.0,0.0,0.0,0.0,0.0,0.0,-0.0059,-0.0146,-0.09,-0.1735,-0.2656,-0.342,-0.4154,-0.486,-0.486,-0.486,-0.4827,-0.4074,-0.4077,-0.4448,-0.2935,-0.2714,-0.3138,0.0,0.0,-0.2087,-0.1364,-0.2385,-0.4185,-0.5291,-0.5978,-0.6424,-0.6667,-0.694,-0.7186,-0.7383,-0.7526,-0.7658,-0.7801,-0.7887,-0.7988,-0.7988,-0.7988,-0.7944,-0.7675,-0.7671,-0.7619,-0.7183,-0.7222,-0.727,-0.7094,-0.7299,-0.7699,-0.814,-0.8591,-0.9056,-0.967,-1.0258,-1.0615,-1.0657,-1.0709,-1.0812,-1.0999,-1.6692,-1.9665,-1.7884,-1.9846,-2.1109,-2.1109,-2.1109,-2.1109,-2.1109,-2.1109,-2.1109,-2.1109,-2.1109,-2.1089,-2.1049,-2.0513,-2.0222,-2.0107,-1.9648,-1.9436,-1.9424,0.0,0.0,-1.9424,-1.9325,-1.9092,-1.9023,-2.1479,-2.2253,-2.2257,-2.4766,-2.5693,-2.5674,0.0,0.0,0.0,0.0,0.0,0.0,0.0,0.0,0.0,0.0,0.0,0.0,0.0,0.0,0.0,0.0,0.0,0.0,0.0,0.0,0.0,0.0,0.0,0.0,0.0,0.0,-0.0311,-0.0902,-0.1049,-0.1901,-0.3426,-0.3576,-0.4019,-0.4731,-0.4731,-0.4731,-0.4692,-0.3818,-0.3256,-0.2836,-0.1764,-0.106,-0.0626,0.0,0.0,0.0,-0.1066,-0.2052,-0.3309,-0.4624,-0.5847,-0.6803,-0.6966,-0.7266,-0.755,-0.7692,-0.7753,-0.7807,-0.7911,-0.7968,-0.7988,-0.7988,-0.7988,-0.7921,-0.7746,-0.7565,-0.7418,-0.7137,-0.6968,-0.6805,-0.6795,-0.6987,-0.7324,-0.7828,-0.8248,-0.8801,-0.9551,-0.9941,-1.0224,-1.0521,-1.0605,-1.1271,-1.2714,-1.5229,0.0,0.0,-2.0062,-2.1109,-2.1109,-2.1109,-2.1109,-2.1109,-2.1109,-2.1109,-2.1109,-2.1109,-2.0989,-2.0755,-2.0633,-2.0326,-1.9873,-1.9754,-1.9639,-1.9424,-1.9424,0.0,-1.941,-1.9098,-1.9444,-2.0266,-2.1637,-2.2664,-2.3534,-2.5118,-2.5693,-2.5635,0.0,0.0,0.0,0.0,0.0,0.0,0.0,-0.1655,-0.1011,-0.0707,-0.0275,0.0,0.0,0.0,0.0,0.0,0.0,0.0,0.0,0.0,0.0,0.0,0.0,0.0,0.0,-0.037,-0.074,-0.109,0.0,-0.229,-0.3483,-0.3455,-0.3855,-0.4572,-0.4169,-0.4197,-0.448,-0.2891,-0.2758,-0.3457,-0.1379,-0.0831,0.0,0.0,0.0,0.0,-0.0979,-0.1688,-0.2472,-0.4129,-0.5268,-0.6103,-0.696,-0.7473,-0.7727,-0.7766,-0.7868,-0.7897,-0.7971,-0.7988,-0.7988,-0.7988,-0.7911,-0.7777,-0.7461,-0.7305,-0.7122,-0.6767,-0.6709,-0.6654,-0.6502,-0.6837,-0.7193,-0.7536,-0.796,-0.8516,-0.9266,-0.9561,-0.9869,-1.0327,-1.051,-1.0954,-1.1886,-1.4362,-1.6242,-1.7082,-1.961,-2.1109,-2.1109,-2.1109,-2.1109,-2.1109,-2.1109,-2.1036,-2.0882,-2.0882,-2.0735,-2.0441,-2.0294,-2.0074,-1.98,-1.9646,-1.9499,-1.9424,-1.9424,0.0,-1.9125,-1.8985,-1.9466,-2.0399,-2.1606,-2.2758,-2.384,-2.5226,-2.5693,-2.5625,0.0,0.0,0.0,0.0,0.0,0.0,0.0,-0.2519,-0.1588,-0.1322,-0.0748,-0.0256,-0.0031,0.0,0.0,0.0,0.0,0.0,0.0,0.0,0.0,0.0,0.0,0.0,0.0,0.0,0.0,-0.1101,-0.1692,0.0,0.0,0.0,0.0,0.0,-0.3774,-0.3901,-0.4377,-0.2425,-0.2701,0.0,0.0,-0.1028,0.0,0.0,0.0,0.0,0.0,-0.1244,-0.1784,-0.3384,-0.4261,-0.4879,-0.6188,-0.711,-0.7733,-0.7726,-0.7845,-0.7939,-0.7988,-0.7988,-0.7988,-0.7988,-0.784,-0.7604,-0.721,-0.7079,-0.6927,-0.6422,-0.6508,-0.6536,-0.634,-0.6664,-0.7068,-0.7285,-0.7672,-0.8204,-0.9009,-0.9245,-0.9581,-1.0117,-1.0365,-1.0538,-1.066,-1.3818,0.0,-1.5913,0.0,0.0,-2.1109,-2.1109,-2.1082,-2.1022,-2.1015,-2.0875,-2.0581,-2.0581,-2.0434,-2.014,-1.9907,-1.9766,-1.97,-1.9472,-1.9424,-1.9424,-1.9299,0.0,0.0,-1.8791,-1.9263,-2.0227,-2.1499,-2.2681,-2.384,-2.5226,-2.5693,-2.5615,0.0,0.0,0.0,0.0,0.0,0.0,0.0,-0.3562,-0.3023,-0.1496,-0.1403,-0.1068,-0.01,0.0,0.0,0.0,0.0,0.0,0.0,0.0,0.0,0.0,0.0,0.0,0.0,0.0,0.0,-0.111,-0.1177,0.0,0.0,0.0,0.0,0.0,0.0,-0.4436,-0.4436,-0.3566,0.0,0.0,0.0,0.0,0.0,0.0,0.0,0.0,0.0,-0.0639,-0.1409,-0.1885,-0.2614,-0.335,-0.3821,-0.5556,-0.7444,-0.7592,-0.7723,-0.7836,-0.7988,-0.7988,-0.7988,-0.7988,-0.7889,-0.7668,-0.7197,-0.7024,-0.6834,-0.6559,-0.6412,-0.633,-0.6306,-0.645,-0.6671,-0.7048,-0.7431,-0.7899,-0.8648,-0.9113,-0.95,-0.9825,-1.0236,-1.0497,-1.051,-1.3804,-1.5913,-1.5913,0.0,0.0,-2.1096,-2.1109,-2.0989,-2.0722,-2.0715,-2.0575,-2.0274,-2.0274,-2.0127,-1.984,-1.9813,-1.9659,-1.9464,-1.9437,-1.9424,-1.9352,-1.9085,0.0,0.0,-1.8288,-1.8879,-2.0197,-2.132,-2.2542,-2.384,-2.5226,-2.5693,-2.5567,0.0,0.0,0.0,0.0,0.0,0.0,-0.44,-0.3512,-0.268,-0.219,-0.1251,-0.0489,-0.0036,0.0,0.0,0.0,0.0,0.0,0.0,0.0,0.0,0.0,0.0,0.0,0.0,0.0,-0.0794,-0.1087,-0.1543,0.0,0.0,0.0,0.0,0.0,0.0,-0.4197,-0.4542,-0.3361,0.0,0.0,0.0,0.0,0.0,0.0,0.0,0.0,0.0,0.0,-0.0605,-0.1277,-0.1816,-0.2304,-0.2967,-0.4419,-0.5953,-0.6292,-0.6379,-0.6562,-0.758,-0.7939,-0.7988,-0.7988,-0.7796,-0.7486,-0.7156,-0.6914,-0.6705,-0.6446,-0.6337,-0.63,-0.63,-0.6416,-0.6593,-0.691,-0.7071,-0.7455,-0.815,-0.8462,-0.8818,-0.9476,-0.9795,-1.01,-1.0456,0.0,-1.5075,-1.7061,0.0,0.0,-2.0581,-2.0581,-2.0528,-2.0414,-2.0408,-2.0267,-1.9973,-1.9973,-1.9826,-1.9539,-1.9539,-1.9479,-1.9424,-1.9424,-1.9272,-1.9092,-1.8978,0.0,0.0,-1.8089,-1.8719,-1.9866,-2.0285,-2.1296,-2.2667,-2.3989,-2.4303,-2.4102,0.0,0.0,0.0,0.0,0.0,-0.458,-0.4813,-0.3623,-0.2669,-0.2662,-0.1374,-0.0357,-0.0037,0.0,0.0,0.0,0.0,0.0,0.0,0.0,0.0,0.0,0.0,0.0,0.0,0.0,-0.0927,-0.1238,-0.1752,-0.2518,0.0,0.0,-0.399,-0.4484,0.0,0.0,0.0,0.0,0.0,0.0,0.0,0.0,0.0,0.0,0.0,0.0,0.0,0.0,0.0,0.0,0.0,-0.1227,-0.1854,-0.2864,-0.4067,-0.5225,-0.5747,-0.626,-0.7537,-0.7944,-0.7988,-0.7988,-0.7717,-0.7376,-0.7166,-0.6912,-0.6617,-0.6361,-0.63,-0.63,-0.63,-0.6381,-0.6549,-0.6814,-0.6856,-0.7129,-0.7826,-0.8052,-0.8374,-0.9096,-0.9357,-0.9673,-1.0181,-1.2361,-1.4916,0.0,0.0,0.0,0.0,-2.0027,-2.0013,-2.01,-2.0107,-1.9967,-1.9673,-1.9673,-1.9573,-1.9424,-1.9424,-1.9424,-1.9424,-1.9279,-1.9125,-1.8911,0.0,0.0,0.0,-1.7896,-1.8347,-1.9065,-1.9428,-2.0238,-2.1229,-2.2488,-2.2725,-2.2571,0.0,0.0,0.0,0.0,0.0,0.0,-0.467,-0.4164,-0.3464,-0.2609,-0.1959,-0.1165,-0.0109,0.0,0.0,0.0,0.0,0.0,0.0,0.0,0.0,0.0,0.0,0.0,0.0,0.0,-0.0538,-0.1608,-0.1592,-0.2104,-0.3116,-0.3707,-0.401,-0.4033,0.0,0.0,0.0,0.0,0.0,0.0,0.0,0.0,0.0,0.0,0.0,0.0,0.0,0.0,0.0,0.0,0.0,0.0,0.0,-0.0639,-0.1871,-0.4603,-0.634,-0.7479,-0.7866,-0.799,-0.7988,-0.7988,-0.7818,-0.7519,-0.7166,-0.6912,-0.6617,-0.6361,-0.63,-0.63,-0.63,-0.6303,-0.6399,-0.6654,-0.6831,-0.7092,-0.7729,-0.8075,-0.8381,-0.8682,-0.8977,-0.9337,-0.9588,-1.3057,-1.6,0.0,0.0,0.0,0.0,-1.9533,-1.9506,-1.98,-1.9806,-1.9666,-1.943,-1.943,-1.943,-1.9424,-1.9424,-1.9424,-1.9417,-1.9065,-1.8925,0.0,0.0,0.0,0.0,-1.7716,-1.7635,-1.7733,-1.9065,-1.9627,-1.9737,-2.084,-2.1205,-2.1293,0.0,0.0,0.0,0.0,0.0,0.0,0.0,-0.4033,-0.3267,-0.2588,-0.1763,-0.095,-0.0109,0.0,0.0,0.0,0.0,0.0,0.0,0.0,0.0,0.0,0.0,0.0,0.0,0.0,-0.1254,-0.1596,-0.2381,-0.3202,-0.4054,-0.4356,-0.4661,-0.4954,-0.5163,-0.5162,0.0,0.0,0.0,0.0,0.0,0.0,0.0,0.0,0.0,0.0,0.0,0.0,0.0,0.0,0.0,0.0,0.0,0.0,0.0,-0.4482,-0.5197,-0.5873,-0.6936,-0.7304,-0.7366,-0.7405,-0.7237,-0.7088,-0.6885,-0.6685,-0.6528,-0.6337,-0.63,-0.63,-0.63,-0.63,-0.6429,-0.6793,-0.6856,-0.7058,-0.7597,-0.7923,-0.8262,-0.8662,-1.0302,-1.1418,0.0,0.0,0.0,0.0,0.0,0.0,0.0,-1.9477,-1.947,-1.9499,-1.9506,-1.9459,-1.9424,-1.9424,-1.9424,-1.9424,-1.9158,-1.9065,-1.9052,-1.8764,0.0,0.0,0.0,0.0,0.0,-1.7622,-1.7582,-1.7615,-1.7867,-1.7939,-1.8205,-2.0091,-2.0578,-2.0568,0.0,0.0,0.0,0.0,0.0,0.0,0.0,-0.3911,-0.3114,-0.2474,-0.1647,-0.0829,-0.0071,0.0,0.0,0.0,0.0,0.0,0.0,0.0,0.0,0.0,0.0,0.0,0.0,-0.125,-0.2021,-0.284,-0.3558,-0.4392,-0.5335,-0.5363,-0.5526,-0.5733,-0.5614,-0.5443,0.0,0.0,0.0,0.0,0.0,0.0,0.0,0.0,0.0,0.0,0.0,0.0,0.0,0.0,0.0,0.0,0.0,0.0,0.0,0.0,-0.4766,-0.5428,-0.6514,-0.694,-0.7123,-0.7119,-0.6991,-0.6846,-0.6736,-0.6583,-0.647,-0.633,-0.63,-0.63,-0.63,-0.63,-0.6429,-0.678,-0.6849,-0.7085,-0.7536,-0.7851,-0.8157,-0.8659,-1.0777,0.0,0.0,-1.5309,0.0,0.0,0.0,0.0,0.0,-1.9199,-1.9152,-1.9038,-1.931,-1.9424,-1.9424,-1.9424,-1.9312,-1.9199,-1.9011,-1.8865,-1.8751,-1.8457,0.0,0.0,0.0,0.0,0.0,-1.7582,-1.7515,-1.7454,-1.7273,-1.7132,-1.7194,-1.8483,-1.9089,-1.95,0.0,0.0,0.0,0.0,0.0,0.0,0.0,-0.3892,-0.3132,-0.2385,-0.1702,-0.0985,-0.0278,-0.021,-0.0213,-0.0218,0.0,0.0,0.0,0.0,0.0,0.0,0.0,0.0,0.0,-0.176,-0.2834,-0.4885,-0.4981,-0.5633,-0.6715,-0.658,-0.647,-0.6303,-0.5966,-0.5749,0.0,0.0,0.0,0.0,0.0,0.0,0.0,0.0,0.0,0.0,0.0,0.0,0.0,0.0,0.0,0.0,0.0,0.0,0.0,0.0,0.0,0.0,0.0,-0.6837,-0.7014,-0.7004,-0.6903,-0.6768,-0.6668,-0.6536,0.0,-0.631,-0.6293,-0.6306,-0.6327,-0.6323,-0.6419,-0.6698,-0.6868,-0.7115,-0.7553,-0.7889,-0.8204,-0.8706,-1.0639,0.0,-1.1972,0.0,0.0,0.0,0.0,0.0,0.0,-1.8891,-1.8771,-1.8497,-1.9018,-1.9363,-1.9363,-1.9363,-1.9165,-1.8891,-1.8871,-1.8724,-1.845,-1.8095,0.0,0.0,0.0,0.0,0.0,-1.7528,-1.7414,-1.7166,-1.7146,-1.6971,-1.664,-1.6444,-1.7098,-1.8231,0.0,0.0,0.0,0.0,0.0,0.0,0.0,0.0,0.0,0.0,-0.3122,-0.2763,-0.2119,-0.2173,-0.2225,0.0,0.0,0.0,0.0,0.0,0.0,0.0,0.0,0.0,0.0,-0.3503,-0.4282,-0.4885,-0.5929,-0.6583,-0.6875,-0.6906,-0.6783,-0.6453,-0.6272,-0.604,0.0,0.0,0.0,0.0,0.0,0.0,0.0,0.0,0.0,0.0,-0.4049,-0.3653,0.0,0.0,0.0,0.0,0.0,0.0,0.0,0.0,-0.5436,-0.5671,-0.5813,0.0,-0.6222,-0.6146,-0.6091,-0.6057,0.0,-0.6074,-0.6122,-0.6091,-0.6179,-0.6368,-0.6556,-0.6542,-0.6637,-0.7173,-0.7244,-0.7383,-0.7716,-0.8218,-0.872,-0.9171,-1.1936,-1.3722,-1.3659,0.0,0.0,0.0,0.0,0.0,0.0,-1.8591,-1.8564,-1.8497,-1.8624,-1.8698,-1.8698,-1.8698,-1.8664,-1.8591,-1.8308,-1.8162,-1.8089,-1.7836,0.0,0.0,0.0,0.0,-1.7286,-1.7007,-1.6867,-1.6787,-1.6616,-1.644,-1.648,-1.7125,-1.7569,-1.8109,0.0,0.0,0.0,0.0,0.0,0.0,0.0,0.0,0.0,0.0,0.0,0.0,0.0,0.0,0.0,0.0,0.0,0.0,0.0,0.0,0.0,0.0,0.0,-0.2753,-0.3723,-0.4433,-0.5107,-0.5731,-0.6521,-0.692,-0.6984,-0.7061,-0.6939,-0.6566,-0.6281,-0.6061,0.0,0.0,0.0,0.0,0.0,0.0,0.0,0.0,0.0,0.0,-0.4208,-0.4056,0.0,-0.3661,-0.4227,-0.5072,0.0,0.0,0.0,0.0,-0.5518,-0.5518,-0.5518,-0.5803,-0.6115,-0.6034,-0.601,-0.601,-0.601,-0.5966,-0.5909,-0.5979,-0.6098,-0.6247,-0.6539,-0.6583,-0.6729,-0.719,-0.7874,-0.8734,-0.9871,-0.98,-0.977,-1.0239,-1.2607,-1.4166,0.0,0.0,0.0,0.0,0.0,0.0,0.0,-1.829,-1.8223,-1.8083,-1.8076,-1.821,-1.849,-1.849,-1.8424,-1.8283,-1.8069,-1.7916,-1.7822,-1.7522,-1.7434,0.0,0.0,0.0,-1.6934,-1.6774,-1.6627,-1.6493,-1.6382,-1.6186,-1.6142,-1.663,-1.7178,-1.787,0.0,0.0,0.0,0.0,0.0,0.0,0.0,0.0,0.0,0.0,0.0,0.0,0.0,0.0,0.0,0.0,0.0,0.0,0.0,0.0,0.0,0.0,0.0,-0.3843,-0.4922,-0.5065,-0.5649,-0.6736,-0.6846,-0.7004,-0.7166,-0.7166,-0.7027,-0.6681,-0.6254,-0.6027,0.0,0.0,0.0,0.0,0.0,0.0,0.0,0.0,0.0,0.0,0.0,0.0,0.0,-0.4555,-0.5161,-0.5827,-0.5783,0.0,0.0,0.0,0.0,0.0,-0.545,-0.5873,-0.6282,-0.6214,-0.6231,-0.6259,-0.6235,-0.6006,-0.5874,-0.5966,-0.6013,-0.6162,-0.6481,-0.6647,-0.6841,-0.7115,-0.8528,-1.0244,-1.2318,-1.1674,-1.1093,-1.1269,-1.303,0.0,0.0,0.0,0.0,0.0,0.0,0.0,0.0,-1.7922,-1.7856,-1.7589,-1.7582,-1.7829,-1.8343,-1.835,-1.823,-1.7922,-1.7922,-1.7816,-1.7508,-1.7313,-1.7172,0.0,0.0,0.0,-1.6633,-1.6587,-1.6426,-1.6206,-1.6206,-1.6052,-1.5784,-1.5784,-1.648,-1.7458,0.0,0.0,0.0,0.0,0.0,0.0,0.0,0.0,0.0,0.0,0.0,0.0,0.0,0.0,0.0,0.0,0.0,0.0,0.0,0.0,0.0,-0.5803,-0.4925,-0.4965,-0.6028,-0.6089,-0.6344,-0.6852,-0.6994,-0.7206,-0.7529,-0.7529,-0.7234,-0.6685,-0.6369,-0.6265,-0.6255,0.0,0.0,0.0,0.0,0.0,0.0,0.0,0.0,0.0,0.0,0.0,0.0,-0.5285,-0.5575,-0.5912,-0.5701,0.0,0.0,0.0,0.0,0.0,-0.5667,-0.603,-0.6207,-0.5822,-0.5881,-0.603,-0.5901,-0.5935,-0.5963,-0.5986,-0.6135,-0.6356,-0.678,-0.6836,-0.7034,-0.7461,-0.8792,-1.0404,0.0,0.0,-1.2039,-1.1359,0.0,0.0,0.0,0.0,0.0,0.0,0.0,0.0,0.0,-1.7655,-1.7629,-1.7582,-1.7582,-1.7622,-1.7722,-1.7722,-1.7695,-1.7655,-1.7655,-1.7502,-1.7266,-1.7226,-1.7065,0.0,0.0,-1.6339,-1.6319,-1.6066,-1.5891,-1.5899,-1.5899,-1.5872,-1.5784,-1.5784,-1.592,-1.6244,0.0,0.0,0.0,0.0,0.0,0.0,0.0,0.0,0.0,0.0,0.0,0.0,0.0,0.0,0.0,0.0,0.0,0.0,0.0,0.0,0.0,-0.6412,-0.5947,-0.5905,-0.6412,-0.6536,-0.6759,-0.7001,-0.723,-0.7461,-0.7594,-0.735,-0.7044,-0.6688,-0.6433,-0.63,-0.6293,-0.6183,0.0,0.0,0.0,0.0,0.0,0.0,0.0,0.0,0.0,0.0,0.0,0.0,-0.5674,-0.5871,-0.5657,0.0,0.0,0.0,0.0,0.0,-0.5562,-0.5844,-0.6088,-0.5878,-0.6134,-0.6458,-0.6427,-0.6335,-0.6291,-0.6376,-0.6892,-0.7242,-0.6943,-0.8131,-0.9576,-1.082,-1.1574,-1.2651,-1.456,-1.4134,-1.3579,0.0,0.0,0.0,0.0,0.0,0.0,0.0,0.0,0.0,0.0,0.0,-1.7108,-1.7108,-1.7108,-1.7108,-1.7108,-1.7108,-1.7188,-1.74,-1.74,-1.7246,-1.6907,-1.6797,-1.665,-1.646,0.0,-1.6032,-1.6019,-1.5838,-1.5784,-1.5784,-1.5784,-1.5784,-1.5784,-1.5784,-1.5784,-1.5872,0.0,0.0,0.0,0.0,0.0,0.0,0.0,0.0,0.0,0.0,0.0,0.0,0.0,0.0,0.0,0.0,0.0,0.0,0.0,0.0,-0.6347,-0.6457,-0.6494,-0.6562,-0.6627,-0.6824,-0.6991,-0.7203,-0.7485,-0.76,-0.759,-0.7173,-0.6878,-0.6688,-0.6467,-0.633,-0.63,-0.63,-0.63,0.0,0.0,0.0,0.0,0.0,0.0,0.0,0.0,0.0,0.0,0.0,0.0,0.0,0.0,0.0,0.0,-0.5474,-0.5395,-0.5412,-0.5481,-0.5715,-0.5956,-0.6064,-0.643,-0.6881,-0.7279,-0.7139,-0.7093,-0.7583,-0.8308,-0.8677,-0.8045,-0.9748,-1.1833,-1.3624,-1.3926,-1.4528,-1.6328,-1.5689,-1.5074,0.0,0.0,0.0,0.0,0.0,0.0,0.0,0.0,0.0,0.0,0.0,-1.6707,-1.6707,-1.6707,-1.6707,-1.6707,-1.6707,-1.682,-1.7099,-1.7099,-1.6945,-1.66,-1.6373,-1.6239,-1.6152,-1.5925,-1.5784,-1.5784,-1.5784,-1.5784,-1.5784,-1.5784,-1.5784,-1.5784,-1.5784,-1.5784,-1.5784,0.0,0.0,0.0,0.0,0.0,0.0,0.0,0.0,0.0,0.0,0.0,0.0,0.0,0.0,0.0,0.0,0.0,0.0,0.0,0.0,-0.6306,-0.6313,-0.6443,-0.6668,-0.7038,-0.6943,-0.7139,-0.7567,-0.759,-0.76,-0.7594,-0.723,-0.693,-0.6695,-0.6529,-0.6422,-0.63,-0.63,-0.63,-0.6286,0.0,0.0,0.0,0.0,0.0,0.0,0.0,0.0,0.0,0.0,0.0,0.0,0.0,0.0,-0.5572,-0.5443,-0.5395,-0.5453,-0.5694,-0.5793,-0.5884,-0.6211,-0.6317,-0.6767,-0.8401,-0.8515,-0.8716,-1.0349,-1.077,-1.0832,-1.0952,-1.1359,-1.2162,-1.3682,-1.3926,-1.4461,-1.6106,0.0,0.0,0.0,0.0,0.0,0.0,0.0,0.0,0.0,0.0,0.0,0.0,0.0,0.0,-1.6707,-1.6707,-1.6707,-1.6707,-1.6707,-1.6714,-1.674,-1.674,-1.6587,-1.6348,-1.6335,-1.6119,-1.5811,-1.5791,-1.5784,-1.5784,-1.5784,-1.5784,-1.5784,-1.5784,-1.5784,-1.5784,-1.5784,-1.5784,-1.5784,0.0,0.0,0.0,0.0,0.0,0.0,0.0,0.0,0.0,0.0,0.0,0.0,0.0,0.0,0.0,0.0,0.0,0.0,0.0,-0.6084,-0.62,-0.6422,-0.6484,-0.6641,-0.6957,-0.7136,-0.7377,-0.7733,-0.7733,-0.7638,-0.7455,-0.7241,-0.694,-0.6695,-0.6539,-0.6433,-0.63,-0.63,-0.63,-0.6293,-0.6235,0.0,0.0,0.0,0.0,0.0,0.0,0.0,0.0,0.0,-0.5498,-0.5562,-0.5443,-0.5501,-0.5559,-0.544,-0.5395,-0.5419,-0.5532,-0.6397,-0.7265,-0.7076,-0.794,-0.8877,-0.9011,-0.9057,-0.9526,-1.1106,-1.1939,-1.268,-1.3674,-1.3373,-1.3396,-1.4858,-1.5092,-1.5393,-1.6177,0.0,0.0,0.0,0.0,0.0,0.0,0.0,0.0,0.0,0.0,0.0,0.0,0.0,0.0,-1.6159,-1.6159,-1.6159,-1.6159,-1.6159,-1.6159,-1.6159,-1.6346,-1.6279,-1.5999,-1.5999,-1.5939,-1.5784,-1.5784,-1.5784,-1.5784,-1.5784,-1.5784,-1.5784,-1.5784,-1.5784,-1.5784,-1.5784,-1.5784,-1.5784,0.0,0.0,0.0,0.0,0.0,0.0,0.0,0.0,0.0,0.0,0.0,0.0,0.0,0.0,0.0,0.0,0.0,0.0,-0.5884,-0.5942,-0.6118,-0.6322,-0.6463,-0.6593,-0.6851,-0.7102,-0.7377,-0.7672,-0.7672,-0.757,-0.7412,-0.7166,-0.6923,-0.6763,-0.6563,-0.6457,-0.6364,-0.632,-0.63,-0.63,-0.63,-0.6115,0.0,0.0,0.0,0.0,0.0,0.0,0.0,0.0,-0.5321,-0.5426,-0.5321,-0.5429,-0.5532,-0.5426,-0.5659,-0.5929,-0.5929,-0.7126,-0.8347,-0.813,-0.9222,-1.031,-1.0295,-1.0396,-1.1,-1.2659,-1.3525,-1.4312,-1.5352,-1.4871,-1.4694,0.0,-1.5784,-1.5899,0.0,0.0,0.0,0.0,0.0,0.0,0.0,0.0,0.0,0.0,0.0,0.0,0.0,0.0,0.0,0.0,-1.5784,-1.5784,-1.5784,-1.5784,-1.5784,-1.5784,-1.6039,-1.6025,-1.5784,-1.5784,-1.5784,-1.5784,-1.5784,-1.5784,-1.5784,-1.5784,-1.5784,-1.5784,-1.5784,-1.5784,-1.5784,-1.5784,-1.5784,-1.5784,0.0,0.0,0.0,0.0,0.0,0.0,0.0,0.0,0.0,0.0,0.0,0.0,0.0,0.0,0.0,0.0,0.0,0.0,-0.5589,-0.5864,-0.599,-0.5993,-0.6312,-0.6539,-0.6695,-0.6848,-0.7071,-0.7412,-0.7412,-0.7412,-0.7405,-0.7065,-0.6883,-0.6869,-0.661,-0.6511,-0.6497,-0.6358,-0.6296,-0.6296,-0.6296,-0.6112,0.0,0.0,0.0,0.0,0.0,0.0,0.0,0.0,-0.4982,-0.5096,-0.51,-0.5237,-0.5395,-0.5395,-0.6202,-0.7082,-0.7116,-0.794,-0.8886,-0.9222,-0.9771,-1.0699,-1.2445,-1.282,-1.3393,-1.5398,-1.5784,-1.5784,-1.5784,-1.5784,-1.5784,-1.5784,-1.5784,0.0,0.0,0.0,0.0,0.0,0.0,0.0,0.0,0.0,0.0,0.0,0.0,0.0,0.0,0.0,0.0,0.0,-1.5784,-1.5784,-1.5784,-1.5784,-1.5784,-1.5784,-1.5784,-1.5784,-1.5784,-1.5784,-1.5784,-1.5784,-1.5784,-1.5784,-1.5784,-1.5784,-1.5784,-1.5784,-1.5784,-1.5784,-1.5784,-1.5784,-1.5784,-1.5784,0.0,0.0,0.0,0.0,0.0,0.0,0.0,0.0,0.0,0.0,0.0,0.0,0.0,0.0,0.0,0.0,0.0,0.0,-0.5658,-0.5674,-0.5813,-0.5983,-0.6077,-0.6234,-0.6426,-0.6532,-0.6756,-0.7061,-0.716,-0.7102,-0.6898,-0.6919,-0.6814,-0.661,-0.6624,-0.6458,-0.6159,-0.6115,-0.6098,-0.6098,-0.6098,-0.5979,0.0,0.0,0.0,0.0,0.0,0.0,0.0,0.0,0.0,0.0,-0.5066,-0.5237,-0.5524,-0.6137,-0.6626,-0.7082,-0.7574,-0.9016,-1.0363,-1.0475,-1.1866,-1.3439,-1.4158,-1.3854,-1.386,-1.5476,-1.5784,-1.5784,-1.5784,-1.5784,0.0,-1.5784,-1.5784,0.0,0.0,0.0,0.0,0.0,0.0,0.0,0.0,0.0,0.0,0.0,0.0,0.0,0.0,0.0,0.0,0.0,-1.5784,-1.5784,-1.5784,-1.5784,-1.5784,-1.5784,-1.5784,-1.5784,-1.5784,-1.5784,-1.5784,-1.5784,-1.5784,-1.5784,-1.5784,-1.5784,-1.5784,-1.5784,-1.5784,-1.5784,-1.5784,-1.5784,-1.5784,-1.5784,0.0,0.0,0.0,0.0,0.0,0.0,0.0,0.0,0.0,0.0,0.0,0.0,0.0,0.0,0.0,0.0,0.0,0.0,0.0,-0.5555,-0.5694,-0.5928,-0.5959,-0.6101,-0.6296,-0.6501,-0.6597,-0.6664,-0.6865,-0.6875,-0.6705,-0.6858,-0.6831,-0.6654,-0.6685,-0.6515,-0.6196,-0.604,-0.5993,-0.5993,-0.5993,-0.5939,-0.58,0.0,0.0,0.0,0.0,0.0,0.0,0.0,0.0,0.0,-0.4988,-0.5297,-0.5777,-0.6551,-0.7356,-0.8185,-0.8967,-1.0437,-1.1797,-1.2136,-1.3354,-1.4656,-1.5184,-1.4921,-1.476,-1.565,-1.5784,-1.5784,-1.5784,-1.5784,0.0,-1.5784,0.0,0.0,0.0,0.0,0.0,0.0,0.0,0.0,0.0,0.0,0.0,0.0,0.0,0.0,0.0,0.0,0.0,0.0,-1.5784,-1.5784,-1.5784,-1.5784,-1.5784,-1.5784,-1.5784,-1.5784,-1.5784,-1.5784,-1.5784,-1.5784,-1.5784,-1.5784,-1.5784,-1.5784,-1.5784,-1.5784,-1.5784,-1.5784,-1.5784,-1.5784,-1.5784,-1.5784,0.0,0.0,0.0,0.0,0.0,0.0,0.0,0.0,0.0,0.0,-1.0861,0.0,0.0,0.0,0.0,0.0,0.0,0.0,0.0,0.0,-0.5755,-0.5793,-0.5973,-0.6142,-0.6337,-0.6549,-0.6549,-0.632,-0.6549,-0.6671,-0.6664,-0.6831,-0.6852,-0.6861,-0.6736,-0.658,-0.6433,-0.6108,-0.5952,-0.5952,-0.5952,-0.5908,-0.5779,-0.5766,0.0,0.0,0.0,0.0,0.0,0.0,0.0,0.0,-0.4904,-0.5419,-0.6145,-0.6819,-0.8289,-0.9876,-1.0791,-1.1909,-1.3005,-1.3861,-1.4362,-1.485,-1.5598,-1.5784,-1.5784,-1.5784,-1.5784,-1.5784,-1.5784,-1.5784,-1.5784,0.0,0.0,0.0,0.0,0.0,0.0,0.0,0.0,0.0,0.0,0.0,0.0,0.0,0.0,0.0,0.0,0.0,0.0,0.0,-1.5683,-1.5635,-1.5635,-1.5486,-1.5439,0.0,-1.5439,-1.5486,-1.5635,-1.573,-1.5784,-1.5784,-1.5784,-1.5784,-1.5784,-1.5784,-1.5784,-1.5784,-1.5784,-1.5784,-1.5784,-1.5784,-1.5784,-1.5784,0.0,0.0,0.0,0.0,0.0,0.0,0.0,0.0,0.0,0.0,0.0,0.0,0.0,0.0,0.0,0.0,0.0,0.0,0.0,0.0,-0.6371,-0.5832,-0.6173,-0.6447,-0.6603,-0.6552,-0.6528,-0.6467,-0.6528,-0.6504,-0.6402,-0.6627,-0.6627,-0.645,-0.6525,-0.6305,-0.5935,-0.5759,-0.5684,-0.5684,-0.5684,-0.5664,-0.5623,-0.5535,-0.5342,0.0,0.0,0.0,0.0,0.0,0.0,0.0,-0.5019,-0.5579,-0.6362,-0.7463,-0.8613,-0.9787,-1.0972,-1.2055,-1.3005,-1.3861,-1.4823,-1.5551,-1.5738,-1.5784,-1.5784,-1.5784,-1.5784,-1.5784,-1.5784,-1.5784,-1.5784,0.0,0.0,0.0,0.0,0.0,0.0,0.0,0.0,0.0,0.0,0.0,0.0,0.0,0.0,0.0,0.0,0.0,0.0,-1.5784,-1.4854,-1.4316,-1.4316,-1.3253,-1.2721,0.0,-1.2721,-1.3301,-1.4364,-1.5337,-1.5784,-1.5784,-1.5784,-1.5784,-1.5784,-1.5784,-1.5784,-1.5784,-1.5784,-1.5784,-1.5784,-1.5784,-1.5784,-1.5784,0.0,0.0,0.0,0.0,0.0,0.0,0.0,0.0,0.0,0.0,0.0,0.0,0.0,0.0,0.0,0.0,0.0,0.0,0.0,-0.7012,-0.6519,-0.5825,-0.623,-0.6518,-0.6488,-0.6453,-0.6412,-0.6412,-0.6298,-0.6261,-0.6306,-0.6563,-0.6617,-0.6511,-0.6511,-0.6344,-0.6003,-0.5715,-0.5589,-0.5589,-0.5589,-0.5545,-0.5504,-0.5426,-0.5223,-0.4988,-0.4914,0.0,0.0,0.0,0.0,0.0,0.0,0.0,-0.729,-0.807,-0.9005,-1.007,-1.1299,-1.2221,-1.3072,-1.4258,-1.517,-1.5784,-1.5784,-1.5784,-1.5784,-1.5784,-1.5784,-1.5784,-1.5784,-1.5784,0.0,0.0,0.0,0.0,0.0,0.0,0.0,0.0,0.0,0.0,0.0,0.0,0.0,0.0,0.0,0.0,0.0,-1.5784,-1.5784,-1.5784,-1.5146,-1.48,-1.48,-1.3494,-1.2861,-1.2861,-1.2123,-1.2442,-1.3619,-1.5119,-1.5784,-1.5784,-1.5784,-1.5784,-1.5784,-1.5784,-1.5784,-1.5764,-1.5678,-1.5705,-1.5764,-1.5671,-1.5712,-1.5784,0.0,0.0,0.0,0.0,0.0,0.0,0.0,0.0,0.0,0.0,0.0,0.0,0.0,0.0,0.0,0.0,0.0,0.0,0.0,-0.7438,-0.6717,-0.615,-0.6503,-0.6587,-0.6337,-0.6313,-0.63,-0.63,-0.6081,-0.6108,-0.6381,-0.6586,-0.6685,-0.6654,-0.6569,-0.6405,-0.619,-0.5764,-0.5535,-0.5508,-0.5484,-0.5399,-0.5313,-0.5289,-0.5094,-0.485,-0.485,-0.4937,-0.5079,-0.5199,0.0,0.0,0.0,0.0,-0.8214,-0.8469,-0.9277,-1.0274,-1.1383,-1.2261,-1.3213,-1.4653,-1.5364,-1.5718,-1.5771,-1.5784,-1.5784,-1.5784,-1.5784,-1.5784,-1.5784,-1.5784,0.0,0.0,0.0,0.0,0.0,0.0,0.0,0.0,0.0,0.0,0.0,0.0,0.0,0.0,0.0,0.0,-1.5778,-1.5785,-1.5752,-1.5752,-1.5463,-1.5241,-1.5053,-1.3743,-1.3023,-1.2778,-1.2015,-1.2158,-1.3223,-1.4888,-1.5678,-1.5678,-1.5678,-1.5678,-1.5678,-1.5678,-1.5678,-1.5658,-1.5418,-1.5471,-1.5651,-1.5411,-1.5471,-1.5678,0.0,0.0,0.0,0.0,0.0,0.0,0.0,0.0,0.0,0.0,-1.1335,-1.1335,-1.1335,-1.0922,0.0,0.0,0.0,0.0,-0.9177,0.0,0.0,-0.7374,-0.7425,-0.7141,-0.648,-0.6364,-0.63,-0.63,-0.5973,-0.6108,-0.6641,-0.6681,-0.663,-0.6542,-0.6521,-0.6282,-0.584,-0.5559,-0.5315,-0.515,-0.5026,-0.4996,-0.4962,-0.483,-0.4755,-0.4721,-0.4721,-0.5151,-0.5694,-0.5848,-0.6371,0.0,0.0,0.0,-0.7999,-0.834,-0.9045,-0.9916,-1.0586,-1.1917,-1.344,-1.4707,-1.5211,-1.5518,-1.5772,-1.5784,-1.5784,-1.5784,-1.5784,-1.5784,-1.5784,0.0,0.0,0.0,0.0,0.0,0.0,0.0,0.0,0.0,0.0,0.0,0.0,0.0,0.0,0.0,0.0,0.0,-1.5764,-1.5591,-1.5451,-1.5451,-1.408,-1.2888,-1.1923,-1.0575,-0.9418,-0.8447,-1.0417,-1.1951,-1.3069,-1.4482,-1.5122,-1.5122,-1.5122,-1.5122,-1.5122,-1.5122,-1.5122,-1.5122,-1.5082,-1.5095,-1.5122,-1.5082,-1.5095,-1.5122,0.0,0.0,0.0,0.0,0.0,0.0,0.0,0.0,0.0,0.0,0.0,-1.1243,-1.1375,-1.0909,0.0,0.0,0.0,0.0,-0.937,-0.9069,0.0,0.0,-0.8015,-0.7679,-0.684,-0.662,-0.6367,-0.6003,-0.5736,-0.5949,-0.6702,-0.6702,-0.68,-0.7009,-0.6712,-0.6441,-0.6142,-0.5627,-0.5274,-0.5086,-0.4945,-0.5384,-0.6061,-0.5514,-0.5814,-0.649,-0.5962,-0.598,-0.6262,-0.6433,-0.7055,-0.7695,-0.7569,0.0,0.0,0.0,-0.9013,-0.9666,-1.0748,-1.1857,-1.2986,-1.4175,-1.4689,-1.4983,-1.5277,-1.5344,-1.5344,-1.5344,-1.5344,-1.5444,0.0,0.0,0.0,0.0,0.0,0.0,0.0,0.0,0.0,0.0,0.0,0.0,0.0,0.0,0.0,0.0,0.0,-1.5211,-1.5337,-1.5224,-1.5202,-1.5202,-1.4469,-1.3574,-1.2387,-1.1048,-0.9435,-0.7518,-0.8605,-0.9994,-1.1701,-1.2279,-1.3427,-1.5008,-1.5008,-1.5008,-1.5008,-1.5008,-1.5008,-1.4995,-1.4776,-1.4816,-1.4988,-1.4776,-1.4823,-1.5008,0.0,0.0,0.0,0.0,0.0,0.0,0.0,0.0,0.0,0.0,0.0,0.0,-1.1289,0.0,0.0,0.0,0.0,0.0,-0.956,0.0,0.0,0.0,0.0,-0.8255,-0.7394,-0.7091,-0.6785,-0.6412,-0.6187,-0.6586,-0.7579,-0.7291,-0.7469,-0.8027,-0.7243,-0.6702,-0.6419,-0.5818,-0.544,-0.5284,-0.5413,-0.6133,-0.7075,-0.6879,-0.7425,-0.8223,-0.7374,-0.711,-0.7203,-0.7137,-0.7672,-0.8321,-0.8165,-0.8563,0.0,0.0,0.0,-0.9371,-1.0641,-1.141,-1.2144,-1.334,-1.3968,-1.4396,-1.4763,-1.4955,-1.5008,0.0,-1.5008,-1.5142,0.0,0.0,0.0,0.0,0.0,0.0,0.0,0.0,0.0,0.0,0.0,0.0,0.0,0.0,0.0,0.0,0.0,-1.4928,-1.5008,-1.4941,-1.485,-1.485,-1.4827,-1.4192,-1.2966,-1.1427,-0.9727,-0.7761,-0.7761,-0.8928,-1.1037,-1.1037,-1.2421,-1.4787,-1.4787,-1.4787,-1.4787,-1.4787,-1.4787,-1.476,-1.4496,-1.4543,-1.476,-1.4496,-1.4549,-1.4787,0.0,0.0,0.0,0.0,0.0,0.0,0.0,0.0,0.0,0.0,0.0,0.0,-1.1015,-1.0774,-1.0593,-1.0593,0.0,0.0,0.0,0.0,0.0,0.0,0.0,0.0,-0.8146,-0.7824,-0.7782,-0.8078,-0.7946,-0.8608,-0.9974,-0.8848,-0.8861,-0.9783,-0.8134,-0.6982,-0.6296,-0.6074,-0.5908,-0.5845,-0.6639,-0.7028,-0.7264,-0.8899,-0.9373,-0.9135,-0.8516,-0.8546,-0.8764,-0.7932,-0.8148,-0.8778,-0.8752,-0.8778,-0.8824,0.0,0.0,0.0,-0.9606,-1.0231,-1.0961,-1.2104,-1.3046,-1.38,-1.4372,-1.4763,-1.5008,-1.5008,-1.5008,-1.5022,0.0,0.0,0.0,0.0,0.0,0.0,0.0,0.0,0.0,0.0,0.0,0.0,0.0,0.0,0.0,0.0,0.0,-1.4669,-1.4995,-1.4696,-1.4543,-1.4543,-1.4275,-1.3557,-1.2369,-1.013,-0.8959,-0.8819,-0.8819,-1.0019,-1.22,-1.22,-1.2912,-1.4135,-1.4135,-1.4135,-1.4135,-1.4135,-1.4135,-1.4135,-1.4115,-1.4122,-1.4128,-1.4115,-1.4122,-1.4135,0.0,0.0,0.0,0.0,0.0,0.0,0.0,0.0,0.0,0.0,0.0,0.0,0.0,-1.0767,-1.0593,-1.0593,-1.0388,0.0,0.0,0.0,0.0,0.0,0.0,0.0,-0.8914,-0.8482,-0.8114,-0.7742,-0.7607,-0.8009,-0.8925,-0.8849,-0.876,-0.8543,-0.7602,-0.7075,-0.6783,-0.6152,-0.6208,-0.6801,-0.7108,-0.825,-0.9764,-1.0037,-1.0743,-1.1426,-1.0623,-1.0211,-0.9968,-0.9665,-0.9345,-0.9058,-0.9058,-0.8931,-0.8804,-0.8804,-0.8804,-0.8938,-0.9526,-0.9869,-1.0265,-1.1216,-1.1984,-1.2605,-1.3006,-1.3627,-1.4115,-1.4115,-1.4269,0.0,0.0,0.0,0.0,0.0,0.0,0.0,0.0,0.0,0.0,0.0,0.0,0.0,0.0,0.0,0.0,0.0,0.0,0.0,-1.4439,-1.4302,-1.4242,-1.4242,-1.4142,-1.3512,-1.2328,-1.0053,-0.889,-0.889,-0.8101,-0.8965,-1.1209,-1.1209,-1.2254,-1.4088,-1.4088,-1.4088,-1.4088,-1.4088,-1.4088,-1.4088,-1.4088,-1.4088,-1.4088,-1.4088,-1.4088,-1.4088,0.0,0.0,0.0,0.0,0.0,0.0,0.0,0.0,-1.066,-1.0854,0.0,0.0,0.0,0.0,-1.07,-1.06,-1.0287,-1.02,-1.0432,-1.0227,0.0,0.0,0.0,0.0,-0.9754,-0.9222,-0.8765,-0.8376,-0.8186,-0.8465,-0.9146,-0.9212,-0.9072,-0.8769,-0.7841,-0.7426,-0.7418,-0.6859,-0.7141,-0.8061,-0.8545,-0.9765,-1.1351,-1.1765,-1.246,-1.3146,-1.2418,-1.179,-1.127,-1.0874,-1.0254,-0.9646,-0.9424,-0.9098,-0.8804,-0.8804,-0.8804,-0.8891,-0.9285,-0.9459,-0.9746,-1.0628,-1.1176,-1.1618,-1.2171,-1.2766,-1.318,-1.332,-1.3581,0.0,0.0,0.0,0.0,0.0,0.0,0.0,0.0,0.0,0.0,0.0,0.0,0.0,0.0,0.0,0.0,0.0,0.0,0.0,-1.3941,-1.3941,-1.3895,-1.3794,-1.3794,-1.323,-1.2028,-1.0515,-0.9421,-0.8657,-0.7846,-0.8482,-1.0383,-1.0383,-1.1615,-1.3794,-1.3794,-1.3901,-1.4088,-1.4088,-1.4088,-1.4088,-1.4088,-1.4088,-1.4088,-1.4088,-1.4088,-1.4088,0.0,0.0,0.0,0.0,0.0,0.0,0.0,0.0,-1.0606,-1.0606,0.0,0.0,0.0,0.0,0.0,-1.0626,-1.0301,-1.0097,-1.0083,-1.0077,0.0,0.0,0.0,0.0,-1.0579,-1.001,-0.982,-1.01,-0.9813,-1.0107,-1.0949,-0.9963,-0.9957,-1.0671,-0.8839,-0.81,-0.8249,-0.82,-0.8707,-0.9649,-1.0933,-1.1504,-1.1835,-1.4117,-1.4633,-1.4075,-1.3733,-1.3287,-1.265,-1.1456,-1.0894,-1.0526,-0.9909,-0.9279,-0.8804,-0.8804,-0.8804,-0.8804,0.0,0.0,0.0,-1.0325,-1.0553,-1.0868,-1.1971,-1.2245,-1.2351,-1.2697,-1.3005,0.0,0.0,0.0,0.0,0.0,0.0,0.0,0.0,0.0,0.0,0.0,0.0,0.0,0.0,0.0,0.0,0.0,0.0,-1.3941,-1.3606,-1.3586,-1.346,-1.322,-1.3213,-1.2671,-1.157,-1.1524,-1.0433,-0.8287,-0.8246,-0.881,-0.9938,-0.9898,-1.1123,-1.3213,-1.3213,-1.3534,-1.4062,-1.4068,-1.4075,-1.4075,-1.4082,-1.4088,-1.4088,-1.4088,-1.4088,-1.4088,0.0,0.0,0.0,0.0,0.0,-1.167,-1.1422,-1.1109,-1.0875,0.0,0.0,0.0,-1.0914,-1.0949,-1.0962,-1.0914,-1.064,-1.0347,-1.0134,-0.992,-0.98,-0.98,-1.008,-1.0241,-1.0241,-0.9873,-0.9726,-0.98,-0.9477,-0.9457,-0.9704,-0.9858,-0.9734,-0.9349,-0.9055,-0.8944,-0.8923,-0.8053,-0.8823,-1.06,-1.0659,-1.1774,-1.3446,-1.3844,-1.4302,-1.4727,-1.4382,-1.4035,-1.3634,-1.3093,-1.2285,-1.133,-1.0097,-0.9279,-0.8804,-0.8804,-0.8804,-0.8804,-0.8804,0.0,0.0,0.0,0.0,0.0,0.0,0.0,-1.1496,-1.2047,-1.2345,0.0,0.0,0.0,0.0,0.0,0.0,0.0,0.0,0.0,0.0,0.0,0.0,0.0,0.0,0.0,0.0,0.0,-1.3726,-1.36,-1.3347,-1.3327,-1.3293,-1.3213,-1.3213,-1.3048,-1.2718,-1.1896,-1.1198,-1.0554,-0.8978,-0.9217,-1.1037,-1.0262,-1.1123,-1.3213,-1.3213,-1.33,-1.3467,-1.3681,-1.3726,-1.3746,-1.4001,-1.4088,-1.4088,-1.4088,-1.4088,-1.4055,0.0,0.0,0.0,-1.2445,-1.2164,-1.1951,-1.1657,-1.147,-1.1316,0.0,0.0,0.0,-1.139,-1.1249,-1.1129,-1.1002,-1.076,-1.0466,-1.0134,-0.996,-0.9813,-0.9715,-0.996,-1.0083,-1.0083,-0.9833,-0.9715,-0.9715,-0.9265,-0.9031,-0.9038,-0.9384,-0.934,-0.8968,-0.9041,-0.9216,-0.9397,-0.8465,-0.9194,-1.1028,-1.1273,-1.2318,-1.3741,-1.3893,-1.4329,-1.4756,-1.4583,-1.4335,-1.4041,-1.37,-1.2734,-1.147,-1.0247,-0.9546,-0.9125,-0.8878,-0.8865,-0.8938,-0.8838,-0.8804,-0.8864,-0.9112,0.0,0.0,-0.978,-1.0167,0.0,0.0,0.0,0.0,0.0,0.0,0.0,0.0,0.0,0.0,0.0,0.0,0.0,0.0,0.0,0.0,0.0,0.0,0.0,-1.3433,-1.342,-1.3333,-1.3033,-1.2899,-1.2832,-1.2832,-1.2832,-1.2832,-1.2832,-1.2151,-1.1636,-1.1202,-0.9901,-0.994,-1.1202,-1.0567,-1.1202,-1.2832,-1.2832,-1.2832,-1.2852,-1.3146,-1.3347,-1.344,-1.3654,-1.3721,-1.3721,-1.3721,-1.3721,-1.3694,0.0,0.0,-1.4241,-1.2538,-1.2258,-1.2178,-1.1986,-1.1926,-1.1832,0.0,-1.1804,-1.2013,-1.2053,-1.1697,-1.1383,-1.1156,-1.0847,-1.0499,-1.011,-1.0057,-0.9927,-0.9599,-0.986,-0.999,-0.999,-0.9766,-0.9633,-0.9633,-0.9078,-0.8804,-0.8804,-0.8804,-0.8918,-0.9151,-0.8898,-0.9098,-0.9559,-0.9098,-0.9673,-1.0995,-1.2141,-1.2878,-1.3347,-1.4128,-1.4439,-1.4563,-1.4529,-1.4376,-1.4135,-1.376,-1.2707,-1.1382,-1.051,-1.006,-0.9706,-0.9085,-0.9084,-0.9244,-0.8985,-0.8905,-0.9025,-0.9512,-0.9292,0.0,-0.9813,-0.9826,-0.9863,0.0,0.0,0.0,0.0,0.0,0.0,0.0,0.0,0.0,0.0,0.0,0.0,0.0,0.0,0.0,0.0,-1.3213,-1.32,-1.316,-1.3126,-1.2986,-1.275,-1.2445,-1.2305,-1.2305,-1.2305,-1.2305,-1.2305,-1.2305,-1.1848,-1.0975,-1.0864,-1.0858,-1.0975,-1.0864,-1.1354,-1.2305,-1.2305,-1.2305,-1.2325,-1.2623,-1.2918,-1.3166,-1.32,-1.3213,-1.3213,-1.3213,-1.3213,-1.3206,0.0,-1.2814,-1.2117,-1.2018,-1.1986,-1.2011,-1.2191,-1.206,-1.2053,-1.2469,-1.2576,-1.271,-1.2919,-1.2251,-1.185,-1.2031,-1.1349,-1.0681,-1.0154,-0.99,-0.9532,-0.8998,-0.9231,-0.9384,-0.9384,-0.9324,-0.9297,-0.9297,-0.8951,-0.8804,-0.8804,-0.8804,-0.8838,-0.8865,-0.8831,-0.8871,-0.8998,-0.9359,-0.9813,-1.0347,-1.1049,-1.2231,-1.354,-1.3706,-1.4255,-1.4888,-1.4603,-1.4636,-1.4754,-1.4182,-1.3367,-1.2375,-1.145,-1.0975,-1.0575,-0.9753,-0.9719,-0.985,-0.9593,-0.9512,-0.9479,-0.9331,-0.9564,0.0,-0.9185,-0.9385,-0.9749,0.0,-0.993,0.0,0.0,0.0,0.0,0.0,0.0,0.0,0.0,0.0,0.0,0.0,0.0,0.0,0.0,-1.3213,-1.3106,-1.2898,-1.2612,-1.2452,-1.2392,-1.2338,-1.2305,-1.2305,-1.2305,-1.2305,-1.2305,-1.2305,-1.2187,-1.1996,-1.1205,-1.1205,-1.1959,-1.1162,-1.1354,-1.2305,-1.2305,-1.2305,-1.2305,-1.2365,-1.2603,-1.2898,-1.3113,-1.3213,-1.3213,-1.3213,-1.3213,-1.3173,-1.341,-1.2732,-1.2101,-1.1923,-1.2027,-1.2131,-1.2278,-1.2342,-1.2449,-1.2744,-1.2918,-1.3018,-1.3018,-1.2445,-1.2024,-1.1877,-1.1329,-1.0681,-0.9947,-0.9766,-0.9419,-0.8831,-0.9058,-0.9211,-0.9211,-0.9211,-0.9211,-0.9211,-0.8918,-0.8804,-0.8804,-0.8804,-0.8884,-0.8991,-0.8871,-0.8884,-0.9004,-0.9185,-0.9499,-1.0,-1.1176,-1.2365,-1.342,-1.3713,-1.4229,-1.4703,-1.4409,-1.4402,-1.4459,-1.3708,-1.3058,-1.2435,-1.1657,-1.1229,-1.0875,-1.0325,-1.0251,-1.0241,-0.9806,-0.9715,-0.9646,-0.9499,-0.9544,0.0,0.0,-0.9138,-0.9332,-0.9648,-0.9566,-0.9639,0.0,0.0,0.0,0.0,0.0,0.0,0.0,0.0,0.0,0.0,0.0,0.0,0.0,-1.2538,-1.2538,-1.2563,-1.2385,-1.2305,-1.2305,-1.2305,-1.2305,-1.2305,-1.2164,-1.2084,-1.2084,-1.1937,-1.1864,-1.1864,-1.1352,-1.1352,-1.1835,-1.1499,-1.1636,-1.2091,-1.2238,-1.2305,-1.2305,-1.2305,-1.2392,-1.2576,-1.2699,-1.2759,-1.2759,-1.2759,-1.2759,-1.2732,-1.2971,-1.2704,-1.2296,-1.1824,-1.1937,-1.2171,-1.2285,-1.2543,-1.2737,-1.2857,-1.3106,-1.322,-1.3065,-1.273,-1.2331,-1.1935,-1.1463,-1.0862,-1.0177,-0.9893,-0.9532,-0.8998,-0.9064,-0.9158,-0.9211,-0.9158,-0.9131,-0.9131,-0.8898,-0.8804,-0.8804,-0.8804,-0.8904,-0.9124,-0.8944,-0.9024,-0.9284,-0.9078,-0.9412,-1.0258,-1.165,-1.2478,-1.2946,-1.3647,-1.4062,-1.4249,-1.4128,-1.4088,-1.3961,-1.3159,-1.2717,-1.2351,-1.1615,-1.1343,-1.1156,-1.0727,-1.0673,-1.0633,-1.0043,-0.9923,-0.9923,-0.9755,-0.9633,-0.9477,0.0,0.0,0.0,-0.9439,-0.9325,0.0,0.0,0.0,0.0,0.0,0.0,0.0,0.0,0.0,0.0,0.0,0.0,0.0,0.0,-1.1837,-1.1994,-1.2111,-1.2186,-1.2215,-1.2131,-1.2184,-1.2191,-1.2131,-1.1964,-1.1879,-1.1784,-1.1543,-1.1389,-1.1389,-1.1389,-1.1389,-1.1395,-1.167,-1.1784,-1.1832,-1.2031,-1.2164,-1.2218,-1.2218,-1.2251,-1.2305,-1.2305,-1.2305,-1.2305,-1.2305,-1.2305,-1.2305,-1.1361,-1.1181,-1.0909,-1.1075,-1.1329,-1.1662,-1.2225,-1.2331,-1.2545,-1.3086,-1.3373,-1.364,-1.3908,-1.344,-1.3293,-1.3748,-1.2589,-1.1765,-1.1665,-1.0648,-0.992,-0.9599,-0.9118,-0.8951,-0.9204,-0.8958,-0.8858,-0.8858,-0.8824,-0.8804,-0.8804,-0.8804,-0.8824,-0.8864,-0.9064,-0.9324,-0.9633,-0.9599,-1.0405,-1.1678,-1.1873,-1.1804,0.0,-1.2879,-1.3333,-1.342,-1.3915,-1.4088,-1.3995,0.0,-1.3133,-1.2913,0.0,-1.1764,-1.1944,-1.0908,-1.0922,-1.1202,-1.0646,-1.068,0.0,0.0,-1.0241,0.0,0.0,0.0,-0.9452,-0.8998,0.0,0.0,0.0,0.0,0.0,0.0,0.0,0.0,0.0,0.0,0.0,0.0,0.0,0.0,0.0,0.0,-1.1857,-1.1538,-1.1834,-1.1866,-1.151,-1.1777,-1.1797,-1.1502,-1.175,-1.1744,-1.1442,-1.1409,-1.1389,-1.1389,-1.1389,-1.1389,-1.1389,-1.1422,-1.1442,-1.1442,-1.1475,-1.1677,-1.1953,-1.1953,-1.2107,-1.2305,-1.2305,-1.2305,-1.2305,-1.2305,-1.2305,-1.2305,-1.0927,-1.0652,-1.0341,-1.0461,-1.0868,-1.1316,-1.173,-1.2488,-1.3074,-1.32,-1.3614,-1.3948,-1.4075,-1.3714,-1.3453,-1.3574,-1.3006,-1.2351,-1.1657,-1.0989,-1.0494,-1.0238,-0.9466,-0.9164,-0.9492,-0.9045,-0.8804,-0.8804,-0.8804,-0.8804,-0.8804,-0.8804,-0.8991,-0.9319,-0.9446,-0.9753,-1.0211,-1.0007,-1.0287,-1.0868,0.0,-1.1069,0.0,-1.3006,-1.3721,-1.3707,-1.3614,-1.3687,-1.3673,0.0,-1.2572,0.0,0.0,0.0,0.0,-1.1397,-1.129,-1.1082,0.0,0.0,0.0,0.0,0.0,0.0,-0.9244,0.0,-0.9152,0.0,0.0,0.0,0.0,0.0,0.0,0.0,-0.8884,0.0,0.0,0.0,0.0,0.0,0.0,0.0,0.0,0.0,0.0,0.0,0.0,-1.1366,-1.1169,-1.1456,-1.1557,-1.1395,-1.1383,-1.1303,-1.1176,-1.1009,-1.0922,-1.0922,-1.0922,-1.0922,-1.0929,-1.1096,-1.1176,-1.1182,-1.1322,-1.1496,-1.161,-1.161,-1.1683,-1.1797,-1.1797,-1.2004,-1.2305,-1.2305,-1.2305,-1.2305,-1.0265,-1.0133,-1.0,-1.0,-1.0481,-1.1029,-1.1476,-1.2465,-1.3166,-1.3206,-1.3581,-1.3935,-1.4182,-1.3973,-1.382,-1.3814,-1.3587,-1.3086,-1.2211,-1.1503,-1.1056,-1.0955,-0.992,-0.9471,-0.9793,-0.9225,-0.8884,-0.8804,-0.8804,-0.8804,-0.8804,-0.8804,-0.9031,-0.9452,-0.9693,-1.0117,-1.0586,-1.0414,-1.0541,-1.0842,-1.0928,-1.1102,-1.1491,-1.3006,-1.3701,-1.3794,-1.3367,-1.3347,-1.336,-1.2579,-1.2164,0.0,-1.2044,0.0,-1.1283,0.0,0.0,0.0,-1.0693,0.0,0.0,0.0,0.0,0.0,0.0,0.0,0.0,0.0,0.0,0.0,0.0,0.0,-0.8871,-0.8824,0.0,-0.8804,0.0,0.0,0.0,0.0,0.0,0.0,0.0,0.0,0.0,0.0,0.0,0.0,-1.0774,-1.1029,-1.1189,-1.1189,-1.1062,-1.0955,-1.0875,-1.07,-1.0593,-1.0593,-1.0593,-1.0593,-1.06,-1.0807,-1.0875,-1.0882,-1.1096,-1.1236,-1.1309,-1.1309,-1.1322,-1.1389,-1.1389,-1.1683,-1.2058,-1.2058,-1.2058,-1.2058,-0.8858,-0.9327,-0.9729,-0.9729,-1.0211,-1.0894,-1.1759,-1.1933,-1.2238,-1.31,-1.3227,-1.3561,-1.4416,-1.4496,-1.4716,-1.5277,-1.4549,-1.4041,-1.4001,-1.2378,-1.1536,-1.1852,-1.0472,-0.9806,-1.0094,-0.9497,-0.9058,-0.8804,-0.8804,-0.8804,-0.8804,-0.8804,-0.8818,-0.8871,-0.9726,-1.0274,-1.0613,-1.0881,-1.1658,-1.265,-1.2087,-1.2345,-1.3066,0.0,-1.2726,-1.324,-1.322,0.0,0.0,-1.2512,-1.2291,0.0,0.0,0.0,0.0,0.0,0.0,0.0,0.0,0.0,0.0,-0.9943,0.0,0.0,0.0,0.0,-0.9499,0.0,0.0,0.0,0.0,-0.9018,-0.9104,-0.8851,-0.8804,0.0,0.0,0.0,0.0,0.0,0.0,0.0,0.0,0.0,0.0,0.0,0.0,0.0,-1.0144,-1.0428,-1.062,-1.062,-1.0888,-1.0894,-1.0613,-1.0593,-1.0593,-1.0593,-1.0593,-1.0593,-1.0593,-1.06,-1.0606,-1.0606,-1.062,-1.078,-1.1009,-1.1009,-1.1176,-1.1389,-1.1389,-1.1402,-1.1422,-1.1422,-1.1422,-1.1422,-0.9031,-0.9098,-0.9105,-0.9105,-0.9746,-1.0561,-1.1443,-1.2245,-1.2933,-1.3387,-1.3793,-1.4335,-1.5023,-1.5104,-1.5184,-1.5378,-1.5124,-1.479,-1.4396,-1.3267,-1.2739,-1.2994,-1.1443,-1.0688,-1.0942,-1.019,-0.955,-0.9064,-0.9064,-0.8964,-0.8804,-0.8804,-0.8911,-0.9098,-0.9784,-1.0388,-1.0868,-1.1156,-1.151,-1.1857,0.0,-1.1991,-1.2605,0.0,0.0,-1.316,-1.2752,-1.2739,0.0,-1.2438,-1.2178,-1.2011,-1.2004,-1.1804,-1.1536,-1.1336,-1.1209,0.0,0.0,0.0,-1.0828,-1.014,0.0,0.0,0.0,0.0,0.0,0.0,0.0,0.0,0.0,-0.8884,-0.8898,-0.8824,-0.8804,-0.8804,0.0,0.0,0.0,0.0,0.0,0.0,0.0,0.0,0.0,0.0,0.0,0.0,0.0,-1.0,-1.0267,-1.0267,-1.0586,-1.0693,-1.0593,-1.0593,-1.0593,-1.0593,-1.0593,-1.0593,-1.0593,-1.0593,-1.0593,-1.0593,-1.0593,-1.0646,-1.074,-1.074,-1.0801,-1.0888,-1.0888,-1.0888,-1.0902,-1.1283,-1.1389,-1.1389,-0.9178,-0.8978,-0.8838,-0.8918,-0.9577,-1.0376,-1.1255,-1.2351,-1.3193,-1.3547,-1.4113,-1.4743,-1.5331,-1.5398,-1.5438,-1.5538,-1.5458,-1.515,-1.4563,-1.3753,-1.336,-1.3447,-1.2184,-1.1496,-1.1583,-1.0922,-1.0163,-0.9371,-0.9371,-0.9171,-0.8804,-0.8804,-0.8884,-0.9091,-0.9777,-1.0381,-1.0901,-1.1369,-1.1643,0.0,0.0,-1.1964,0.0,0.0,-1.2712,-1.2839,0.0,-1.2425,-1.2596,-1.2365,-1.2178,-1.2058,-1.2245,-1.1971,-1.1563,-1.1422,-1.1223,-1.0929,-1.0673,-1.0727,0.0,-1.0241,-1.0083,0.0,-0.9344,0.0,0.0,0.0,0.0,0.0,0.0,-0.9031,-0.8938,-0.8938,-0.8851,-0.8804,0.0,-0.8804,0.0,0.0,0.0,0.0,0.0,0.0,-0.8951,-0.9051,-0.8964,0.0,0.0,0.0,-1.0007,-1.0114,-1.0439,-1.0593,-1.0593,-1.0593,-1.0593,-1.0593,-1.0593,-1.0593,-1.0593,-1.0593,-1.0593,-1.0593,-1.0593,-1.0593,-1.0593,-1.0593,-1.0593,-1.0593,-1.0593,-1.0593,-1.064,-1.0982,-1.1122,-1.1136,-0.9231,-0.9038,-0.8978,-0.9231,-0.9737,-1.0434,0.0,0.0,-1.2991,0.0,-1.4126,-1.475,-1.5351,-1.5418,-1.5531,-1.5758,-1.5578,-1.5184,-1.4623,-1.3979,-1.3533,-1.3307,-1.2685,-1.2211,-1.1953,-1.1603,-1.0882,-0.9755,-0.9729,-0.9392,-0.8831,-0.8811,-0.8804,-0.8844,-0.9693,-1.0247,-1.0626,-1.1477,-1.2027,-1.2278,-1.2291,-1.2305,-1.2305,-1.2305,-1.2305,-1.2305,-1.2305,-1.2305,-1.2305,-1.2305,-1.2305,-1.2298,-1.2285,-1.2091,-1.1839,-1.1496,-1.1209,-1.0929,-1.0673,-1.0593,-1.0526,-1.0207,0.0,0.0,0.0,0.0,-0.9923,0.0,0.0,0.0,0.0,0.0,-0.9211,-0.9191,-0.8958,-0.8804,-0.8804,-0.8804,0.0,0.0,0.0,0.0,-0.8784,-0.8576,-0.8529,-0.8764,-0.8544,-0.8637,0.0,0.0,-0.9786,-1.0037,-1.0392,-1.0553,-1.0573,-1.0573,-1.0579,-1.0593,-1.0593,-1.0593,-1.0593,-1.0593,-1.0593,-1.0593,-1.0593,-1.0593,-1.0593,-1.0593,-1.0593,-1.0593,-1.0593,-1.0593,-1.0593,-1.0593,-1.0593,-1.0633,-0.9526,-0.9889,-1.0164,-1.0238,-1.0378,-1.0774,0.0,0.0,0.0,0.0,-1.4289,-1.4823,-1.5631,-1.5718,-1.5752,-1.5771,-1.5758,-1.5604,-1.5504,-1.4699,-1.4362,-1.4553,-1.3527,-1.2832,-1.2563,-1.2053,-1.1323,-1.0365,-0.993,-0.9492,-0.9098,-0.8884,-0.8804,-0.8824,-0.9237,-0.9724,-1.0261,-1.074,-1.135,-1.2033,-1.2218,-1.2305,0.0,0.0,-1.2305,-1.2305,-1.2305,-1.2305,-1.2305,-1.2305,-1.2305,-1.2265,-1.2087,-1.1966,-1.1799,-1.1256,-1.1049,-1.0929,-1.0673,-1.0593,-1.0573,-1.0492,-1.0281,-1.0043,0.0,0.0,0.0,0.0,0.0,0.0,0.0,0.0,0.0,-0.8931,-0.8851,-0.8804,-0.8804,-0.8804,0.0,-0.8804,0.0,0.0,0.0,-0.8611,-0.8637,-0.8523,-0.8617,0.0,0.0,0.0,0.0,-0.9437,-0.9753,-1.0043,-1.0227,-1.0234,-1.0341,-1.0593,-1.0593,-1.0593,-1.0593,-1.0593,-1.0593,-1.0593,-1.0593,-1.0593,-1.0593,-1.0593,-1.0593,-1.0593,-1.0593,-1.0593,-1.0593,-1.0593,-1.0593,-1.06,-1.0037,-1.0466,-1.0821,-1.0915,0.0,0.0,-1.1964,-1.2425,0.0,-1.3788,-1.4255,0.0,-1.5384,-1.5565,-1.5645,-1.5645,-1.5711,0.0,-1.5097,-1.4843,-1.4616,-1.4396,-1.3881,-1.3447,-1.3146,-1.2692,-1.1897,-1.078,-1.0325,-0.9719,-0.9024,-0.8884,-0.8804,-0.8824,-0.9084,-0.9537,-1.0154,-1.0708,-1.1337,-1.1919,-1.2044,0.0,0.0,-1.2305,-1.2305,-1.2305,-1.2305,-1.2305,-1.2305,-1.2305,-1.2305,-1.2251,-1.1993,-1.1819,-1.1583,-1.1129,-1.0935,-1.0801,-1.0633,-1.0593,-1.0593,-1.0593,-1.0466,-1.0274,-1.0117,-1.0083,-1.0067,0.0,0.0,0.0,0.0,0.0,0.0,-0.8851,-0.8804,-0.8804,-0.8804,-0.8804,-0.8804,0.0,-0.8804,0.0,0.0,0.0,-0.8604,-0.8564,0.0,0.0,0.0,0.0,0.0,-0.9211,-0.9526,-0.976,-0.9927,-1.0053,-1.0134,-1.0211,-1.0338,-1.0367,-1.0367,-1.0367,-1.0472,-1.0593,-1.0593,-1.0593,-1.0593,-1.0593,-1.0593,-1.0593,-1.0593,-1.0593,-1.0593,-1.0593,-1.0593,-1.0593,-1.0593,-1.0941,-1.1229,0.0,0.0,0.0,0.0,-1.2866,0.0,-1.362,0.0,-1.4636,-1.4975,-1.519,-1.5337,-1.5337,-1.5571,-1.5284,-1.4269,-1.4687,-1.4563,-1.3753,-1.3968,-1.3948,-1.3613,-1.332,-1.2458,-1.1049,-1.0713,-0.997,-0.8864,-0.8824,-0.8804,-0.8818,-0.9044,-0.9484,-1.0083,-1.0962,-1.1543,-1.1852,-1.1933,-1.2078,-1.2305,-1.2305,-1.2305,-1.2305,-1.2305,-1.2305,-1.2305,-1.2305,-1.2278,-1.2191,-1.1904,-1.161,-1.1275,-1.1022,-1.0787,-1.0593,-1.0593,-1.0593,-1.0593,-1.0593,-1.0593,-1.0526,-1.0234,-1.0174,-1.0174,-1.0174,-0.9973,-0.997,0.0,0.0,0.0,-0.8851,-0.8804,-0.8804,-0.8804,-0.8804,-0.8804,-0.8804,0.0,0.0,0.0,0.0,0.0,0.0,0.0,0.0,0.0,0.0,0.0,0.0,-0.9432,0.0,-0.9626,0.0,-0.9893,-0.9715,-0.994,-1.006,-1.006,-1.006,-1.02,-1.0479,-1.0519,-1.0512,-1.0486,-1.0559,-1.0593,-1.0593,-1.0593,-1.0593,-1.0593,-1.0593,-1.0593,-1.0593,-1.0862,-1.1543,-1.2011,0.0,0.0,-1.2737,-1.3006,-1.314,-1.3407,-1.3941,-1.4309,-1.4636,-1.4975,-1.5055,-1.5082,-1.5082,-1.5129,0.0,0.0,0.0,0.0,-1.4332,-1.4188,-1.3948,-1.3613,-1.3106,-1.2375,-1.1315,-1.0575,-0.981,-0.9131,-0.8891,-0.8804,-0.8811,-0.8858,-0.9205,-0.982,-1.0695,0.0,-1.155,-1.2031,-1.2258,-1.2305,-1.2305,-1.2305,-1.2305,-1.2305,-1.2305,-1.2305,-1.2305,-1.2144,-1.1891,-1.1597,-1.1303,-1.1009,-1.0754,-1.0633,-1.0593,-1.0593,-1.0593,-1.0593,-1.0593,-1.0593,-1.0579,-1.0526,-1.0512,-1.0512,-1.0512,-1.0472,-1.0392,-1.0221,0.0,0.0,0.0,0.0,0.0,0.0,-0.8804,-0.8804,-0.8804,0.0,-0.8784,0.0,0.0,0.0,0.0,0.0,0.0,0.0,0.0,0.0,0.0,0.0,0.0,0.0,0.0,0.0,-0.9715,-0.9733,-0.976,-0.976,-0.976,-0.9786,-0.9883,-1.0087,-1.006,-0.9903,-1.0392,-1.0593,-1.0593,-1.0593,-1.0593,-1.0593,-1.0593,-1.0593,-1.0593,-1.1457,-1.179,-1.2167,-1.2335,0.0,0.0,0.0,-1.3567,0.0,-1.3841,-1.3933,-1.4175,-1.4519,-1.4643,-1.4736,-1.4736,-1.4921,-1.4881,-1.4529,-1.4516,-1.4449,-1.4302,-1.4162,-1.4021,-1.3874,-1.3287,-1.2472,-1.1389,-1.0701,-0.9886,-0.8984,-0.8871,-0.8804,-0.8824,-0.9125,-0.9419,0.0,0.0,0.0,-1.1429,-1.1904,-1.2171,-1.2305,-1.2305,-1.2305,-1.2305,-1.2305,-1.2305,-1.2305,-1.2305,-1.2111,-1.1852,-1.1516,-1.1229,-1.0935,-1.068,-1.0593,-1.0593,-1.0593,-1.0593,-1.0593,-1.0593,-1.0593,-1.0593,-1.0593,-1.0472,-1.0374,-1.0559,-1.0472,-1.0287,-1.014,-0.9604,0.0,0.0,0.0,0.0,0.0,0.0,-0.8804,-0.8804,-0.8804,-0.8804,0.0,0.0,0.0,0.0,0.0,0.0,0.0,0.0,0.0,0.0,0.0,0.0,0.0,0.0,0.0,-0.9232,-0.9379,-0.9452,-0.9452,-0.9452,-0.9539,-0.9722,-0.9833,-0.9813,-0.9749,-1.0154,-1.0327,-1.0327,-1.0327,-1.0452,-1.0573,-1.0388,-1.0459,-1.0593,-1.208,-1.2147,0.0,0.0,-1.2938,0.0,-1.3533,-1.3895,-1.4001,-1.3726,-1.37,-1.3828,-1.4062,-1.4295,-1.4429,-1.4429,-1.4643,-1.4626,-1.4115,-1.4302,-1.4322,-1.4095,-1.4088,-1.4055,-1.3995,-1.348,-1.2625,0.0,0.0,-1.0017,-0.8898,-0.8838,-0.8838,0.0,0.0,0.0,0.0,0.0,-1.1156,-1.1422,-1.1817,-1.2098,-1.2305,-1.2305,-1.2305,-1.2291,-1.2231,-1.2245,-1.2285,-1.2158,-1.1964,-1.173,-1.1462,-1.1182,-1.0855,-1.066,-1.0593,-1.0593,-1.0593,-1.0593,-1.0593,-1.0593,-1.0593,-1.0593,-1.0593,-1.0327,-1.018,-1.0445,-1.0227,-1.0007,-0.991,-0.9524,0.0,0.0,0.0,0.0,0.0,0.0,-0.8804,-0.8804,-0.8751,-0.8738,-0.8798,0.0,0.0,0.0,0.0,0.0,0.0,0.0,0.0,0.0,0.0,-0.8804,-0.8804,0.0,-0.9004,0.0,-0.9011,-0.9118,-0.9118,-0.9118,-0.9251,-0.9499,-0.9559,-0.9626,-0.9699,-0.986,-0.9937,-1.002,-1.002,-1.0167,-1.0378,-1.0114,-1.0174,-1.0405,0.0,0.0,0.0,0.0,0.0,0.0,-1.3593,-1.3895,-1.4075,-1.4048,-1.4048,-1.4055,-1.4082,-1.4115,-1.4128,-1.4128,-1.4155,-1.4148,-1.4088,-1.4115,-1.4115,-1.4088,-1.4088,-1.3961,-1.3646,-1.3333,-1.2625,0.0,0.0,-1.0094,-0.9164,-0.8904,0.0,0.0,0.0,0.0,0.0,-1.0735,-1.1156,-1.1435,-1.2037,-1.2278,-1.2305,-1.2305,-1.2305,-1.2265,-1.2004,-1.2078,-1.2225,-1.1655,-1.1455,-1.1429,-1.1395,-1.1049,-1.0626,-1.06,-1.0593,-1.0593,-1.0593,-1.0593,-1.0593,-1.0593,-1.0593,-1.0593,-1.0593,-1.0327,-1.0127,-1.0154,-0.9927,-0.9639,-0.9344,-0.9251,-0.9138,0.0,0.0,0.0,0.0,0.0,-0.8804,-0.8804,-0.8577,-0.8543,0.0,0.0,0.0,0.0,0.0,0.0,0.0,0.0,0.0,-0.8804,0.0,-0.8804,-0.8804,-0.8831,0.0,-0.8804,-0.8838,-0.8844,-0.8844,-0.8844,-0.8864,-0.8905,-0.9144,-0.9404,-0.9666,-0.9391,-0.9451,-0.9726,-0.9726,-0.9769,-0.9796,-0.9733,-0.9769,-0.9796,0.0,0.0,0.0,0.0,0.0,0.0,0.0,-1.4008,-1.4088,-1.4088,-1.4088,-1.4088,-1.4088,-1.4088,-1.4088,-1.4088,-1.4088,-1.4088,-1.4088,-1.3921,-1.3901,-1.4082,-1.3748,-1.3587,-1.36,-1.3173,-1.2563,0.0,0.0,0.0,0.0,0.0,0.0,0.0,0.0,-1.016,-1.0466,-1.1229,-1.159,-1.173,-1.2138,-1.2305,-1.2305,-1.2305,-1.2305,-1.2285,-1.2171,-1.2204,-1.2265,-1.2031,-1.1717,-1.1362,-1.1223,-1.0889,-1.0593,-1.0593,-1.0593,-1.0593,-1.0593,-1.0206,-0.9907,-1.021,-0.991,-0.9605,-0.9976,-0.9806,-0.961,-0.982,-0.9619,-0.9411,-0.9492,-0.9218,-0.9031,0.0,0.0,0.0,0.0,0.0,0.0,-0.8804,-0.8704,-0.8684,0.0,0.0,0.0,0.0,0.0,0.0,0.0,0.0,0.0,-0.855,0.0,-0.8804,-0.8804,-0.8804,-0.8804,-0.8804,-0.8804,-0.8804,-0.8804,-0.8804,-0.8804,-0.8811,-0.8904,-0.9045,-0.9158,-0.9191,-0.9284,-0.9391,-0.9391,-0.9526,-0.9659,-0.9486,-0.9532,-0.9715,-1.328,0.0,-1.3173,0.0,-1.3601,-1.3607,-1.4021,-1.4088,-1.4088,-1.4088,-1.4088,-1.4088,-1.4088,-1.4088,-1.4088,-1.4088,-1.4088,-1.4088,-1.4088,-1.3808,-1.3733,-1.4075,-1.3527,0.0,-1.3467,-1.3013,-1.2496,-1.1906,-1.1369,0.0,0.0,0.0,0.0,0.0,-1.0533,-1.0767,-1.0894,-1.1605,-1.1906,-1.1933,-1.2184,-1.2305,-1.2305,-1.2305,-1.2305,-1.2291,-1.2204,-1.2041,-1.1822,-1.1655,-1.1171,-1.0647,-1.0697,-1.0496,-1.0174,-0.9907,-1.0009,-1.0206,-1.0206,-0.9951,-0.9774,-1.014,-0.9702,-0.9278,-0.9735,-0.9484,-0.9244,-0.9399,-0.9259,-0.9151,-0.9385,-0.9085,-0.8945,-0.9359,0.0,0.0,0.0,-0.8911,0.0,-0.8804,-0.8731,-0.8711,-0.8798,0.0,0.0,0.0,0.0,0.0,0.0,0.0,0.0,0.0,0.0,0.0,0.0,-0.8804,-0.8804,-0.8804,-0.8804,-0.8804,-0.8804,-0.8804,-0.8804,-0.8804,-0.8804,-0.8804,-0.8824,-0.8998,-0.9084,-0.9084,-0.9084,-0.9239,-0.9399,-0.9164,-0.9217,-0.9426,-1.354,-1.3593,-1.3686,-1.4028,-1.4082,-1.4082,-1.4088,-1.4088,-1.4088,-1.4088,-1.4088,-1.4088,-1.4088,-1.4088,-1.4088,-1.4088,-1.4088,-1.4088,-1.4088,-1.3808,-1.3733,0.0,0.0,-1.3213,-1.3213,-1.2945,-1.2496,-1.1906,0.0,0.0,-1.0975,0.0,-1.0734,-1.0975,-1.0982,-1.1149,-1.1395,-1.1737,-1.1906,-1.1933,-1.2184,-1.2305,-1.2305,-1.2305,-1.2305,-1.2265,-1.2013,-1.1428,-1.0744,-1.0125,-0.9442,-0.8969,-0.9857,-0.9746,-0.9139,-0.8285,-0.8646,-0.9306,-0.9306,-0.9945,-1.0593,-1.0586,-1.0334,-1.0083,-1.0083,-0.963,-0.9131,-0.8878,-0.8818,-0.8811,-0.8818,-0.8811,-0.8811,-0.8818,0.0,0.0,0.0,-0.8811,0.0,-0.8804,-0.8557,-0.8516,-0.8778,0.0,0.0,0.0,0.0,0.0,0.0,0.0,0.0,-0.8791,-0.8804,0.0,-0.8804,-0.8804,-0.8804,-0.8804,-0.8804,-0.8804,-0.8804,-0.8804,-0.8804,-0.8804,-0.8804,-0.8804,-0.8804,-0.8811,-0.8811,-0.8811,-0.8811,-0.8818,-0.8818,-0.8811,-0.8818,-0.8818,-1.3928,-1.3948,-1.3975,-1.4075,-1.4088,-1.4021,-1.3773,-1.3955,-1.4015,-1.3808,-1.3961,-1.4088,-1.4088,-1.4088,-1.4088,0.0,-1.4088,-1.4088,0.0,-1.3621,-1.348,-1.3733,-1.3019,-1.2685,-1.2924,-1.2636,-1.2351,-1.2164,0.0,0.0,0.0,-1.1196,-1.1196,-1.1296,-1.1496,-1.1678,-1.175,-1.2044,-1.1786,-1.1157,-1.1242,-1.087,-1.0233,-1.0233,-1.0233,-1.0228,-1.015,-0.998,-0.9873,-1.0338,-1.0224,-0.9843,-0.9525,-0.9415,-0.9485,-0.9701,-0.9977,-1.0174,-1.0174,-0.9951,-0.9762,-0.9939,-0.9458,-0.8986,-0.9172,-0.9051,-0.8891,-0.8824,-0.8804,-0.8804,-0.8804,-0.8804,-0.8804,-0.8804,-0.8804,0.0,0.0,0.0,-0.8804,-0.8804,-0.8724,-0.8704,0.0,-0.8457,0.0,0.0,0.0,0.0,0.0,0.0,0.0,0.0,-0.8704,0.0,-0.8804,-0.8804,-0.8804,-0.8804,-0.8804,-0.8804,-0.8804,-0.8804,-0.8804,-0.8804,-0.8804,-0.8804,-0.8804,-0.8804,-0.8804,-0.8804,-0.8804,-0.8804,-0.8804,-0.8804,-0.8804,-0.8804,-1.4088,-1.4088,-1.4088,-1.4088,-1.4088,-1.3988,-1.3646,-1.3895,-1.3981,-1.364,-1.3901,-1.4088,-1.4088,-1.4088,0.0,-1.4088,-1.4088,-1.4088,-1.4088,-1.3534,-1.33,-1.3586,-1.2779,-1.2445,-1.2777,0.0,0.0,-1.2305,-1.2124,-1.1937,-1.1757,-1.1757,-1.1539,-1.1179,-1.1393,-1.1294,-1.0937,-1.1101,-1.0795,-1.0228,-1.0228,-0.9857,-0.9296,-0.9296,-0.9296,-0.9296,-0.9296,-0.9296,-0.941,-1.0002,-0.9867,-0.938,-0.9031,-0.878,-0.8677,-0.9079,-0.9629,-1.004,-0.9716,-0.946,-0.9261,-0.9108,-0.8548,-0.8075,-0.8092,-0.8036,-0.8049,-0.8321,-0.8156,-0.8049,-0.8348,-0.8401,-0.8401,-0.8401,-0.8619,-0.8804,-0.8804,0.0,-0.8804,0.0,0.0,0.0,0.0,-0.8644,0.0,0.0,0.0,0.0,0.0,0.0,0.0,-0.8556,-0.8711,0.0,-0.8804,-0.8804,-0.8804,-0.8804,-0.8804,-0.8804,-0.8804,-0.8804,-0.8804,-0.8804,-0.8804,-0.8804,-0.8804,-0.8804,-0.8804,-0.8804,-0.8804,-0.8804,-0.8804,-0.8804,-0.8804,-0.8804,-1.4082,-1.4075,0.0,0.0,-1.4075,0.0,-1.362,-1.3881,-1.3981,-1.364,-1.3901,-1.4088,-1.4088,-1.4088,-1.4088,-1.4088,0.0,0.0,0.0,-1.3527,-1.328,-1.3533,-1.2759,-1.2432,-1.275,-1.2445,-1.2268,-1.2187,-1.2187,-1.215,-1.2077,-1.2077,-1.1583,-1.0708,-1.0708,-1.019,-0.9296,-0.9296,-0.9258,-0.9183,-0.9183,-0.9183,-0.9183,-0.9183,-0.9183,-0.9183,-0.9183,-0.9145,-0.9107,-0.9183,-0.858,-0.7871,-0.8375,-0.7912,-0.7182,-0.7009,-0.8024,-0.9043,-0.8221,-0.8581,-0.9005,-0.8168,-0.7696,-0.735,-0.6971,-0.6744,-0.6804,-0.7482,-0.7074,-0.6804,-0.7509,-0.767,-0.7696,-0.7696,-0.8321,-0.8804,-0.8804,0.0,0.0,0.0,0.0,0.0,0.0,-0.8804,-0.8804,0.0,0.0,0.0,0.0,0.0,-0.853,-0.8798,-0.8804,-0.8804,-0.8804,-0.8804,-0.8804,-0.8804,-0.8804,-0.8804,-0.8804,-0.8804,-0.8804,-0.8804,-0.8804,-0.8804,-0.8804,-0.8804,-0.8804,-0.8804,-0.8804,-0.8804,-0.8804,-0.8804,-0.8804,-0.8804,0.0,0.0,-1.3706,-1.3706,-1.3935,-1.3915,-1.3394,-1.3754,-1.3981,-1.364,-1.3901,-1.4088,-1.4088,-1.4088,-1.4088,-1.4088,-1.4088,-1.3988,-1.372,-1.3407,-1.3133,-1.3005,-1.2538,-1.2338,-1.2405,-1.2338,-1.1922,-1.1168,-1.1168,-1.0757,-1.0013,-1.0013,-0.9895,-0.9669,-0.9669,-0.9523,-0.9296,-0.9296,-0.8846,-0.8161,-0.8161,-0.8161,-0.8161,-0.8161,-0.8161,-0.8161,-0.8161,-0.7668,-0.7138,-0.7897,-0.8012,-0.7804,-0.7941,-0.8107,-0.8165,-0.7855,-0.8002,-0.8253,-0.8059,-0.8156,-0.8211,-0.7718,-0.732,-0.7006,-0.6929,-0.6744,-0.6642,-0.6831,-0.6723,-0.6642,-0.6831,-0.7316,-0.7696,-0.7696,-0.8321,-0.8804,-0.8804,-0.8804,0.0,0.0,-0.8804,-0.8804,-0.8804,-0.8804,-0.8804,0.0,0.0,0.0,0.0,0.0,-0.8738,-0.8804,-0.8804,-0.8804,-0.8804,-0.8804,-0.8804,-0.8804,-0.8804,-0.8804,-0.8804,-0.8804,-0.8804,-0.8804,-0.8804,-0.8804,-0.8804,-0.8804,-0.8804,-0.8804,-0.8804,-0.8804,-0.8804,-0.8804,-0.8804,-0.8804,-1.3647,-1.362,-1.356,-1.3427,-1.3687,-1.3687,-1.3093,-1.35,-1.3774,-1.3447,-1.3821,-1.4088,-1.4088,-1.4088,-1.4088,-1.4088,-1.3961,-1.3773,-1.3613,-1.324,-1.2958,-1.279,-1.2496,-1.2077,-1.162,-1.162,-1.113,-1.0115,-1.0115,-0.982,-0.9296,-0.9296,-0.9074,-0.8618,-0.8618,-0.8351,-0.7936,-0.7936,-0.7629,-0.7099,-0.7099,-0.7099,-0.7099,-0.7099,-0.7099,-0.7099,-0.7099,-0.7061,-0.7061,-0.7629,-0.7783,-0.7766,-0.7677,-0.7522,-0.7267,-0.6975,-0.7419,-0.7929,-0.7502,-0.7405,-0.7279,-0.6696,-0.6294,-0.6079,-0.6079,-0.616,-0.6318,-0.6678,-0.6794,-0.6791,-0.6635,-0.7329,-0.7777,-0.7279,-0.7803,-0.8401,-0.8752,-0.8507,0.0,-0.8752,-0.8804,-0.8804,-0.8804,-0.8804,-0.8804,-0.8804,0.0,0.0,-0.8804,-0.8804,-0.8804,-0.8804,-0.8804,-0.8804,-0.8804,-0.8804,-0.8804,-0.8804,-0.8804,-0.8804,-0.8804,-0.8804,-0.8804,-0.8804,-0.8804,-0.8804,-0.8804,-0.8804,-0.8804,-0.8804,-0.8804,-0.8804,-0.8804,-0.8804,-0.8804,-0.8804,-1.3307,-1.336,-1.3393,-1.318,-1.3347,-1.3387,-1.2871,-1.3094,-1.3263,-1.3021,-1.3322,-1.3548,-1.3545,-1.3539,-1.3526,-1.3529,-1.3216,-1.3114,-1.3282,-1.2733,-1.2337,-1.2253,-1.2021,-1.1434,-1.0596,-1.0565,-1.0078,-0.9069,-0.9069,-0.8993,-0.8841,-0.8841,-0.8389,-0.7591,-0.7591,-0.7099,-0.63,-0.63,-0.63,-0.63,-0.63,-0.6377,-0.6528,-0.6528,-0.6528,-0.6528,-0.6528,-0.6984,-0.7591,-0.7591,-0.7591,-0.7528,-0.7368,-0.6628,-0.5779,-0.5657,-0.6566,-0.7442,-0.6719,-0.6494,-0.6334,-0.5591,-0.5243,-0.5093,-0.5073,-0.5363,-0.5801,-0.6426,-0.6658,-0.6662,-0.6372,-0.7151,-0.7516,-0.6591,-0.7047,-0.775,-0.8374,0.0,-0.7777,-0.8401,-0.848,-0.8507,-0.8619,-0.8646,-0.8672,-0.8778,-0.8804,-0.8804,0.0,-0.8804,-0.8804,-0.8804,-0.8804,-0.8804,-0.8804,-0.8804,-0.8804,-0.8804,-0.8804,-0.8804,-0.8804,-0.8804,-0.8804,-0.8804,-0.8804,-0.8804,-0.8804,-0.8804,-0.8804,-0.8804,-0.8804,-0.8804,-0.8804,-0.8804,-0.8804,-0.8804,-1.3447,-1.32,-1.2911,-1.2864,-1.3073,-1.316,-1.2837,-1.2431,-1.214,-1.2105,-1.1556,-1.1096,-1.0978,-1.0957,-1.0923,-1.0816,-1.0498,-1.0807,-1.191,-1.094,-1.02,-0.9856,-0.9809,-0.9712,-0.9523,-0.9523,-0.9031,-0.805,-0.805,-0.7591,-0.6756,-0.6756,-0.6679,-0.6528,-0.6528,-0.6451,-0.63,-0.63,-0.63,-0.63,-0.63,-0.6795,-0.7553,-0.7553,-0.7553,-0.7553,-0.7553,-0.7138,-0.6528,-0.6528,-0.6528,-0.6525,-0.65,-0.6176,-0.5796,-0.5776,-0.5779,-0.5785,-0.5657,-0.5591,-0.5557,-0.5428,-0.5243,-0.5066,-0.4948,-0.4905,-0.489,-0.5002,-0.5064,-0.5056,-0.5002,-0.5641,-0.6049,-0.5736,-0.6281,-0.6804,-0.6912,0.0,-0.6804,-0.6939,-0.6939,-0.7182,-0.7803,-0.7883,-0.8129,-0.8752,-0.8804,-0.8804,-0.8804,-0.8804,-0.8804,-0.8804,-0.8804,-0.8804,-0.8804,-0.8804,-0.8804,-0.8804,-0.8804,-0.8804,-0.8804,-0.8804,-0.8804,-0.8804,-0.8804,-0.8804,-0.8804,-0.8804,-0.8804,-0.8804,-0.8804,-0.8804,-0.8804,-0.8804,-0.8804,-0.8804,-1.2899,-1.2879,-1.2811,-1.2583,-1.2806,-1.2933,-1.2565,-1.2434,-1.2382,-1.2382,-1.2176,-1.1758,-1.1187,-1.1584,-1.1456,-1.0293,-0.9978,-1.0031,-1.0576,-0.998,-0.9503,-0.9306,-0.9296,-0.9085,-0.8617,-0.7983,-0.7486,-0.7113,-0.7026,-0.6756,-0.63,-0.63,-0.63,-0.63,-0.63,-0.63,-0.63,-0.63,-0.63,-0.63,-0.63,-0.6567,-0.6984,-0.6984,-0.6984,-0.6984,-0.6984,-0.6679,-0.63,-0.63,-0.63,-0.63,-0.63,-0.6085,-0.58,-0.58,-0.5627,-0.5395,-0.5395,-0.5395,-0.5395,-0.5395,-0.5341,-0.5216,-0.5036,-0.5218,-0.5399,-0.5399,-0.5775,-0.5948,-0.5484,-0.6066,-0.6403,-0.5756,-0.5858,0.0,0.0,-0.6258,-0.6145,-0.6561,-0.6588,-0.6723,-0.7074,-0.7101,-0.7262,-0.7589,-0.7616,-0.7777,-0.8182,-0.8209,-0.8401,-0.8778,-0.8804,-0.8804,-0.8804,-0.8804,-0.8804,-0.8804,-0.8804,-0.8804,-0.8804,-0.8804,-0.8804,-0.8804,-0.8804,-0.8804,-0.8804,-0.8804,-0.8804,-0.8804,-0.8804,-0.8804,-0.8804,-0.8804,-0.8804,-0.8804,-1.1765,-1.1872,-1.198,-1.1676,-1.1872,-1.1954,-1.1677,-1.1681,-1.1737,-1.1737,-1.1744,-1.1445,-1.0611,-1.1204,-1.1004,-0.9475,-0.9185,-0.9011,-0.8896,-0.8702,-0.8694,-0.896,-0.8727,-0.8304,-0.7631,-0.6741,-0.6354,-0.6463,-0.6354,-0.63,-0.63,-0.63,-0.63,-0.63,-0.63,-0.63,-0.63,-0.63,-0.63,-0.63,-0.63,-0.63,-0.63,-0.63,-0.63,-0.63,-0.63,-0.63,-0.63,-0.63,-0.63,-0.63,-0.63,-0.6074,-0.5847,-0.5813,-0.5627,-0.5395,-0.5395,-0.5395,-0.5395,-0.5395,-0.5395,-0.5354,-0.5133,-0.5445,-0.578,-0.578,-0.6319,-0.6587,-0.5902,-0.6315,-0.6486,-0.569,0.0,0.0,0.0,-0.5628,-0.5492,-0.6041,-0.61,-0.6177,-0.634,-0.634,-0.6421,-0.6588,-0.6588,-0.6858,-0.7423,-0.745,-0.7696,-0.8262,-0.8619,-0.8804,-0.8804,-0.8804,-0.8804,-0.8804,-0.8804,-0.8804,-0.8804,-0.8804,-0.8804,-0.8804,-0.8804,-0.8804,-0.8804,-0.8804,-0.8804,-0.8804,-0.8804,-0.8804,-0.8804,-0.8804,-0.8804,-0.8804,-0.9878,-0.9722,-0.9549,-0.9528,-0.9544,-0.9578,-0.9676,-0.9063,-0.8552,-0.8552,-0.7853,-0.7274,-0.7085,-0.7016,-0.6925,-0.6765,-0.6641,-0.6557,-0.6546,-0.6535,-0.6945,-0.7859,-0.7022,-0.6497,-0.643,-0.6342,-0.6306,-0.6317,-0.6306,-0.63,-0.63,-0.63,-0.63,-0.63,-0.63,-0.63,-0.63,-0.63,-0.63,-0.63,-0.63,-0.63,-0.63,-0.63,-0.63,-0.63,-0.63,-0.63,-0.63,-0.63,-0.63,-0.63,-0.63,-0.6146,-0.5949,-0.5844,-0.5627,-0.5395,-0.5395,-0.5395,-0.5395,-0.5395,-0.5395,-0.5354,-0.5133,-0.5121,-0.5178,-0.5178,-0.5206,-0.5238,-0.5178,-0.5126,-0.5017,-0.4802,0.0,0.0,-0.4653,-0.4598,-0.4598,-0.4653,-0.4653,-0.4897,-0.5515,-0.5569,-0.5869,-0.6561,-0.6588,-0.6615,-0.6669,-0.6669,-0.6696,-0.675,-0.8103,-0.8804,-0.8804,-0.8804,-0.8804,-0.8804,-0.8804,-0.8804,-0.8804,-0.8804,-0.8804,-0.8804,-0.8804,-0.8804,-0.8804,-0.8804,-0.8804,-0.8804,-0.8804,-0.8804,-0.8804,-0.8804,-0.8804,-0.8804,-0.9461,-0.9047,-0.8799,-0.9221,-0.895,-0.8866,-0.9423,-0.9211,-0.8986,-0.8986,-0.8734,-0.8271,-0.7563,-0.8007,-0.7851,-0.6591,-0.7104,-0.7441,-0.7372,-0.6781,-0.6549,-0.6876,-0.649,-0.634,-0.6429,-0.6344,-0.634,-0.6429,-0.634,-0.63,-0.63,-0.63,-0.63,-0.63,-0.63,-0.63,-0.63,-0.63,-0.63,-0.63,-0.63,-0.63,-0.63,-0.63,-0.63,-0.63,-0.63,-0.63,-0.63,-0.63,-0.63,-0.63,-0.63,-0.6156,-0.5946,-0.5742,-0.5559,-0.5395,-0.5395,-0.5395,-0.5395,-0.5395,-0.5395,-0.533,-0.5053,-0.4968,-0.4968,-0.4968,-0.4925,-0.4914,-0.5066,-0.4938,-0.4758,-0.4701,0.0,-0.4491,-0.4491,-0.4491,-0.4491,-0.4491,-0.4491,-0.4598,-0.4866,-0.4869,-0.5003,-0.5281,-0.5308,-0.5469,-0.59,-0.634,-0.6588,-0.6588,-0.7155,-0.767,-0.8103,-0.8129,-0.8342,-0.8804,-0.8804,-0.8804,-0.8804,-0.8804,-0.8804,-0.8804,-0.8804,-0.8804,-0.8804,-0.8804,-0.8804,-0.8804,-0.8804,-0.8804,-0.8804,-0.8804,-0.8804,-0.8804,-0.8351,-0.8008,-0.7812,-0.8275,-0.7965,-0.7872,-0.8483,-0.8608,-0.8608,-0.8608,-0.8667,-0.8424,-0.774,-0.8248,-0.8078,-0.6733,-0.7267,-0.7623,-0.7541,-0.686,-0.6402,-0.6303,-0.63,-0.6344,-0.6443,-0.6351,-0.6347,-0.6446,-0.6347,-0.63,-0.63,-0.63,-0.63,-0.63,-0.63,-0.63,-0.63,-0.63,-0.63,-0.63,-0.63,-0.63,-0.63,-0.63,-0.63,-0.63,-0.63,-0.63,-0.63,-0.63,-0.63,-0.63,-0.63,-0.6122,-0.5918,-0.5715,-0.5549,-0.5395,-0.5395,-0.5395,-0.5395,-0.5395,-0.5395,-0.5341,-0.5104,-0.506,-0.5043,-0.4965,-0.4901,-0.4877,-0.5005,-0.486,-0.4691,-0.4691,-0.459,-0.4491,-0.4491,-0.4491,-0.4491,-0.4491,-0.4491,-0.4491,-0.4491,-0.4491,-0.4491,-0.4491,-0.4491,-0.4708,-0.5164,-0.566,-0.5937,-0.5937,-0.5937,-0.6285,-0.7015,-0.7235,-0.761,-0.8103,-0.8103,-0.8235,-0.8454,-0.8209,-0.8235,-0.8454,-0.8209,-0.8381,-0.8811,-0.8811,-0.8798,-0.8811,-0.8805,-0.8811,-0.8811,-0.8811,-0.8811,-0.8811,-0.63,-0.63,-0.63,-0.63,-0.63,-0.6347,-0.6491,-0.6603,-0.6702,-0.6698,-0.6831,-0.6883,-0.6883,-0.6793,-0.6763,-0.6873,-0.6651,-0.6515,-0.6511,-0.6378,-0.6303,-0.63,-0.63,-0.63,-0.63,-0.63,-0.63,-0.63,-0.63,-0.63,-0.63,-0.63,-0.63,-0.63,-0.63,-0.63,-0.63,-0.63,-0.63,-0.63,-0.63,-0.63,-0.63,-0.63,-0.63,-0.63,-0.63,-0.63,-0.63,-0.63,-0.63,-0.63,-0.63,-0.6085,-0.58,-0.58,-0.5627,-0.5395,-0.5395,-0.5395,-0.5395,-0.5395,-0.5395,-0.5395,-0.5392,-0.5392,-0.5347,-0.513,-0.5096,-0.5052,-0.4914,-0.4792,-0.4687,-0.4687,-0.459,-0.4491,-0.4491,-0.4491,-0.4491,-0.4491,-0.4491,-0.4491,-0.4491,-0.4491,-0.4491,-0.4491,-0.4491,-0.4491,-0.4491,-0.4491,-0.4491,-0.4491,-0.4491,-0.4814,-0.5483,-0.6231,-0.6588,-0.6588,-0.6588,-0.6993,-0.767,-0.6939,-0.6993,-0.7643,-0.6912,-0.743,-0.8798,-0.8798,-0.8811,-0.8785,-0.8798,-0.8798,-0.8764,-0.8764,-0.8771,-0.8784,-0.63,-0.63,-0.63,-0.63,-0.63,-0.6347,-0.6491,-0.6603,-0.6661,-0.6556,-0.6675,-0.677,-0.677,-0.6729,-0.6763,-0.6873,-0.6844,-0.6702,-0.6525,-0.6474,-0.6405,-0.6303,-0.63,-0.63,-0.63,-0.63,-0.63,-0.63,-0.63,-0.63,-0.63,-0.63,-0.63,-0.63,-0.63,-0.63,-0.63,-0.63,-0.63,-0.63,-0.63,-0.63,-0.63,-0.63,-0.63,-0.63,-0.63,-0.63,-0.63,-0.63,-0.63,-0.63,-0.63,-0.602,-0.5674,-0.5772,-0.5627,-0.5395,-0.5395,-0.5395,-0.5395,-0.5395,-0.5395,-0.5365,-0.5223,-0.5199,-0.5159,-0.4982,-0.4897,-0.4809,-0.4765,-0.4662,-0.4559,-0.4559,-0.4518,-0.4491,-0.4491,-0.4491,-0.4491,-0.4491,-0.4491,-0.4491,-0.4491,-0.4491,-0.4491,-0.4491,-0.4491,-0.4491,-0.4491,-0.4491,-0.4491,-0.4491,-0.4491,-0.4598,-0.4787,-0.5492,-0.6091,-0.6588,-0.6588,-0.6723,-0.6912,-0.6696,-0.6723,-0.6912,-0.6696,-0.6842,-0.7349,-0.8388,-0.8803,-0.8804,-0.8804,-0.7578,-0.5793,-0.5788,-0.7051,-0.8805,-0.63,-0.63,-0.63,-0.63,-0.63,-0.6327,-0.6416,-0.6555,-0.6576,-0.6525,-0.6658,-0.679,-0.679,-0.6841,-0.6912,-0.696,-0.6862,-0.6712,-0.645,-0.6429,-0.6388,-0.6303,-0.63,-0.63,-0.63,-0.63,-0.63,-0.63,-0.63,-0.63,-0.63,-0.63,-0.63,-0.63,-0.63,-0.63,-0.63,-0.63,-0.63,-0.63,-0.63,-0.63,-0.63,-0.63,-0.63,-0.63,-0.63,-0.63,-0.63,-0.63,-0.6259,-0.6169,-0.6169,-0.5901,-0.5606,-0.5691,-0.5583,-0.5395,-0.5395,-0.5395,-0.5395,-0.5395,-0.5395,-0.5371,-0.5243,-0.522,-0.5165,-0.4931,-0.4891,-0.4809,-0.4662,-0.4604,-0.4559,-0.4501,-0.4491,-0.4491,-0.4491,-0.4491,-0.4491,-0.4491,-0.4491,-0.4491,-0.4491,-0.4491,-0.4491,-0.4491,-0.4491,-0.4491,-0.4491,-0.4491,-0.4491,-0.4491,-0.4491,-0.4491,-0.4491,-0.4893,-0.5332,-0.5773,-0.5773,-0.5905,-0.6145,-0.5878,-0.5905,-0.6145,-0.5878,-0.5932,-0.6204,-0.6841,-0.7421,-0.7877,-0.7306,-0.6741,-0.6187,-0.6192,-0.7291,-0.8791,-0.63,-0.63,-0.63,-0.63,-0.63,-0.63,-0.63,-0.6419,-0.6508,-0.6494,-0.6709,-0.6852,-0.6866,-0.6967,-0.7048,-0.7075,-0.6851,-0.6563,-0.6317,-0.63,-0.63,-0.63,-0.63,-0.63,-0.63,-0.63,-0.63,-0.63,-0.63,-0.63,-0.63,-0.63,-0.63,-0.63,-0.63,-0.63,-0.63,-0.63,-0.63,-0.63,-0.63,-0.63,-0.63,-0.63,-0.63,-0.63,-0.63,-0.63,-0.63,-0.63,-0.6159,-0.5993,-0.601,-0.5837,-0.5593,-0.5606,-0.5525,-0.5395,-0.5395,-0.5395,-0.5395,-0.5395,-0.5326,-0.5292,-0.5395,-0.5395,-0.531,-0.4982,-0.4988,-0.4948,-0.4573,-0.4604,-0.4651,-0.4511,-0.4491,-0.4491,-0.4491,-0.4491,-0.4491,-0.4491,-0.4491,-0.4491,-0.4491,-0.4491,-0.4491,-0.4491,-0.4491,-0.4491,-0.4491,-0.4491,-0.4491,-0.4491,-0.4491,-0.4491,-0.4491,-0.4491,-0.4491,-0.4491,-0.4491,-0.4814,-0.5378,-0.4787,-0.4842,-0.5378,-0.4759,-0.4842,-0.5351,-0.4751,-0.5245,-0.6281,-0.4992,-0.6276,-0.8809,-0.8804,-0.8804,-0.8778,-0.63,-0.63,-0.63,-0.63,-0.63,-0.63,-0.63,-0.6419,-0.647,-0.6361,-0.6501,-0.6617,-0.6736,-0.6671,-0.6712,-0.691,-0.6698,-0.6487,-0.6313,-0.63,-0.63,-0.63,-0.63,-0.63,-0.63,-0.63,-0.63,-0.63,-0.63,-0.63,-0.63,-0.63,-0.63,-0.63,-0.63,-0.63,-0.63,-0.63,-0.63,-0.63,-0.63,-0.63,-0.63,-0.63,-0.63,-0.63,-0.63,-0.63,-0.63,-0.63,-0.6159,-0.6013,-0.6173,-0.5925,-0.561,-0.5722,-0.5603,-0.5395,-0.5395,-0.5395,-0.5395,-0.5395,-0.4855,-0.4483,-0.5226,-0.5395,-0.531,-0.4982,-0.4914,-0.486,-0.4552,-0.4515,-0.4528,-0.4494,-0.4491,-0.4491,-0.4491,-0.4491,-0.4491,-0.4491,-0.4491,-0.4491,-0.4491,-0.4491,-0.4491,-0.4491,-0.4491,-0.4491,-0.4491,-0.4491,-0.4491,-0.4491,-0.4491,-0.4491,-0.4491,-0.4491,-0.4491,-0.4491,-0.4491,-0.457,-0.4708,-0.457,-0.457,-0.4708,-0.457,-0.457,-0.4704,-0.4563,-0.4673,-0.4924,-0.461,-0.6255,-0.88,-0.8809,-0.8789,-0.8481,-0.6183,-0.63,-0.63,-0.63,-0.63,-0.63,-0.63,-0.6364,-0.6385,-0.631,-0.6422,-0.6542,-0.6583,-0.6583,-0.6617,-0.6705,-0.6566,-0.6453,-0.631,-0.63,-0.63,-0.63,-0.63,-0.63,-0.63,-0.63,-0.63,-0.63,-0.63,-0.63,-0.63,-0.63,-0.63,-0.63,-0.63,-0.63,-0.63,-0.63,-0.63,-0.63,-0.63,-0.63,-0.63,-0.63,-0.63,-0.63,-0.63,-0.63,-0.6219,-0.5709,-0.5422,-0.5208,-0.4822,-0.4452,-0.4234,-0.4288,-0.4219,-0.4118,-0.4118,-0.4118,-0.4118,-0.4118,-0.3747,-0.3613,-0.4519,-0.4417,-0.4035,-0.3801,-0.3797,-0.3755,-0.3467,-0.3483,-0.3521,-0.3408,-0.3735,-0.3846,-0.3456,-0.4042,-0.4349,-0.3984,-0.4267,-0.4491,-0.4491,-0.4491,-0.4491,-0.4491,-0.4491,-0.4491,-0.4491,-0.4491,-0.4491,-0.4491,-0.4491,-0.4491,-0.4491,-0.4491,-0.4491,-0.4491,-0.4491,-0.4491,-0.4491,-0.4491,-0.4491,-0.4491,-0.4491,-0.4491,-0.4491,-0.4491,-0.4491,-0.4487,-0.4508,-0.5429,-0.6752,-0.6744,-0.6744,-0.6527,-0.5589,-0.5747,-0.5747,-0.5747,-0.5747,-0.5747,-0.5747,-0.5906,-0.6025,-0.6025,-0.6284,-0.6484,-0.6511,-0.6583,-0.66,-0.6491,-0.6474,-0.6426,-0.6306,-0.63,-0.63,-0.63,-0.63,-0.63,-0.63,-0.63,-0.63,-0.63,-0.63,-0.63,-0.63,-0.63,-0.63,-0.63,-0.63,-0.63,-0.63,-0.63,-0.63,-0.63,-0.6103,-0.6025,-0.6022,-0.5825,-0.5747,-0.5747,-0.5747,-0.5747,-0.5628,-0.4727,-0.4354,-0.4091,-0.3224,-0.283,-0.2722,-0.2744,-0.2722,-0.2693,-0.2714,-0.2711,-0.2711,-0.2711,-0.2577,-0.2644,-0.338,-0.3111,-0.2657,-0.2523,-0.259,-0.2566,-0.225,-0.2334,-0.2391,-0.2214,-0.276,-0.2954,-0.2286,-0.3428,-0.407,-0.34,-0.4015,-0.4491,-0.4491,-0.4491,-0.4491,-0.4491,-0.4491,-0.4491,-0.4491,-0.4491,-0.4491,-0.4491,-0.4491,-0.4491,-0.4491,-0.4491,-0.4491,-0.4491,-0.4491,-0.4491,-0.4491,-0.4491,-0.4491,-0.4491,-0.4491,-0.4491,-0.4491,-0.4491,-0.4491,-0.4487,-0.4515,-0.4501,-0.4501,-0.4508,-0.4515,-0.4501,-0.3513,-0.3552,-0.3552,-0.3552,-0.3552,-0.3552,-0.3552,-0.4334,-0.4924,-0.4924,-0.5724,-0.6375,-0.6497,-0.6532,-0.6484,-0.634,-0.6327,-0.632,-0.6303,-0.63,-0.63,-0.63,-0.63,-0.63,-0.63,-0.63,-0.63,-0.63,-0.63,-0.63,-0.63,-0.63,-0.63,-0.63,-0.63,-0.63,-0.63,-0.63,-0.63,-0.6222,-0.5276,-0.4924,-0.4805,-0.3904,-0.3552,-0.3552,-0.3552,-0.3552,-0.3513,-0.3357,-0.3311,-0.3263,-0.3108,-0.2976,-0.2863,-0.2873,-0.2801,-0.2692,-0.2695,-0.2711,-0.2711,-0.2711,-0.2075,-0.1507,-0.1641,-0.221,-0.2657,-0.2523,-0.2519,-0.2446,-0.2242,-0.2232,-0.2244,-0.2204,-0.2286,-0.2315,-0.2204,-0.2982,-0.3511,-0.34,-0.4042,-0.4491,-0.4491,-0.4491,-0.4491,-0.4491,-0.4491,-0.4491,-0.4491,-0.4491,-0.4491,-0.4491,-0.4491,-0.4491,-0.4491,-0.4491,-0.4491,-0.4491,-0.4491,-0.4491,-0.4491,-0.4491,-0.4491,-0.4491,-0.4491,-0.4491,-0.4491,-0.4491,-0.4491,-0.4491,-0.4512,-0.4512,-0.4512,-0.4508,-0.4508,-0.4512,-0.3007,-0.3085,-0.3085,-0.3085,-0.3085,-0.3085,-0.3085,-0.3513,-0.3787,-0.3787,-0.4217,-0.4548,-0.4592,-0.4597,-0.458,-0.4533,-0.453,-0.453,-0.453,-0.453,-0.453,-0.453,-0.453,-0.453,-0.453,-0.453,-0.453,-0.453,-0.5709,-0.5983,-0.5395,-0.5395,-0.5079,-0.453,-0.453,-0.453,-0.453,-0.453,-0.453,-0.4491,-0.3982,-0.3787,-0.3748,-0.3279,-0.3085,-0.3085,-0.3085,-0.3085,-0.3007,-0.2464,-0.2268,-0.2151,-0.1566,-0.1309,-0.1278,-0.1282,-0.1249,-0.1183,-0.1184,-0.1176,-0.1176,-0.1176,-0.0873,-0.0572,-0.0572,-0.0907,-0.1171,-0.1125,-0.1114,-0.1073,-0.0998,-0.0984,-0.0978,-0.0978,-0.1312,-0.1591,-0.1591,-0.2621,-0.3541,-0.3959,-0.4294,-0.4491,-0.4491,-0.4491,-0.4491,-0.4491,-0.4491,-0.4491,-0.4491,-0.4491,-0.4491,-0.4491,-0.4491,-0.4491,-0.4491,-0.4491,-0.4491,-0.4491,-0.4491,-0.4491,-0.4491,-0.4491,-0.4491,-0.4491,-0.4491,-0.4491,-0.4491,-0.4491,-0.4491,-0.4491,-0.4491,-0.4491,-0.4491,-0.4491,-0.4491,-0.4491]}]]